<?xml version="1.0" encoding="UTF-8" standalone="no" ?>
<gpx xmlns="http://www.topografix.com/GPX/1/1" xmlns:xsi="http://www.w3.org/2001/XMLSchema-instance" xsi:schemaLocation="http://www.topografix.com/GPX/1/1 http://www.topografix.com/GPX/1/1/gpx.xsd" version="1.1" creator="VisuGPX - https://www.visugpx.com">
  <metadata>
    <name>85PrépaBrayduneV2</name>
  </metadata>
  <trk>
    <name><![CDATA[prepa BrayduneV2]]></name>
    <trkseg>
      <trkpt lat="50.50334" lon="3.46406">
        <ele>21.625424</ele>
        <time>2020-08-16T17:01:07.223Z</time>
      </trkpt>
      <trkpt lat="50.50337" lon="3.46412">
        <ele>21.625424</ele>
        <time>2020-08-16T17:01:12.371Z</time>
      </trkpt>
      <trkpt lat="50.50356" lon="3.46426">
        <ele>21.625424</ele>
        <time>2020-08-16T17:01:36.038Z</time>
      </trkpt>
      <trkpt lat="50.50362" lon="3.46434">
        <ele>21.625424</ele>
        <time>2020-08-16T17:01:45.002Z</time>
      </trkpt>
      <trkpt lat="50.50361" lon="3.46454">
        <ele>21.625424</ele>
        <time>2020-08-16T17:01:59.348Z</time>
      </trkpt>
      <trkpt lat="50.50405" lon="3.46483">
        <ele>21.66421</ele>
        <time>2020-08-16T17:02:07.784Z</time>
      </trkpt>
      <trkpt lat="50.50523" lon="3.46572">
        <ele>22.995372</ele>
        <time>2020-08-16T17:02:32.628Z</time>
      </trkpt>
      <trkpt lat="50.50681" lon="3.46651">
        <ele>24.600514</ele>
        <time>2020-08-16T17:03:05.054Z</time>
      </trkpt>
      <trkpt lat="50.50708" lon="3.46672">
        <ele>24.883676</ele>
        <time>2020-08-16T17:03:10.388Z</time>
      </trkpt>
      <trkpt lat="50.50735" lon="3.46707">
        <ele>25.162578</ele>
        <time>2020-08-16T17:03:16.282Z</time>
      </trkpt>
      <trkpt lat="50.50778" lon="3.46766">
        <ele>25.165642</ele>
        <time>2020-08-16T17:03:25.403Z</time>
      </trkpt>
      <trkpt lat="50.50821" lon="3.46826">
        <ele>25.168717</ele>
        <time>2020-08-16T17:03:33.996Z</time>
      </trkpt>
      <trkpt lat="50.50831" lon="3.4684">
        <ele>25.169414</ele>
        <time>2020-08-16T17:03:35.821Z</time>
      </trkpt>
      <trkpt lat="50.50837" lon="3.46857">
        <ele>25.170085</ele>
        <time>2020-08-16T17:03:37.594Z</time>
      </trkpt>
      <trkpt lat="50.5084" lon="3.46941">
        <ele>25.077212</ele>
        <time>2020-08-16T17:03:44.639Z</time>
      </trkpt>
      <trkpt lat="50.5085" lon="3.46978">
        <ele>24.951762</ele>
        <time>2020-08-16T17:03:48.054Z</time>
      </trkpt>
      <trkpt lat="50.50871" lon="3.47017">
        <ele>24.793257</ele>
        <time>2020-08-16T17:03:52.375Z</time>
      </trkpt>
      <trkpt lat="50.50899" lon="3.47062">
        <ele>24.599411</ele>
        <time>2020-08-16T17:03:57.653Z</time>
      </trkpt>
      <trkpt lat="50.50936" lon="3.47116">
        <ele>24.351733</ele>
        <time>2020-08-16T17:04:04.312Z</time>
      </trkpt>
      <trkpt lat="50.50985" lon="3.47169">
        <ele>24.084785</ele>
        <time>2020-08-16T17:04:12.306Z</time>
      </trkpt>
      <trkpt lat="50.51052" lon="3.47236">
        <ele>23.738153</ele>
        <time>2020-08-16T17:04:22.935Z</time>
      </trkpt>
      <trkpt lat="50.51059" lon="3.47247">
        <ele>23.696706</ele>
        <time>2020-08-16T17:04:24.226Z</time>
      </trkpt>
      <trkpt lat="50.51066" lon="3.47262">
        <ele>23.643986</ele>
        <time>2020-08-16T17:04:25.849Z</time>
      </trkpt>
      <trkpt lat="50.51065" lon="3.47278">
        <ele>23.598688</ele>
        <time>2020-08-16T17:04:27.267Z</time>
      </trkpt>
      <trkpt lat="50.51006" lon="3.47445">
        <ele>23.006794</ele>
        <time>2020-08-16T17:04:43.592Z</time>
      </trkpt>
      <trkpt lat="50.51016" lon="3.47475">
        <ele>22.898764</ele>
        <time>2020-08-16T17:04:46.534Z</time>
      </trkpt>
      <trkpt lat="50.51082" lon="3.4755">
        <ele>22.483359</ele>
        <time>2020-08-16T17:04:57.023Z</time>
      </trkpt>
      <trkpt lat="50.51104" lon="3.47596">
        <ele>22.282605</ele>
        <time>2020-08-16T17:05:01.687Z</time>
      </trkpt>
      <trkpt lat="50.5111" lon="3.47622">
        <ele>22.184771</ele>
        <time>2020-08-16T17:05:03.898Z</time>
      </trkpt>
      <trkpt lat="50.51109" lon="3.47654">
        <ele>22.074774</ele>
        <time>2020-08-16T17:05:06.606Z</time>
      </trkpt>
      <trkpt lat="50.51104" lon="3.47687">
        <ele>21.9566</ele>
        <time>2020-08-16T17:05:09.342Z</time>
      </trkpt>
      <trkpt lat="50.5108" lon="3.47774">
        <ele>21.62438</ele>
        <time>2020-08-16T17:05:17.614Z</time>
      </trkpt>
      <trkpt lat="50.51082" lon="3.47786">
        <ele>21.616376</ele>
        <time>2020-08-16T17:05:18.529Z</time>
      </trkpt>
      <trkpt lat="50.5109" lon="3.47798">
        <ele>21.606525</ele>
        <time>2020-08-16T17:05:20.312Z</time>
      </trkpt>
      <trkpt lat="50.51109" lon="3.47824">
        <ele>21.584967</ele>
        <time>2020-08-16T17:05:23.697Z</time>
      </trkpt>
      <trkpt lat="50.51122" lon="3.47856">
        <ele>21.563819</ele>
        <time>2020-08-16T17:05:27.460Z</time>
      </trkpt>
      <trkpt lat="50.51125" lon="3.47964">
        <ele>21.503866</ele>
        <time>2020-08-16T17:05:37.563Z</time>
      </trkpt>
      <trkpt lat="50.51129" lon="3.48001">
        <ele>21.483025</ele>
        <time>2020-08-16T17:05:40.988Z</time>
      </trkpt>
      <trkpt lat="50.51132" lon="3.48019">
        <ele>21.472761</ele>
        <time>2020-08-16T17:05:43.002Z</time>
      </trkpt>
      <trkpt lat="50.51138" lon="3.48111">
        <ele>21.463376</ele>
        <time>2020-08-16T17:05:51.799Z</time>
      </trkpt>
      <trkpt lat="50.51143" lon="3.48169">
        <ele>21.461308</ele>
        <time>2020-08-16T17:05:57.272Z</time>
      </trkpt>
      <trkpt lat="50.51135" lon="3.48237">
        <ele>21.458865</ele>
        <time>2020-08-16T17:06:03.717Z</time>
      </trkpt>
      <trkpt lat="50.5113" lon="3.48251">
        <ele>21.458321</ele>
        <time>2020-08-16T17:06:05.183Z</time>
      </trkpt>
      <trkpt lat="50.5112" lon="3.48278">
        <ele>21.457195</ele>
        <time>2020-08-16T17:06:07.965Z</time>
      </trkpt>
      <trkpt lat="50.511" lon="3.48334">
        <ele>21.574642</ele>
        <time>2020-08-16T17:06:14.158Z</time>
      </trkpt>
      <trkpt lat="50.51092" lon="3.48355">
        <ele>21.649957</ele>
        <time>2020-08-16T17:06:16.597Z</time>
      </trkpt>
      <trkpt lat="50.51087" lon="3.48377">
        <ele>21.72562</ele>
        <time>2020-08-16T17:06:18.972Z</time>
      </trkpt>
      <trkpt lat="50.51082" lon="3.4846">
        <ele>21.991111</ele>
        <time>2020-08-16T17:06:27.987Z</time>
      </trkpt>
      <trkpt lat="50.5108" lon="3.48506">
        <ele>22.138555</ele>
        <time>2020-08-16T17:06:33.116Z</time>
      </trkpt>
      <trkpt lat="50.51082" lon="3.48534">
        <ele>22.227608</ele>
        <time>2020-08-16T17:06:36.279Z</time>
      </trkpt>
      <trkpt lat="50.51087" lon="3.48604">
        <ele>22.475248</ele>
        <time>2020-08-16T17:06:44.487Z</time>
      </trkpt>
      <trkpt lat="50.51084" lon="3.48625">
        <ele>22.561022</ele>
        <time>2020-08-16T17:06:47.212Z</time>
      </trkpt>
      <trkpt lat="50.51065" lon="3.48691">
        <ele>22.846203</ele>
        <time>2020-08-16T17:06:55.776Z</time>
      </trkpt>
      <trkpt lat="50.5108" lon="3.48708">
        <ele>22.957954</ele>
        <time>2020-08-16T17:06:59.005Z</time>
      </trkpt>
      <trkpt lat="50.51096" lon="3.4873">
        <ele>23.093565</ele>
        <time>2020-08-16T17:07:02.795Z</time>
      </trkpt>
      <trkpt lat="50.51113" lon="3.48814">
        <ele>23.441773</ele>
        <time>2020-08-16T17:07:12.234Z</time>
      </trkpt>
      <trkpt lat="50.51135" lon="3.4885">
        <ele>23.344378</ele>
        <time>2020-08-16T17:07:16.800Z</time>
      </trkpt>
      <trkpt lat="50.5114" lon="3.48867">
        <ele>23.28224</ele>
        <time>2020-08-16T17:07:18.682Z</time>
      </trkpt>
      <trkpt lat="50.51144" lon="3.48878">
        <ele>23.243598</ele>
        <time>2020-08-16T17:07:19.575Z</time>
      </trkpt>
      <trkpt lat="50.5114" lon="3.48908">
        <ele>23.146461</ele>
        <time>2020-08-16T17:07:22.507Z</time>
      </trkpt>
      <trkpt lat="50.51084" lon="3.49038">
        <ele>22.637796</ele>
        <time>2020-08-16T17:07:35.161Z</time>
      </trkpt>
      <trkpt lat="50.5104" lon="3.49284">
        <ele>21.5284</ele>
        <time>2020-08-16T17:07:55.343Z</time>
      </trkpt>
      <trkpt lat="50.51039" lon="3.49338">
        <ele>21.309866</ele>
        <time>2020-08-16T17:08:00.057Z</time>
      </trkpt>
      <trkpt lat="50.51048" lon="3.49357">
        <ele>21.361297</ele>
        <time>2020-08-16T17:08:02.185Z</time>
      </trkpt>
      <trkpt lat="50.51121" lon="3.49492">
        <ele>21.746085</ele>
        <time>2020-08-16T17:08:20.063Z</time>
      </trkpt>
      <trkpt lat="50.51187" lon="3.49526">
        <ele>22.086595</ele>
        <time>2020-08-16T17:08:33.119Z</time>
      </trkpt>
      <trkpt lat="50.51219" lon="3.4955">
        <ele>22.384684</ele>
        <time>2020-08-16T17:08:39.709Z</time>
      </trkpt>
      <trkpt lat="50.51269" lon="3.49574">
        <ele>22.832262</ele>
        <time>2020-08-16T17:08:49.477Z</time>
      </trkpt>
      <trkpt lat="50.51271" lon="3.4958">
        <ele>22.872126</ele>
        <time>2020-08-16T17:08:50.356Z</time>
      </trkpt>
      <trkpt lat="50.51281" lon="3.49649">
        <ele>23.257126</ele>
        <time>2020-08-16T17:08:58.450Z</time>
      </trkpt>
      <trkpt lat="50.51284" lon="3.49655">
        <ele>23.295371</ele>
        <time>2020-08-16T17:08:59.284Z</time>
      </trkpt>
      <trkpt lat="50.5129" lon="3.49667">
        <ele>23.384825</ele>
        <time>2020-08-16T17:09:01.172Z</time>
      </trkpt>
      <trkpt lat="50.51308" lon="3.49699">
        <ele>23.575236</ele>
        <time>2020-08-16T17:09:05.869Z</time>
      </trkpt>
      <trkpt lat="50.51322" lon="3.49739">
        <ele>23.762328</ele>
        <time>2020-08-16T17:09:10.968Z</time>
      </trkpt>
      <trkpt lat="50.51323" lon="3.49797">
        <ele>24.002455</ele>
        <time>2020-08-16T17:09:17.175Z</time>
      </trkpt>
      <trkpt lat="50.51322" lon="3.49943">
        <ele>24.606801</ele>
        <time>2020-08-16T17:09:33.241Z</time>
      </trkpt>
      <trkpt lat="50.51329" lon="3.49959">
        <ele>24.68995</ele>
        <time>2020-08-16T17:09:35.346Z</time>
      </trkpt>
      <trkpt lat="50.51349" lon="3.49997">
        <ele>24.918009</ele>
        <time>2020-08-16T17:09:41.118Z</time>
      </trkpt>
      <trkpt lat="50.51365" lon="3.50016">
        <ele>25.061414</ele>
        <time>2020-08-16T17:09:44.887Z</time>
      </trkpt>
      <trkpt lat="50.51388" lon="3.50031">
        <ele>25.23565</ele>
        <time>2020-08-16T17:09:49.137Z</time>
      </trkpt>
      <trkpt lat="50.51394" lon="3.50042">
        <ele>25.30304</ele>
        <time>2020-08-16T17:09:51.065Z</time>
      </trkpt>
      <trkpt lat="50.51417" lon="3.50101">
        <ele>25.618427</ele>
        <time>2020-08-16T17:09:58.916Z</time>
      </trkpt>
      <trkpt lat="50.51429" lon="3.5015">
        <ele>25.854188</ele>
        <time>2020-08-16T17:10:04.850Z</time>
      </trkpt>
      <trkpt lat="50.51429" lon="3.50165">
        <ele>25.902296</ele>
        <time>2020-08-16T17:10:06.407Z</time>
      </trkpt>
      <trkpt lat="50.51413" lon="3.50213">
        <ele>25.903387</ele>
        <time>2020-08-16T17:10:12.323Z</time>
      </trkpt>
      <trkpt lat="50.51383" lon="3.50594">
        <ele>25.486357</ele>
        <time>2020-08-16T17:10:46.797Z</time>
      </trkpt>
      <trkpt lat="50.51385" lon="3.50682">
        <ele>25.25409</ele>
        <time>2020-08-16T17:10:54.110Z</time>
      </trkpt>
      <trkpt lat="50.51382" lon="3.50734">
        <ele>25.091606</ele>
        <time>2020-08-16T17:10:58.435Z</time>
      </trkpt>
      <trkpt lat="50.5137" lon="3.50913">
        <ele>24.359122</ele>
        <time>2020-08-16T17:11:13.176Z</time>
      </trkpt>
      <trkpt lat="50.51347" lon="3.51036">
        <ele>23.855162</ele>
        <time>2020-08-16T17:11:23.760Z</time>
      </trkpt>
      <trkpt lat="50.51339" lon="3.51141">
        <ele>23.461134</ele>
        <time>2020-08-16T17:11:32.523Z</time>
      </trkpt>
      <trkpt lat="50.51326" lon="3.51213">
        <ele>23.184556</ele>
        <time>2020-08-16T17:11:38.654Z</time>
      </trkpt>
      <trkpt lat="50.51244" lon="3.51405">
        <ele>22.77121</ele>
        <time>2020-08-16T17:11:58.535Z</time>
      </trkpt>
      <trkpt lat="50.51239" lon="3.51418">
        <ele>22.753838</ele>
        <time>2020-08-16T17:11:59.965Z</time>
      </trkpt>
      <trkpt lat="50.51226" lon="3.51449">
        <ele>22.713677</ele>
        <time>2020-08-16T17:12:03.463Z</time>
      </trkpt>
      <trkpt lat="50.51214" lon="3.51479">
        <ele>22.673609</ele>
        <time>2020-08-16T17:12:06.979Z</time>
      </trkpt>
      <trkpt lat="50.51205" lon="3.51506">
        <ele>22.670201</ele>
        <time>2020-08-16T17:12:10.020Z</time>
      </trkpt>
      <trkpt lat="50.51201" lon="3.51522">
        <ele>22.726999</ele>
        <time>2020-08-16T17:12:11.805Z</time>
      </trkpt>
      <trkpt lat="50.51197" lon="3.51535">
        <ele>22.775439</ele>
        <time>2020-08-16T17:12:13.463Z</time>
      </trkpt>
      <trkpt lat="50.51135" lon="3.51641">
        <ele>23.244564</ele>
        <time>2020-08-16T17:12:28.737Z</time>
      </trkpt>
      <trkpt lat="50.51124" lon="3.5167">
        <ele>23.352981</ele>
        <time>2020-08-16T17:12:32.464Z</time>
      </trkpt>
      <trkpt lat="50.51114" lon="3.51704">
        <ele>23.4793</ele>
        <time>2020-08-16T17:12:36.815Z</time>
      </trkpt>
      <trkpt lat="50.51104" lon="3.51739">
        <ele>23.596833</ele>
        <time>2020-08-16T17:12:41.195Z</time>
      </trkpt>
      <trkpt lat="50.51094" lon="3.5177">
        <ele>23.675188</ele>
        <time>2020-08-16T17:12:44.861Z</time>
      </trkpt>
      <trkpt lat="50.51093" lon="3.51776">
        <ele>23.691052</ele>
        <time>2020-08-16T17:12:45.626Z</time>
      </trkpt>
      <trkpt lat="50.51092" lon="3.51783">
        <ele>23.707596</ele>
        <time>2020-08-16T17:12:46.430Z</time>
      </trkpt>
      <trkpt lat="50.5109" lon="3.518">
        <ele>23.746655</ele>
        <time>2020-08-16T17:12:48.341Z</time>
      </trkpt>
      <trkpt lat="50.51095" lon="3.51812">
        <ele>23.780814</ele>
        <time>2020-08-16T17:12:50.477Z</time>
      </trkpt>
      <trkpt lat="50.51097" lon="3.51815">
        <ele>23.793211</ele>
        <time>2020-08-16T17:12:51.211Z</time>
      </trkpt>
      <trkpt lat="50.51101" lon="3.5182">
        <ele>23.809313</ele>
        <time>2020-08-16T17:12:52.177Z</time>
      </trkpt>
      <trkpt lat="50.51125" lon="3.51846">
        <ele>23.917464</ele>
        <time>2020-08-16T17:12:58.706Z</time>
      </trkpt>
      <trkpt lat="50.51185" lon="3.51902">
        <ele>24.173781</ele>
        <time>2020-08-16T17:13:13.429Z</time>
      </trkpt>
      <trkpt lat="50.51228" lon="3.51935">
        <ele>24.229617</ele>
        <time>2020-08-16T17:13:22.954Z</time>
      </trkpt>
      <trkpt lat="50.51256" lon="3.51954">
        <ele>24.226864</ele>
        <time>2020-08-16T17:13:28.967Z</time>
      </trkpt>
      <trkpt lat="50.51329" lon="3.51987">
        <ele>24.219936</ele>
        <time>2020-08-16T17:13:44.300Z</time>
      </trkpt>
      <trkpt lat="50.51345" lon="3.51994">
        <ele>24.218403</ele>
        <time>2020-08-16T17:13:47.563Z</time>
      </trkpt>
      <trkpt lat="50.51351" lon="3.51997">
        <ele>24.217847</ele>
        <time>2020-08-16T17:13:48.777Z</time>
      </trkpt>
      <trkpt lat="50.51355" lon="3.51998">
        <ele>24.217465</ele>
        <time>2020-08-16T17:13:49.621Z</time>
      </trkpt>
      <trkpt lat="50.51368" lon="3.51997">
        <ele>24.216312</ele>
        <time>2020-08-16T17:13:52.295Z</time>
      </trkpt>
      <trkpt lat="50.51408" lon="3.52001">
        <ele>24.35374</ele>
        <time>2020-08-16T17:14:00.544Z</time>
      </trkpt>
      <trkpt lat="50.51439" lon="3.52012">
        <ele>24.465322</ele>
        <time>2020-08-16T17:14:07.225Z</time>
      </trkpt>
      <trkpt lat="50.51497" lon="3.52047">
        <ele>24.688679</ele>
        <time>2020-08-16T17:14:20.896Z</time>
      </trkpt>
      <trkpt lat="50.51519" lon="3.5207">
        <ele>24.783074</ele>
        <time>2020-08-16T17:14:26.907Z</time>
      </trkpt>
      <trkpt lat="50.51521" lon="3.52073">
        <ele>24.79435</ele>
        <time>2020-08-16T17:14:27.721Z</time>
      </trkpt>
      <trkpt lat="50.51534" lon="3.52089">
        <ele>24.851146</ele>
        <time>2020-08-16T17:14:31.273Z</time>
      </trkpt>
      <trkpt lat="50.51559" lon="3.52125">
        <ele>25.040304</ele>
        <time>2020-08-16T17:14:39.004Z</time>
      </trkpt>
      <trkpt lat="50.51566" lon="3.52137">
        <ele>25.098008</ele>
        <time>2020-08-16T17:14:41.350Z</time>
      </trkpt>
      <trkpt lat="50.51584" lon="3.52161">
        <ele>25.236208</ele>
        <time>2020-08-16T17:14:46.819Z</time>
      </trkpt>
      <trkpt lat="50.51599" lon="3.52173">
        <ele>25.329366</ele>
        <time>2020-08-16T17:14:50.543Z</time>
      </trkpt>
      <trkpt lat="50.51827" lon="3.52368">
        <ele>26.708381</ele>
        <time>2020-08-16T17:15:48.472Z</time>
      </trkpt>
      <trkpt lat="50.51887" lon="3.52376">
        <ele>27.053536</ele>
        <time>2020-08-16T17:16:01.773Z</time>
      </trkpt>
      <trkpt lat="50.52072" lon="3.52374">
        <ele>28.115656</ele>
        <time>2020-08-16T17:16:43.830Z</time>
      </trkpt>
      <trkpt lat="50.52072" lon="3.52374">
        <ele>28.115656</ele>
        <time>2020-08-16T17:16:43.879Z</time>
      </trkpt>
      <trkpt lat="50.5211" lon="3.52367">
        <ele>28.301588</ele>
        <time>2020-08-16T17:16:52.563Z</time>
      </trkpt>
      <trkpt lat="50.52137" lon="3.52361">
        <ele>28.432206</ele>
        <time>2020-08-16T17:16:58.547Z</time>
      </trkpt>
      <trkpt lat="50.52181" lon="3.52351">
        <ele>28.646627</ele>
        <time>2020-08-16T17:17:08.433Z</time>
      </trkpt>
      <trkpt lat="50.52187" lon="3.52349">
        <ele>28.679358</ele>
        <time>2020-08-16T17:17:09.816Z</time>
      </trkpt>
      <trkpt lat="50.52197" lon="3.52407">
        <ele>28.686897</ele>
        <time>2020-08-16T17:17:17.861Z</time>
      </trkpt>
      <trkpt lat="50.52221" lon="3.52533">
        <ele>28.422722</ele>
        <time>2020-08-16T17:17:34.020Z</time>
      </trkpt>
      <trkpt lat="50.52216" lon="3.52557">
        <ele>28.372162</ele>
        <time>2020-08-16T17:17:36.942Z</time>
      </trkpt>
      <trkpt lat="50.52211" lon="3.5256">
        <ele>28.355547</ele>
        <time>2020-08-16T17:17:37.846Z</time>
      </trkpt>
      <trkpt lat="50.52121" lon="3.52601">
        <ele>27.962995</ele>
        <time>2020-08-16T17:17:55.004Z</time>
      </trkpt>
      <trkpt lat="50.52089" lon="3.52612">
        <ele>27.784888</ele>
        <time>2020-08-16T17:18:01.058Z</time>
      </trkpt>
      <trkpt lat="50.52079" lon="3.52637">
        <ele>27.680778</ele>
        <time>2020-08-16T17:18:04.394Z</time>
      </trkpt>
      <trkpt lat="50.52054" lon="3.52645">
        <ele>27.542934</ele>
        <time>2020-08-16T17:18:07.728Z</time>
      </trkpt>
      <trkpt lat="50.52087" lon="3.52713">
        <ele>27.243998</ele>
        <time>2020-08-16T17:18:17.879Z</time>
      </trkpt>
      <trkpt lat="50.52091" lon="3.52718">
        <ele>27.215613</ele>
        <time>2020-08-16T17:18:19.090Z</time>
      </trkpt>
      <trkpt lat="50.52088" lon="3.52744">
        <ele>27.14156</ele>
        <time>2020-08-16T17:18:22.151Z</time>
      </trkpt>
      <trkpt lat="50.52091" lon="3.5284">
        <ele>26.892019</ele>
        <time>2020-08-16T17:18:33.849Z</time>
      </trkpt>
      <trkpt lat="50.52141" lon="3.5321">
        <ele>25.97277</ele>
        <time>2020-08-16T17:19:19.045Z</time>
      </trkpt>
      <trkpt lat="50.52165" lon="3.53274">
        <ele>25.82501</ele>
        <time>2020-08-16T17:19:28.076Z</time>
      </trkpt>
      <trkpt lat="50.522" lon="3.5331">
        <ele>25.953112</ele>
        <time>2020-08-16T17:19:36.633Z</time>
      </trkpt>
      <trkpt lat="50.52224" lon="3.53368">
        <ele>26.086698</ele>
        <time>2020-08-16T17:19:45.958Z</time>
      </trkpt>
      <trkpt lat="50.52249" lon="3.53434">
        <ele>26.235951</ele>
        <time>2020-08-16T17:19:56.783Z</time>
      </trkpt>
      <trkpt lat="50.52285" lon="3.53527">
        <ele>26.533868</ele>
        <time>2020-08-16T17:20:12.581Z</time>
      </trkpt>
      <trkpt lat="50.52329" lon="3.53597">
        <ele>26.929624</ele>
        <time>2020-08-16T17:20:27.361Z</time>
      </trkpt>
      <trkpt lat="50.52347" lon="3.53687">
        <ele>27.304401</ele>
        <time>2020-08-16T17:20:40.833Z</time>
      </trkpt>
      <trkpt lat="50.52347" lon="3.53702">
        <ele>27.363884</ele>
        <time>2020-08-16T17:20:43.231Z</time>
      </trkpt>
      <trkpt lat="50.5234" lon="3.53713">
        <ele>27.425278</ele>
        <time>2020-08-16T17:20:45.191Z</time>
      </trkpt>
      <trkpt lat="50.52274" lon="3.53804">
        <ele>27.671721</ele>
        <time>2020-08-16T17:21:04.480Z</time>
      </trkpt>
      <trkpt lat="50.52183" lon="3.53895">
        <ele>27.885454</ele>
        <time>2020-08-16T17:21:26.655Z</time>
      </trkpt>
      <trkpt lat="50.52176" lon="3.53917">
        <ele>27.805414</ele>
        <time>2020-08-16T17:21:29.999Z</time>
      </trkpt>
      <trkpt lat="50.52157" lon="3.53918">
        <ele>27.713005</ele>
        <time>2020-08-16T17:21:33.534Z</time>
      </trkpt>
      <trkpt lat="50.52134" lon="3.53912">
        <ele>27.595266</ele>
        <time>2020-08-16T17:21:38.183Z</time>
      </trkpt>
      <trkpt lat="50.52054" lon="3.53851">
        <ele>27.157951</ele>
        <time>2020-08-16T17:21:54.395Z</time>
      </trkpt>
      <trkpt lat="50.52008" lon="3.53825">
        <ele>26.811866</ele>
        <time>2020-08-16T17:22:02.904Z</time>
      </trkpt>
      <trkpt lat="50.51966" lon="3.53816">
        <ele>26.392438</ele>
        <time>2020-08-16T17:22:10.059Z</time>
      </trkpt>
      <trkpt lat="50.51894" lon="3.53817">
        <ele>25.679482</ele>
        <time>2020-08-16T17:22:22.255Z</time>
      </trkpt>
      <trkpt lat="50.51831" lon="3.53802">
        <ele>25.184769</ele>
        <time>2020-08-16T17:22:33.689Z</time>
      </trkpt>
      <trkpt lat="50.51803" lon="3.53804">
        <ele>25.105954</ele>
        <time>2020-08-16T17:22:39.253Z</time>
      </trkpt>
      <trkpt lat="50.51794" lon="3.53808">
        <ele>25.080841</ele>
        <time>2020-08-16T17:22:40.747Z</time>
      </trkpt>
      <trkpt lat="50.51791" lon="3.53838">
        <ele>25.026771</ele>
        <time>2020-08-16T17:22:44.927Z</time>
      </trkpt>
      <trkpt lat="50.51811" lon="3.54">
        <ele>24.724771</ele>
        <time>2020-08-16T17:23:05.890Z</time>
      </trkpt>
      <trkpt lat="50.51806" lon="3.54072">
        <ele>24.379559</ele>
        <time>2020-08-16T17:23:14.659Z</time>
      </trkpt>
      <trkpt lat="50.51798" lon="3.54103">
        <ele>24.222618</ele>
        <time>2020-08-16T17:23:18.905Z</time>
      </trkpt>
      <trkpt lat="50.5179" lon="3.54128">
        <ele>24.089006</ele>
        <time>2020-08-16T17:23:21.954Z</time>
      </trkpt>
      <trkpt lat="50.5175" lon="3.54215">
        <ele>23.575251</ele>
        <time>2020-08-16T17:23:33.802Z</time>
      </trkpt>
      <trkpt lat="50.51681" lon="3.5429">
        <ele>22.901411</ele>
        <time>2020-08-16T17:23:48.076Z</time>
      </trkpt>
      <trkpt lat="50.51631" lon="3.54334">
        <ele>22.438827</ele>
        <time>2020-08-16T17:23:57.937Z</time>
      </trkpt>
      <trkpt lat="50.51634" lon="3.54361">
        <ele>22.297638</ele>
        <time>2020-08-16T17:24:01.073Z</time>
      </trkpt>
      <trkpt lat="50.51634" lon="3.54361">
        <ele>22.297638</ele>
        <time>2020-08-16T17:24:01.096Z</time>
      </trkpt>
      <trkpt lat="50.5169" lon="3.54538">
        <ele>22.036666</ele>
        <time>2020-08-16T17:24:25.376Z</time>
      </trkpt>
      <trkpt lat="50.51742" lon="3.54636">
        <ele>22.160679</ele>
        <time>2020-08-16T17:24:43.438Z</time>
      </trkpt>
      <trkpt lat="50.51757" lon="3.54662">
        <ele>22.201021</ele>
        <time>2020-08-16T17:24:48.338Z</time>
      </trkpt>
      <trkpt lat="50.51774" lon="3.54691">
        <ele>22.318898</ele>
        <time>2020-08-16T17:24:53.903Z</time>
      </trkpt>
      <trkpt lat="50.51854" lon="3.54801">
        <ele>22.816585</ele>
        <time>2020-08-16T17:25:17.706Z</time>
      </trkpt>
      <trkpt lat="50.51967" lon="3.54896">
        <ele>23.311051</ele>
        <time>2020-08-16T17:25:45.313Z</time>
      </trkpt>
      <trkpt lat="50.5198" lon="3.54901">
        <ele>23.35943</ele>
        <time>2020-08-16T17:25:48.459Z</time>
      </trkpt>
      <trkpt lat="50.51991" lon="3.54901">
        <ele>23.396098</ele>
        <time>2020-08-16T17:25:50.115Z</time>
      </trkpt>
      <trkpt lat="50.5204" lon="3.54909">
        <ele>23.564802</ele>
        <time>2020-08-16T17:25:57.888Z</time>
      </trkpt>
      <trkpt lat="50.52182" lon="3.55054">
        <ele>24.459531</ele>
        <time>2020-08-16T17:26:25.967Z</time>
      </trkpt>
      <trkpt lat="50.52203" lon="3.55055">
        <ele>24.580587</ele>
        <time>2020-08-16T17:26:29.825Z</time>
      </trkpt>
      <trkpt lat="50.52327" lon="3.54942">
        <ele>26.303505</ele>
        <time>2020-08-16T17:26:57.406Z</time>
      </trkpt>
      <trkpt lat="50.52356" lon="3.54915">
        <ele>26.735563</ele>
        <time>2020-08-16T17:27:04.853Z</time>
      </trkpt>
      <trkpt lat="50.52381" lon="3.54892">
        <ele>27.172566</ele>
        <time>2020-08-16T17:27:11.143Z</time>
      </trkpt>
      <trkpt lat="50.52449" lon="3.54833">
        <ele>28.650948</ele>
        <time>2020-08-16T17:27:28.532Z</time>
      </trkpt>
      <trkpt lat="50.52472" lon="3.54812">
        <ele>29.160782</ele>
        <time>2020-08-16T17:27:34.830Z</time>
      </trkpt>
      <trkpt lat="50.52511" lon="3.54785">
        <ele>29.975934</ele>
        <time>2020-08-16T17:27:44.653Z</time>
      </trkpt>
      <trkpt lat="50.52558" lon="3.54762">
        <ele>30.746748</ele>
        <time>2020-08-16T17:27:55.599Z</time>
      </trkpt>
      <trkpt lat="50.52627" lon="3.5473">
        <ele>31.696529</ele>
        <time>2020-08-16T17:28:10.357Z</time>
      </trkpt>
      <trkpt lat="50.52656" lon="3.54715">
        <ele>32.108442</ele>
        <time>2020-08-16T17:28:16.207Z</time>
      </trkpt>
      <trkpt lat="50.5282" lon="3.54642">
        <ele>33.881705</ele>
        <time>2020-08-16T17:28:47.650Z</time>
      </trkpt>
      <trkpt lat="50.52843" lon="3.54632">
        <ele>34.10256</ele>
        <time>2020-08-16T17:28:52.047Z</time>
      </trkpt>
      <trkpt lat="50.52867" lon="3.54625">
        <ele>34.332289</ele>
        <time>2020-08-16T17:28:56.726Z</time>
      </trkpt>
      <trkpt lat="50.53141" lon="3.54615">
        <ele>36.809731</ele>
        <time>2020-08-16T17:29:47.994Z</time>
      </trkpt>
      <trkpt lat="50.53153" lon="3.54615">
        <ele>36.903417</ele>
        <time>2020-08-16T17:29:50.289Z</time>
      </trkpt>
      <trkpt lat="50.53168" lon="3.54621">
        <ele>37.017782</ele>
        <time>2020-08-16T17:29:52.718Z</time>
      </trkpt>
      <trkpt lat="50.53206" lon="3.54654">
        <ele>37.346346</ele>
        <time>2020-08-16T17:29:59.768Z</time>
      </trkpt>
      <trkpt lat="50.53279" lon="3.54746">
        <ele>37.964696</ele>
        <time>2020-08-16T17:30:16.256Z</time>
      </trkpt>
      <trkpt lat="50.53301" lon="3.54774">
        <ele>38.144857</ele>
        <time>2020-08-16T17:30:21.118Z</time>
      </trkpt>
      <trkpt lat="50.53323" lon="3.54801">
        <ele>38.316893</ele>
        <time>2020-08-16T17:30:25.564Z</time>
      </trkpt>
      <trkpt lat="50.53327" lon="3.54795">
        <ele>38.354261</ele>
        <time>2020-08-16T17:30:26.874Z</time>
      </trkpt>
      <trkpt lat="50.53432" lon="3.54692">
        <ele>39.294747</ele>
        <time>2020-08-16T17:30:48.758Z</time>
      </trkpt>
      <trkpt lat="50.53484" lon="3.5462">
        <ele>39.886227</ele>
        <time>2020-08-16T17:31:01.624Z</time>
      </trkpt>
      <trkpt lat="50.53548" lon="3.54558">
        <ele>40.619298</ele>
        <time>2020-08-16T17:31:15.404Z</time>
      </trkpt>
      <trkpt lat="50.53683" lon="3.5442">
        <ele>42.494204</ele>
        <time>2020-08-16T17:31:46.477Z</time>
      </trkpt>
      <trkpt lat="50.53806" lon="3.54383">
        <ele>44.551721</ele>
        <time>2020-08-16T17:32:13.967Z</time>
      </trkpt>
      <trkpt lat="50.53932" lon="3.54346">
        <ele>46.363046</ele>
        <time>2020-08-16T17:32:42.075Z</time>
      </trkpt>
      <trkpt lat="50.53958" lon="3.54335">
        <ele>46.716063</ele>
        <time>2020-08-16T17:32:47.363Z</time>
      </trkpt>
      <trkpt lat="50.53985" lon="3.54339">
        <ele>47.077761</ele>
        <time>2020-08-16T17:32:52.659Z</time>
      </trkpt>
      <trkpt lat="50.54011" lon="3.54358">
        <ele>47.455559</ele>
        <time>2020-08-16T17:32:57.916Z</time>
      </trkpt>
      <trkpt lat="50.54093" lon="3.54426">
        <ele>47.357967</ele>
        <time>2020-08-16T17:33:12.092Z</time>
      </trkpt>
      <trkpt lat="50.54113" lon="3.54448">
        <ele>47.316924</ele>
        <time>2020-08-16T17:33:15.436Z</time>
      </trkpt>
      <trkpt lat="50.54133" lon="3.54488">
        <ele>47.263173</ele>
        <time>2020-08-16T17:33:19.712Z</time>
      </trkpt>
      <trkpt lat="50.54138" lon="3.54508">
        <ele>47.24073</ele>
        <time>2020-08-16T17:33:21.408Z</time>
      </trkpt>
      <trkpt lat="50.54141" lon="3.5453">
        <ele>47.216298</ele>
        <time>2020-08-16T17:33:23.223Z</time>
      </trkpt>
      <trkpt lat="50.54148" lon="3.54582">
        <ele>46.977776</ele>
        <time>2020-08-16T17:33:27.457Z</time>
      </trkpt>
      <trkpt lat="50.54183" lon="3.54702">
        <ele>46.292615</ele>
        <time>2020-08-16T17:33:37.910Z</time>
      </trkpt>
      <trkpt lat="50.54189" lon="3.54724">
        <ele>46.167163</ele>
        <time>2020-08-16T17:33:39.724Z</time>
      </trkpt>
      <trkpt lat="50.5425" lon="3.54789">
        <ele>45.605311</ele>
        <time>2020-08-16T17:33:48.998Z</time>
      </trkpt>
      <trkpt lat="50.54293" lon="3.54836">
        <ele>45.269844</ele>
        <time>2020-08-16T17:33:56.039Z</time>
      </trkpt>
      <trkpt lat="50.54316" lon="3.54851">
        <ele>45.105646</ele>
        <time>2020-08-16T17:33:59.306Z</time>
      </trkpt>
      <trkpt lat="50.54348" lon="3.54866">
        <ele>44.891387</ele>
        <time>2020-08-16T17:34:03.712Z</time>
      </trkpt>
      <trkpt lat="50.54428" lon="3.54902">
        <ele>44.24014</ele>
        <time>2020-08-16T17:34:14.321Z</time>
      </trkpt>
      <trkpt lat="50.54492" lon="3.54932">
        <ele>43.562091</ele>
        <time>2020-08-16T17:34:22.792Z</time>
      </trkpt>
      <trkpt lat="50.54548" lon="3.54956">
        <ele>42.981422</ele>
        <time>2020-08-16T17:34:29.686Z</time>
      </trkpt>
      <trkpt lat="50.54611" lon="3.54994">
        <ele>42.335577</ele>
        <time>2020-08-16T17:34:37.420Z</time>
      </trkpt>
      <trkpt lat="50.54639" lon="3.55029">
        <ele>41.99782</ele>
        <time>2020-08-16T17:34:41.663Z</time>
      </trkpt>
      <trkpt lat="50.54665" lon="3.55052">
        <ele>41.71901</ele>
        <time>2020-08-16T17:34:45.255Z</time>
      </trkpt>
      <trkpt lat="50.54689" lon="3.55072">
        <ele>41.456955</ele>
        <time>2020-08-16T17:34:48.686Z</time>
      </trkpt>
      <trkpt lat="50.54693" lon="3.55074">
        <ele>41.419007</ele>
        <time>2020-08-16T17:34:49.215Z</time>
      </trkpt>
      <trkpt lat="50.54849" lon="3.5518">
        <ele>41.295546</ele>
        <time>2020-08-16T17:35:13.394Z</time>
      </trkpt>
      <trkpt lat="50.55001" lon="3.55282">
        <ele>42.440427</ele>
        <time>2020-08-16T17:35:45.192Z</time>
      </trkpt>
      <trkpt lat="50.55094" lon="3.55255">
        <ele>43.013905</ele>
        <time>2020-08-16T17:36:01.933Z</time>
      </trkpt>
      <trkpt lat="50.55108" lon="3.55228">
        <ele>43.031992</ele>
        <time>2020-08-16T17:36:05.334Z</time>
      </trkpt>
      <trkpt lat="50.55145" lon="3.55144">
        <ele>43.0862</ele>
        <time>2020-08-16T17:36:15.680Z</time>
      </trkpt>
      <trkpt lat="50.55157" lon="3.55116">
        <ele>43.103973</ele>
        <time>2020-08-16T17:36:18.860Z</time>
      </trkpt>
      <trkpt lat="50.55191" lon="3.55031">
        <ele>42.979022</ele>
        <time>2020-08-16T17:36:26.921Z</time>
      </trkpt>
      <trkpt lat="50.55207" lon="3.54961">
        <ele>42.701363</ele>
        <time>2020-08-16T17:36:32.939Z</time>
      </trkpt>
      <trkpt lat="50.55364" lon="3.54813">
        <ele>41.97284</ele>
        <time>2020-08-16T17:37:06.770Z</time>
      </trkpt>
      <trkpt lat="50.554" lon="3.54809">
        <ele>41.922842</ele>
        <time>2020-08-16T17:37:13.816Z</time>
      </trkpt>
      <trkpt lat="50.55581" lon="3.54823">
        <ele>42.251152</ele>
        <time>2020-08-16T17:37:52.897Z</time>
      </trkpt>
      <trkpt lat="50.55629" lon="3.54826">
        <ele>42.426195</ele>
        <time>2020-08-16T17:38:03.432Z</time>
      </trkpt>
      <trkpt lat="50.55713" lon="3.54836">
        <ele>42.764584</ele>
        <time>2020-08-16T17:38:21.865Z</time>
      </trkpt>
      <trkpt lat="50.55828" lon="3.54903">
        <ele>43.30209</ele>
        <time>2020-08-16T17:38:48.596Z</time>
      </trkpt>
      <trkpt lat="50.55854" lon="3.54922">
        <ele>43.502892</ele>
        <time>2020-08-16T17:38:55.012Z</time>
      </trkpt>
      <trkpt lat="50.55832" lon="3.55038">
        <ele>44.047631</ele>
        <time>2020-08-16T17:39:08.571Z</time>
      </trkpt>
      <trkpt lat="50.55878" lon="3.55061">
        <ele>44.388293</ele>
        <time>2020-08-16T17:39:17.395Z</time>
      </trkpt>
      <trkpt lat="50.56116" lon="3.55181">
        <ele>47.035811</ele>
        <time>2020-08-16T17:40:04.903Z</time>
      </trkpt>
      <trkpt lat="50.56152" lon="3.55189">
        <ele>47.49298</ele>
        <time>2020-08-16T17:40:12.076Z</time>
      </trkpt>
      <trkpt lat="50.56166" lon="3.55201">
        <ele>47.693369</ele>
        <time>2020-08-16T17:40:15.311Z</time>
      </trkpt>
      <trkpt lat="50.56182" lon="3.55226">
        <ele>47.979959</ele>
        <time>2020-08-16T17:40:19.801Z</time>
      </trkpt>
      <trkpt lat="50.56196" lon="3.55248">
        <ele>48.228973</ele>
        <time>2020-08-16T17:40:23.928Z</time>
      </trkpt>
      <trkpt lat="50.56242" lon="3.55321">
        <ele>49.076344</ele>
        <time>2020-08-16T17:40:37.256Z</time>
      </trkpt>
      <trkpt lat="50.56313" lon="3.5538">
        <ele>50.144377</ele>
        <time>2020-08-16T17:40:53.737Z</time>
      </trkpt>
      <trkpt lat="50.56383" lon="3.5546">
        <ele>51.26746</ele>
        <time>2020-08-16T17:41:10.886Z</time>
      </trkpt>
      <trkpt lat="50.56456" lon="3.5558">
        <ele>52.537519</ele>
        <time>2020-08-16T17:41:31.456Z</time>
      </trkpt>
      <trkpt lat="50.56547" lon="3.55782">
        <ele>54.449994</ele>
        <time>2020-08-16T17:42:02.760Z</time>
      </trkpt>
      <trkpt lat="50.56564" lon="3.55809">
        <ele>54.742862</ele>
        <time>2020-08-16T17:42:07.665Z</time>
      </trkpt>
      <trkpt lat="50.56603" lon="3.55849">
        <ele>55.307718</ele>
        <time>2020-08-16T17:42:16.859Z</time>
      </trkpt>
      <trkpt lat="50.56653" lon="3.55885">
        <ele>55.809043</ele>
        <time>2020-08-16T17:42:27.318Z</time>
      </trkpt>
      <trkpt lat="50.56668" lon="3.55909">
        <ele>55.994661</ele>
        <time>2020-08-16T17:42:31.099Z</time>
      </trkpt>
      <trkpt lat="50.5672" lon="3.55948">
        <ele>56.497569</ele>
        <time>2020-08-16T17:42:41.135Z</time>
      </trkpt>
      <trkpt lat="50.56752" lon="3.5596">
        <ele>56.780595</ele>
        <time>2020-08-16T17:42:47.123Z</time>
      </trkpt>
      <trkpt lat="50.56844" lon="3.56019">
        <ele>57.894685</ele>
        <time>2020-08-16T17:43:05.275Z</time>
      </trkpt>
      <trkpt lat="50.5687" lon="3.56039">
        <ele>58.240282</ele>
        <time>2020-08-16T17:43:10.995Z</time>
      </trkpt>
      <trkpt lat="50.5692" lon="3.56103">
        <ele>58.998076</ele>
        <time>2020-08-16T17:43:24.067Z</time>
      </trkpt>
      <trkpt lat="50.5703" lon="3.56333">
        <ele>62.556504</ele>
        <time>2020-08-16T17:44:06.042Z</time>
      </trkpt>
      <trkpt lat="50.57042" lon="3.56362">
        <ele>62.977774</ele>
        <time>2020-08-16T17:44:11.222Z</time>
      </trkpt>
      <trkpt lat="50.57052" lon="3.56466">
        <ele>64.267797</ele>
        <time>2020-08-16T17:44:27.173Z</time>
      </trkpt>
      <trkpt lat="50.57081" lon="3.56548">
        <ele>65.416489</ele>
        <time>2020-08-16T17:44:40.715Z</time>
      </trkpt>
      <trkpt lat="50.57116" lon="3.56609">
        <ele>66.154983</ele>
        <time>2020-08-16T17:44:51.731Z</time>
      </trkpt>
      <trkpt lat="50.57163" lon="3.5671">
        <ele>66.551141</ele>
        <time>2020-08-16T17:45:06.046Z</time>
      </trkpt>
      <trkpt lat="50.57194" lon="3.56777">
        <ele>66.814101</ele>
        <time>2020-08-16T17:45:14.319Z</time>
      </trkpt>
      <trkpt lat="50.57274" lon="3.56941">
        <ele>66.090697</ele>
        <time>2020-08-16T17:45:31.089Z</time>
      </trkpt>
      <trkpt lat="50.57361" lon="3.57103">
        <ele>64.689231</ele>
        <time>2020-08-16T17:45:47.348Z</time>
      </trkpt>
      <trkpt lat="50.57365" lon="3.57123">
        <ele>64.521404</ele>
        <time>2020-08-16T17:45:48.916Z</time>
      </trkpt>
      <trkpt lat="50.57352" lon="3.57194">
        <ele>63.92319</ele>
        <time>2020-08-16T17:45:54.426Z</time>
      </trkpt>
      <trkpt lat="50.57353" lon="3.57203">
        <ele>63.844373</ele>
        <time>2020-08-16T17:45:55.125Z</time>
      </trkpt>
      <trkpt lat="50.57358" lon="3.57216">
        <ele>63.726817</ele>
        <time>2020-08-16T17:45:56.158Z</time>
      </trkpt>
      <trkpt lat="50.57397" lon="3.57303">
        <ele>62.913797</ele>
        <time>2020-08-16T17:46:04.216Z</time>
      </trkpt>
      <trkpt lat="50.57426" lon="3.57372">
        <ele>62.405803</ele>
        <time>2020-08-16T17:46:10.450Z</time>
      </trkpt>
      <trkpt lat="50.57474" lon="3.57344">
        <ele>61.913031</ele>
        <time>2020-08-16T17:46:19.237Z</time>
      </trkpt>
      <trkpt lat="50.57514" lon="3.57325">
        <ele>61.50458</ele>
        <time>2020-08-16T17:46:26.750Z</time>
      </trkpt>
      <trkpt lat="50.5753" lon="3.57323">
        <ele>61.360727</ele>
        <time>2020-08-16T17:46:29.744Z</time>
      </trkpt>
      <trkpt lat="50.57651" lon="3.57396">
        <ele>61.033721</ele>
        <time>2020-08-16T17:46:54.742Z</time>
      </trkpt>
      <trkpt lat="50.57663" lon="3.57376">
        <ele>60.990218</ele>
        <time>2020-08-16T17:46:58.066Z</time>
      </trkpt>
      <trkpt lat="50.57672" lon="3.57318">
        <ele>60.896876</ele>
        <time>2020-08-16T17:47:05.822Z</time>
      </trkpt>
      <trkpt lat="50.57677" lon="3.57303">
        <ele>60.876422</ele>
        <time>2020-08-16T17:47:08.149Z</time>
      </trkpt>
      <trkpt lat="50.57685" lon="3.57295">
        <ele>60.858941</ele>
        <time>2020-08-16T17:47:09.864Z</time>
      </trkpt>
      <trkpt lat="50.57699" lon="3.57293">
        <ele>60.831934</ele>
        <time>2020-08-16T17:47:12.621Z</time>
      </trkpt>
      <trkpt lat="50.57711" lon="3.57305">
        <ele>60.805166</ele>
        <time>2020-08-16T17:47:15.542Z</time>
      </trkpt>
      <trkpt lat="50.57735" lon="3.57343">
        <ele>60.73823</ele>
        <time>2020-08-16T17:47:22.461Z</time>
      </trkpt>
      <trkpt lat="50.57795" lon="3.57339">
        <ele>60.622918</ele>
        <time>2020-08-16T17:47:34.034Z</time>
      </trkpt>
      <trkpt lat="50.5787" lon="3.57336">
        <ele>60.369861</ele>
        <time>2020-08-16T17:47:48.021Z</time>
      </trkpt>
      <trkpt lat="50.57983" lon="3.57349">
        <ele>59.871213</ele>
        <time>2020-08-16T17:48:09.039Z</time>
      </trkpt>
      <trkpt lat="50.58035" lon="3.57379">
        <ele>59.62207</ele>
        <time>2020-08-16T17:48:19.822Z</time>
      </trkpt>
      <trkpt lat="50.58045" lon="3.57382">
        <ele>59.575859</ele>
        <time>2020-08-16T17:48:21.718Z</time>
      </trkpt>
      <trkpt lat="50.58078" lon="3.57393">
        <ele>59.423784</ele>
        <time>2020-08-16T17:48:28.187Z</time>
      </trkpt>
      <trkpt lat="50.58131" lon="3.57411">
        <ele>59.178514</ele>
        <time>2020-08-16T17:48:38.453Z</time>
      </trkpt>
      <trkpt lat="50.58153" lon="3.57412">
        <ele>59.080184</ele>
        <time>2020-08-16T17:48:42.466Z</time>
      </trkpt>
      <trkpt lat="50.58177" lon="3.57414">
        <ele>58.969615</ele>
        <time>2020-08-16T17:48:46.884Z</time>
      </trkpt>
      <trkpt lat="50.58186" lon="3.57416">
        <ele>58.877446</ele>
        <time>2020-08-16T17:48:48.443Z</time>
      </trkpt>
      <trkpt lat="50.58192" lon="3.5742">
        <ele>58.802502</ele>
        <time>2020-08-16T17:48:49.574Z</time>
      </trkpt>
      <trkpt lat="50.58253" lon="3.5748">
        <ele>57.985391</ele>
        <time>2020-08-16T17:49:02.147Z</time>
      </trkpt>
      <trkpt lat="50.58284" lon="3.57505">
        <ele>57.587334</ele>
        <time>2020-08-16T17:49:08.010Z</time>
      </trkpt>
      <trkpt lat="50.58284" lon="3.57505">
        <ele>57.587334</ele>
        <time>2020-08-16T17:49:08.016Z</time>
      </trkpt>
      <trkpt lat="50.58284" lon="3.57505">
        <ele>57.587334</ele>
        <time>2020-08-16T17:49:08.077Z</time>
      </trkpt>
      <trkpt lat="50.58289" lon="3.57491">
        <ele>57.466732</ele>
        <time>2020-08-16T17:49:09.856Z</time>
      </trkpt>
      <trkpt lat="50.58297" lon="3.57518">
        <ele>57.241085</ele>
        <time>2020-08-16T17:49:13.054Z</time>
      </trkpt>
      <trkpt lat="50.58321" lon="3.57617">
        <ele>56.398804</ele>
        <time>2020-08-16T17:49:24.071Z</time>
      </trkpt>
      <trkpt lat="50.58343" lon="3.5773">
        <ele>55.389483</ele>
        <time>2020-08-16T17:49:36.429Z</time>
      </trkpt>
      <trkpt lat="50.58352" lon="3.57784">
        <ele>54.919239</ele>
        <time>2020-08-16T17:49:42.467Z</time>
      </trkpt>
      <trkpt lat="50.58366" lon="3.57849">
        <ele>54.428586</ele>
        <time>2020-08-16T17:49:50.006Z</time>
      </trkpt>
      <trkpt lat="50.5838" lon="3.57911">
        <ele>54.225818</ele>
        <time>2020-08-16T17:49:57.282Z</time>
      </trkpt>
      <trkpt lat="50.58402" lon="3.58003">
        <ele>53.922705</ele>
        <time>2020-08-16T17:50:09.007Z</time>
      </trkpt>
      <trkpt lat="50.58452" lon="3.58064">
        <ele>53.612553</ele>
        <time>2020-08-16T17:50:21.697Z</time>
      </trkpt>
      <trkpt lat="50.58476" lon="3.5801">
        <ele>53.590511</ele>
        <time>2020-08-16T17:50:30.084Z</time>
      </trkpt>
      <trkpt lat="50.58491" lon="3.5797">
        <ele>53.577008</ele>
        <time>2020-08-16T17:50:36.175Z</time>
      </trkpt>
      <trkpt lat="50.58505" lon="3.57949">
        <ele>53.568542</ele>
        <time>2020-08-16T17:50:39.921Z</time>
      </trkpt>
      <trkpt lat="50.58512" lon="3.57942">
        <ele>53.564821</ele>
        <time>2020-08-16T17:50:41.817Z</time>
      </trkpt>
      <trkpt lat="50.58519" lon="3.57935">
        <ele>53.561085</ele>
        <time>2020-08-16T17:50:43.391Z</time>
      </trkpt>
      <trkpt lat="50.58533" lon="3.57924">
        <ele>53.554061</ele>
        <time>2020-08-16T17:50:46.523Z</time>
      </trkpt>
      <trkpt lat="50.58574" lon="3.57915">
        <ele>53.535182</ele>
        <time>2020-08-16T17:50:55.310Z</time>
      </trkpt>
      <trkpt lat="50.58728" lon="3.57922">
        <ele>52.834328</ele>
        <time>2020-08-16T17:51:24.363Z</time>
      </trkpt>
      <trkpt lat="50.58759" lon="3.5792">
        <ele>52.678079</ele>
        <time>2020-08-16T17:51:29.832Z</time>
      </trkpt>
      <trkpt lat="50.58813" lon="3.5791">
        <ele>52.136476</ele>
        <time>2020-08-16T17:51:39.292Z</time>
      </trkpt>
      <trkpt lat="50.58871" lon="3.57886">
        <ele>51.459303</ele>
        <time>2020-08-16T17:51:49.616Z</time>
      </trkpt>
      <trkpt lat="50.59041" lon="3.57748">
        <ele>49.383674</ele>
        <time>2020-08-16T17:52:21.684Z</time>
      </trkpt>
      <trkpt lat="50.59055" lon="3.57737">
        <ele>49.213896</ele>
        <time>2020-08-16T17:52:24.395Z</time>
      </trkpt>
      <trkpt lat="50.59114" lon="3.57724">
        <ele>48.679514</ele>
        <time>2020-08-16T17:52:35.019Z</time>
      </trkpt>
      <trkpt lat="50.59156" lon="3.57716">
        <ele>48.663975</ele>
        <time>2020-08-16T17:52:43.160Z</time>
      </trkpt>
      <trkpt lat="50.59177" lon="3.57705">
        <ele>48.655935</ele>
        <time>2020-08-16T17:52:47.458Z</time>
      </trkpt>
      <trkpt lat="50.59184" lon="3.57701">
        <ele>48.65307</ele>
        <time>2020-08-16T17:52:48.935Z</time>
      </trkpt>
      <trkpt lat="50.59212" lon="3.57683">
        <ele>48.642003</ele>
        <time>2020-08-16T17:52:54.775Z</time>
      </trkpt>
      <trkpt lat="50.59299" lon="3.57623">
        <ele>48.977539</ele>
        <time>2020-08-16T17:53:15.646Z</time>
      </trkpt>
      <trkpt lat="50.59284" lon="3.5751">
        <ele>49.953639</ele>
        <time>2020-08-16T17:53:29.630Z</time>
      </trkpt>
      <trkpt lat="50.59295" lon="3.57512">
        <ele>50.098641</ele>
        <time>2020-08-16T17:53:32.214Z</time>
      </trkpt>
      <trkpt lat="50.59367" lon="3.57524">
        <ele>51.106062</ele>
        <time>2020-08-16T17:53:48.075Z</time>
      </trkpt>
      <trkpt lat="50.59434" lon="3.57628">
        <ele>53.396104</ele>
        <time>2020-08-16T17:54:10.630Z</time>
      </trkpt>
      <trkpt lat="50.59439" lon="3.57632">
        <ele>53.540645</ele>
        <time>2020-08-16T17:54:12.235Z</time>
      </trkpt>
      <trkpt lat="50.59448" lon="3.57631">
        <ele>53.748143</ele>
        <time>2020-08-16T17:54:14.775Z</time>
      </trkpt>
      <trkpt lat="50.59508" lon="3.57612">
        <ele>55.245195</ele>
        <time>2020-08-16T17:54:30.128Z</time>
      </trkpt>
      <trkpt lat="50.59561" lon="3.57581">
        <ele>56.224017</ele>
        <time>2020-08-16T17:54:45.368Z</time>
      </trkpt>
      <trkpt lat="50.59648" lon="3.57499">
        <ele>57.902903</ele>
        <time>2020-08-16T17:55:06.930Z</time>
      </trkpt>
      <trkpt lat="50.59676" lon="3.57483">
        <ele>58.361146</ele>
        <time>2020-08-16T17:55:12.130Z</time>
      </trkpt>
      <trkpt lat="50.59717" lon="3.57484">
        <ele>58.118068</ele>
        <time>2020-08-16T17:55:17.961Z</time>
      </trkpt>
      <trkpt lat="50.5975" lon="3.5748">
        <ele>57.923116</ele>
        <time>2020-08-16T17:55:22.295Z</time>
      </trkpt>
      <trkpt lat="50.59811" lon="3.57459">
        <ele>57.55041</ele>
        <time>2020-08-16T17:55:29.886Z</time>
      </trkpt>
      <trkpt lat="50.59826" lon="3.57458">
        <ele>57.465331</ele>
        <time>2020-08-16T17:55:31.539Z</time>
      </trkpt>
      <trkpt lat="50.59875" lon="3.57476">
        <ele>57.256256</ele>
        <time>2020-08-16T17:55:37.507Z</time>
      </trkpt>
      <trkpt lat="50.59892" lon="3.57468">
        <ele>57.220682</ele>
        <time>2020-08-16T17:55:39.899Z</time>
      </trkpt>
      <trkpt lat="50.599" lon="3.57459">
        <ele>57.200272</ele>
        <time>2020-08-16T17:55:41.036Z</time>
      </trkpt>
      <trkpt lat="50.5991" lon="3.57447">
        <ele>57.176308</ele>
        <time>2020-08-16T17:55:42.996Z</time>
      </trkpt>
      <trkpt lat="50.59977" lon="3.5738">
        <ele>57.015517</ele>
        <time>2020-08-16T17:55:54.961Z</time>
      </trkpt>
      <trkpt lat="50.60096" lon="3.573">
        <ele>56.972174</ele>
        <time>2020-08-16T17:56:16.886Z</time>
      </trkpt>
      <trkpt lat="50.60186" lon="3.57211">
        <ele>56.904595</ele>
        <time>2020-08-16T17:56:31.164Z</time>
      </trkpt>
      <trkpt lat="50.60223" lon="3.57198">
        <ele>56.704321</ele>
        <time>2020-08-16T17:56:35.967Z</time>
      </trkpt>
      <trkpt lat="50.6026" lon="3.57191">
        <ele>56.506695</ele>
        <time>2020-08-16T17:56:40.643Z</time>
      </trkpt>
      <trkpt lat="50.60266" lon="3.57193">
        <ele>56.473802</ele>
        <time>2020-08-16T17:56:41.399Z</time>
      </trkpt>
      <trkpt lat="50.60273" lon="3.57196">
        <ele>56.435019</ele>
        <time>2020-08-16T17:56:42.232Z</time>
      </trkpt>
      <trkpt lat="50.60293" lon="3.57211">
        <ele>56.317354</ele>
        <time>2020-08-16T17:56:45.262Z</time>
      </trkpt>
      <trkpt lat="50.60371" lon="3.57355">
        <ele>56.377083</ele>
        <time>2020-08-16T17:57:02.414Z</time>
      </trkpt>
      <trkpt lat="50.60382" lon="3.57366">
        <ele>56.436966</ele>
        <time>2020-08-16T17:57:05.119Z</time>
      </trkpt>
      <trkpt lat="50.60418" lon="3.5738">
        <ele>56.607606</ele>
        <time>2020-08-16T17:57:12.348Z</time>
      </trkpt>
      <trkpt lat="50.60498" lon="3.5739">
        <ele>56.838867</ele>
        <time>2020-08-16T17:57:26.694Z</time>
      </trkpt>
      <trkpt lat="50.60529" lon="3.57392">
        <ele>56.761645</ele>
        <time>2020-08-16T17:57:31.938Z</time>
      </trkpt>
      <trkpt lat="50.60601" lon="3.57424">
        <ele>56.573961</ele>
        <time>2020-08-16T17:57:42.202Z</time>
      </trkpt>
      <trkpt lat="50.60687" lon="3.57453">
        <ele>55.929529</ele>
        <time>2020-08-16T17:57:53.006Z</time>
      </trkpt>
      <trkpt lat="50.60705" lon="3.57461">
        <ele>55.641503</ele>
        <time>2020-08-16T17:57:55.073Z</time>
      </trkpt>
      <trkpt lat="50.60635" lon="3.57611">
        <ele>53.840996</ele>
        <time>2020-08-16T17:58:08.532Z</time>
      </trkpt>
      <trkpt lat="50.60607" lon="3.57697">
        <ele>53.084201</ele>
        <time>2020-08-16T17:58:15.564Z</time>
      </trkpt>
      <trkpt lat="50.60603" lon="3.57719">
        <ele>52.915597</ele>
        <time>2020-08-16T17:58:17.201Z</time>
      </trkpt>
      <trkpt lat="50.60627" lon="3.57744">
        <ele>52.567489</ele>
        <time>2020-08-16T17:58:20.521Z</time>
      </trkpt>
      <trkpt lat="50.60669" lon="3.57792">
        <ele>51.956918</ele>
        <time>2020-08-16T17:58:26.739Z</time>
      </trkpt>
      <trkpt lat="50.60687" lon="3.57804">
        <ele>51.724162</ele>
        <time>2020-08-16T17:58:29.127Z</time>
      </trkpt>
      <trkpt lat="50.60732" lon="3.57803">
        <ele>52.02522</ele>
        <time>2020-08-16T17:58:35.367Z</time>
      </trkpt>
      <trkpt lat="50.60754" lon="3.578">
        <ele>52.336345</ele>
        <time>2020-08-16T17:58:38.627Z</time>
      </trkpt>
      <trkpt lat="50.60786" lon="3.57791">
        <ele>52.792156</ele>
        <time>2020-08-16T17:58:44.769Z</time>
      </trkpt>
      <trkpt lat="50.60832" lon="3.57806">
        <ele>53.450975</ele>
        <time>2020-08-16T17:58:55.069Z</time>
      </trkpt>
      <trkpt lat="50.60869" lon="3.57808">
        <ele>53.967921</ele>
        <time>2020-08-16T17:59:04.504Z</time>
      </trkpt>
      <trkpt lat="50.60969" lon="3.57755">
        <ele>58.279021</ele>
        <time>2020-08-16T17:59:37.616Z</time>
      </trkpt>
      <trkpt lat="50.61048" lon="3.57727">
        <ele>61.788688</ele>
        <time>2020-08-16T18:00:05.709Z</time>
      </trkpt>
      <trkpt lat="50.61079" lon="3.57704">
        <ele>63.210593</ele>
        <time>2020-08-16T18:00:17.776Z</time>
      </trkpt>
      <trkpt lat="50.61111" lon="3.57701">
        <ele>64.517719</ele>
        <time>2020-08-16T18:00:28.626Z</time>
      </trkpt>
      <trkpt lat="50.61225" lon="3.57715">
        <ele>69.187072</ele>
        <time>2020-08-16T18:01:03.580Z</time>
      </trkpt>
      <trkpt lat="50.61241" lon="3.57712">
        <ele>69.46876</ele>
        <time>2020-08-16T18:01:08.006Z</time>
      </trkpt>
      <trkpt lat="50.61335" lon="3.57651">
        <ele>71.123606</ele>
        <time>2020-08-16T18:01:30.865Z</time>
      </trkpt>
      <trkpt lat="50.61376" lon="3.57629">
        <ele>71.828331</ele>
        <time>2020-08-16T18:01:38.665Z</time>
      </trkpt>
      <trkpt lat="50.61385" lon="3.57659">
        <ele>72.145931</ele>
        <time>2020-08-16T18:01:41.724Z</time>
      </trkpt>
      <trkpt lat="50.61393" lon="3.57755">
        <ele>71.693879</ele>
        <time>2020-08-16T18:01:50.351Z</time>
      </trkpt>
      <trkpt lat="50.61386" lon="3.57799">
        <ele>71.481853</ele>
        <time>2020-08-16T18:01:54.069Z</time>
      </trkpt>
      <trkpt lat="50.61355" lon="3.5793">
        <ele>70.826909</ele>
        <time>2020-08-16T18:02:04.482Z</time>
      </trkpt>
      <trkpt lat="50.61277" lon="3.58199">
        <ele>68.824174</ele>
        <time>2020-08-16T18:02:26.785Z</time>
      </trkpt>
      <trkpt lat="50.61264" lon="3.58301">
        <ele>69.025837</ele>
        <time>2020-08-16T18:02:36.406Z</time>
      </trkpt>
      <trkpt lat="50.61244" lon="3.58513">
        <ele>69.609411</ele>
        <time>2020-08-16T18:03:01.212Z</time>
      </trkpt>
      <trkpt lat="50.61224" lon="3.58761">
        <ele>70.862792</ele>
        <time>2020-08-16T18:03:31.111Z</time>
      </trkpt>
      <trkpt lat="50.61234" lon="3.58851">
        <ele>70.52694</ele>
        <time>2020-08-16T18:03:39.926Z</time>
      </trkpt>
      <trkpt lat="50.61279" lon="3.59037">
        <ele>69.604285</ele>
        <time>2020-08-16T18:03:55.400Z</time>
      </trkpt>
      <trkpt lat="50.61283" lon="3.59102">
        <ele>68.738916</ele>
        <time>2020-08-16T18:04:00.038Z</time>
      </trkpt>
      <trkpt lat="50.61283" lon="3.59436">
        <ele>64.283304</ele>
        <time>2020-08-16T18:04:22.701Z</time>
      </trkpt>
      <trkpt lat="50.61292" lon="3.59536">
        <ele>62.912467</ele>
        <time>2020-08-16T18:04:29.668Z</time>
      </trkpt>
      <trkpt lat="50.61313" lon="3.59639">
        <ele>61.79043</ele>
        <time>2020-08-16T18:04:37.401Z</time>
      </trkpt>
      <trkpt lat="50.61402" lon="3.59956">
        <ele>59.254471</ele>
        <time>2020-08-16T18:05:04.199Z</time>
      </trkpt>
      <trkpt lat="50.61493" lon="3.6021">
        <ele>57.04362</ele>
        <time>2020-08-16T18:05:27.049Z</time>
      </trkpt>
      <trkpt lat="50.61493" lon="3.6021">
        <ele>57.04362</ele>
        <time>2020-08-16T18:05:27.055Z</time>
      </trkpt>
      <trkpt lat="50.6154" lon="3.60343">
        <ele>55.624071</ele>
        <time>2020-08-16T18:05:37.947Z</time>
      </trkpt>
      <trkpt lat="50.6162" lon="3.60557">
        <ele>52.622075</ele>
        <time>2020-08-16T18:05:55.176Z</time>
      </trkpt>
      <trkpt lat="50.61637" lon="3.60602">
        <ele>52.138167</ele>
        <time>2020-08-16T18:05:58.942Z</time>
      </trkpt>
      <trkpt lat="50.6165" lon="3.60615">
        <ele>52.02097</ele>
        <time>2020-08-16T18:06:00.825Z</time>
      </trkpt>
      <trkpt lat="50.61783" lon="3.60531">
        <ele>50.969975</ele>
        <time>2020-08-16T18:06:19.623Z</time>
      </trkpt>
      <trkpt lat="50.61795" lon="3.60531">
        <ele>50.912537</ele>
        <time>2020-08-16T18:06:21.645Z</time>
      </trkpt>
      <trkpt lat="50.61802" lon="3.60543">
        <ele>50.921081</ele>
        <time>2020-08-16T18:06:23.029Z</time>
      </trkpt>
      <trkpt lat="50.61809" lon="3.60593">
        <ele>50.948134</ele>
        <time>2020-08-16T18:06:27.689Z</time>
      </trkpt>
      <trkpt lat="50.61846" lon="3.60636">
        <ele>50.986215</ele>
        <time>2020-08-16T18:06:34.555Z</time>
      </trkpt>
      <trkpt lat="50.61852" lon="3.60645">
        <ele>50.992976</ele>
        <time>2020-08-16T18:06:35.578Z</time>
      </trkpt>
      <trkpt lat="50.61864" lon="3.60576">
        <ele>51.030731</ele>
        <time>2020-08-16T18:06:45.486Z</time>
      </trkpt>
      <trkpt lat="50.61866" lon="3.60516">
        <ele>51.068715</ele>
        <time>2020-08-16T18:06:54.075Z</time>
      </trkpt>
      <trkpt lat="50.61866" lon="3.60467">
        <ele>51.138328</ele>
        <time>2020-08-16T18:07:00.535Z</time>
      </trkpt>
      <trkpt lat="50.61866" lon="3.60458">
        <ele>51.151385</ele>
        <time>2020-08-16T18:07:01.847Z</time>
      </trkpt>
      <trkpt lat="50.61867" lon="3.60453">
        <ele>51.15994</ele>
        <time>2020-08-16T18:07:02.670Z</time>
      </trkpt>
      <trkpt lat="50.6187" lon="3.60446">
        <ele>51.17119</ele>
        <time>2020-08-16T18:07:03.598Z</time>
      </trkpt>
      <trkpt lat="50.61874" lon="3.60443">
        <ele>51.182244</ele>
        <time>2020-08-16T18:07:04.881Z</time>
      </trkpt>
      <trkpt lat="50.61919" lon="3.60441">
        <ele>51.285162</ele>
        <time>2020-08-16T18:07:13.985Z</time>
      </trkpt>
      <trkpt lat="50.61942" lon="3.60418">
        <ele>51.346222</ele>
        <time>2020-08-16T18:07:19.728Z</time>
      </trkpt>
      <trkpt lat="50.61961" lon="3.6039">
        <ele>51.406252</ele>
        <time>2020-08-16T18:07:25.201Z</time>
      </trkpt>
      <trkpt lat="50.61985" lon="3.60398">
        <ele>51.461471</ele>
        <time>2020-08-16T18:07:30.304Z</time>
      </trkpt>
      <trkpt lat="50.62034" lon="3.60429">
        <ele>51.443387</ele>
        <time>2020-08-16T18:07:41.376Z</time>
      </trkpt>
      <trkpt lat="50.6216" lon="3.60499">
        <ele>51.408037</ele>
        <time>2020-08-16T18:08:06.937Z</time>
      </trkpt>
      <trkpt lat="50.62225" lon="3.60509">
        <ele>52.233662</ele>
        <time>2020-08-16T18:08:21.310Z</time>
      </trkpt>
      <trkpt lat="50.62236" lon="3.60513">
        <ele>52.382358</ele>
        <time>2020-08-16T18:08:24.154Z</time>
      </trkpt>
      <trkpt lat="50.62249" lon="3.60535">
        <ele>52.620528</ele>
        <time>2020-08-16T18:08:28.675Z</time>
      </trkpt>
      <trkpt lat="50.62268" lon="3.60561">
        <ele>52.944018</ele>
        <time>2020-08-16T18:08:35.413Z</time>
      </trkpt>
      <trkpt lat="50.62338" lon="3.60628">
        <ele>54.758405</ele>
        <time>2020-08-16T18:08:59.597Z</time>
      </trkpt>
      <trkpt lat="50.62375" lon="3.60649">
        <ele>56.470507</ele>
        <time>2020-08-16T18:09:13.326Z</time>
      </trkpt>
      <trkpt lat="50.62461" lon="3.60676">
        <ele>60.29081</ele>
        <time>2020-08-16T18:09:48.299Z</time>
      </trkpt>
      <trkpt lat="50.62522" lon="3.60729">
        <ele>63.708115</ele>
        <time>2020-08-16T18:10:18.289Z</time>
      </trkpt>
      <trkpt lat="50.62557" lon="3.60702">
        <ele>65.799304</ele>
        <time>2020-08-16T18:10:35.420Z</time>
      </trkpt>
      <trkpt lat="50.62594" lon="3.60634">
        <ele>68.795701</ele>
        <time>2020-08-16T18:10:59.390Z</time>
      </trkpt>
      <trkpt lat="50.62638" lon="3.60585">
        <ele>71.291347</ele>
        <time>2020-08-16T18:11:21.360Z</time>
      </trkpt>
      <trkpt lat="50.62727" lon="3.60567">
        <ele>73.299392</ele>
        <time>2020-08-16T18:11:51.101Z</time>
      </trkpt>
      <trkpt lat="50.62745" lon="3.60554">
        <ele>73.754539</ele>
        <time>2020-08-16T18:11:56.346Z</time>
      </trkpt>
      <trkpt lat="50.62781" lon="3.60537">
        <ele>74.581483</ele>
        <time>2020-08-16T18:12:04.703Z</time>
      </trkpt>
      <trkpt lat="50.62805" lon="3.60526">
        <ele>74.954834</ele>
        <time>2020-08-16T18:12:09.904Z</time>
      </trkpt>
      <trkpt lat="50.62873" lon="3.60516">
        <ele>73.605899</ele>
        <time>2020-08-16T18:12:21.631Z</time>
      </trkpt>
      <trkpt lat="50.62888" lon="3.60501">
        <ele>73.252847</ele>
        <time>2020-08-16T18:12:23.512Z</time>
      </trkpt>
      <trkpt lat="50.62926" lon="3.60458">
        <ele>72.341788</ele>
        <time>2020-08-16T18:12:28.334Z</time>
      </trkpt>
      <trkpt lat="50.62946" lon="3.60425">
        <ele>71.755499</ele>
        <time>2020-08-16T18:12:31.331Z</time>
      </trkpt>
      <trkpt lat="50.63021" lon="3.60249">
        <ele>67.670658</ele>
        <time>2020-08-16T18:12:44.954Z</time>
      </trkpt>
      <trkpt lat="50.63073" lon="3.60158">
        <ele>65.479938</ele>
        <time>2020-08-16T18:12:52.880Z</time>
      </trkpt>
      <trkpt lat="50.63092" lon="3.60115">
        <ele>64.846712</ele>
        <time>2020-08-16T18:12:56.385Z</time>
      </trkpt>
      <trkpt lat="50.63119" lon="3.60087">
        <ele>64.237327</ele>
        <time>2020-08-16T18:12:59.886Z</time>
      </trkpt>
      <trkpt lat="50.63226" lon="3.60042">
        <ele>62.424205</ele>
        <time>2020-08-16T18:13:12.847Z</time>
      </trkpt>
      <trkpt lat="50.63246" lon="3.60032">
        <ele>62.393049</ele>
        <time>2020-08-16T18:13:15.612Z</time>
      </trkpt>
      <trkpt lat="50.63284" lon="3.59999">
        <ele>62.326804</ele>
        <time>2020-08-16T18:13:21.582Z</time>
      </trkpt>
      <trkpt lat="50.63322" lon="3.59955">
        <ele>62.25579</ele>
        <time>2020-08-16T18:13:28.675Z</time>
      </trkpt>
      <trkpt lat="50.6347" lon="3.59859">
        <ele>62.74338</ele>
        <time>2020-08-16T18:13:55.654Z</time>
      </trkpt>
      <trkpt lat="50.63486" lon="3.5984">
        <ele>62.850347</ele>
        <time>2020-08-16T18:13:58.929Z</time>
      </trkpt>
      <trkpt lat="50.63532" lon="3.59734">
        <ele>63.307858</ele>
        <time>2020-08-16T18:14:13.087Z</time>
      </trkpt>
      <trkpt lat="50.63579" lon="3.59664">
        <ele>63.720475</ele>
        <time>2020-08-16T18:14:24.535Z</time>
      </trkpt>
      <trkpt lat="50.63603" lon="3.59645">
        <ele>63.887919</ele>
        <time>2020-08-16T18:14:29.256Z</time>
      </trkpt>
      <trkpt lat="50.63621" lon="3.59618">
        <ele>64.045752</ele>
        <time>2020-08-16T18:14:33.729Z</time>
      </trkpt>
      <trkpt lat="50.63647" lon="3.59581">
        <ele>64.266613</ele>
        <time>2020-08-16T18:14:39.898Z</time>
      </trkpt>
      <trkpt lat="50.63689" lon="3.59468">
        <ele>64.421326</ele>
        <time>2020-08-16T18:14:53.231Z</time>
      </trkpt>
      <trkpt lat="50.63709" lon="3.59429">
        <ele>64.479638</ele>
        <time>2020-08-16T18:14:58.003Z</time>
      </trkpt>
      <trkpt lat="50.63722" lon="3.59388">
        <ele>64.533038</ele>
        <time>2020-08-16T18:15:02.380Z</time>
      </trkpt>
      <trkpt lat="50.63726" lon="3.59383">
        <ele>64.541464</ele>
        <time>2020-08-16T18:15:02.905Z</time>
      </trkpt>
      <trkpt lat="50.63769" lon="3.593">
        <ele>64.723499</ele>
        <time>2020-08-16T18:15:13.052Z</time>
      </trkpt>
      <trkpt lat="50.63804" lon="3.59206">
        <ele>64.955787</ele>
        <time>2020-08-16T18:15:23.463Z</time>
      </trkpt>
      <trkpt lat="50.63826" lon="3.59005">
        <ele>66.112708</ele>
        <time>2020-08-16T18:15:46.690Z</time>
      </trkpt>
      <trkpt lat="50.63854" lon="3.58902">
        <ele>67.28392</ele>
        <time>2020-08-16T18:16:01.567Z</time>
      </trkpt>
      <trkpt lat="50.63894" lon="3.58668">
        <ele>70.776034</ele>
        <time>2020-08-16T18:16:40.767Z</time>
      </trkpt>
      <trkpt lat="50.63898" lon="3.58658">
        <ele>70.967354</ele>
        <time>2020-08-16T18:16:42.939Z</time>
      </trkpt>
      <trkpt lat="50.63885" lon="3.58625">
        <ele>71.626515</ele>
        <time>2020-08-16T18:16:49.407Z</time>
      </trkpt>
      <trkpt lat="50.63824" lon="3.58395">
        <ele>75.023435</ele>
        <time>2020-08-16T18:17:28.679Z</time>
      </trkpt>
      <trkpt lat="50.63742" lon="3.58201">
        <ele>77.341975</ele>
        <time>2020-08-16T18:17:57.061Z</time>
      </trkpt>
      <trkpt lat="50.63732" lon="3.58181">
        <ele>77.54353</ele>
        <time>2020-08-16T18:18:00.039Z</time>
      </trkpt>
      <trkpt lat="50.63742" lon="3.5817">
        <ele>77.692706</ele>
        <time>2020-08-16T18:18:02.573Z</time>
      </trkpt>
      <trkpt lat="50.63793" lon="3.58133">
        <ele>78.379543</ele>
        <time>2020-08-16T18:18:16.907Z</time>
      </trkpt>
      <trkpt lat="50.63819" lon="3.58098">
        <ele>78.96914</ele>
        <time>2020-08-16T18:18:25.779Z</time>
      </trkpt>
      <trkpt lat="50.6384" lon="3.58043">
        <ele>79.851076</ele>
        <time>2020-08-16T18:18:36.263Z</time>
      </trkpt>
      <trkpt lat="50.63837" lon="3.58009">
        <ele>80.331391</ele>
        <time>2020-08-16T18:18:41.128Z</time>
      </trkpt>
      <trkpt lat="50.63833" lon="3.57929">
        <ele>81.425803</ele>
        <time>2020-08-16T18:18:53.037Z</time>
      </trkpt>
      <trkpt lat="50.63827" lon="3.57787">
        <ele>83.701797</ele>
        <time>2020-08-16T18:19:18.099Z</time>
      </trkpt>
      <trkpt lat="50.63826" lon="3.57769">
        <ele>84.03305</ele>
        <time>2020-08-16T18:19:21.278Z</time>
      </trkpt>
      <trkpt lat="50.63823" lon="3.57753">
        <ele>84.351887</ele>
        <time>2020-08-16T18:19:23.968Z</time>
      </trkpt>
      <trkpt lat="50.63814" lon="3.57676">
        <ele>85.795812</ele>
        <time>2020-08-16T18:19:37.299Z</time>
      </trkpt>
      <trkpt lat="50.63795" lon="3.57553">
        <ele>87.922363</ele>
        <time>2020-08-16T18:19:58.700Z</time>
      </trkpt>
      <trkpt lat="50.6378" lon="3.5749">
        <ele>88.504587</ele>
        <time>2020-08-16T18:20:09.301Z</time>
      </trkpt>
      <trkpt lat="50.63723" lon="3.57331">
        <ele>90.070252</ele>
        <time>2020-08-16T18:20:30.597Z</time>
      </trkpt>
      <trkpt lat="50.63696" lon="3.57257">
        <ele>90.117718</ele>
        <time>2020-08-16T18:20:38.587Z</time>
      </trkpt>
      <trkpt lat="50.63693" lon="3.5725">
        <ele>90.111551</ele>
        <time>2020-08-16T18:20:39.738Z</time>
      </trkpt>
      <trkpt lat="50.63597" lon="3.56992">
        <ele>89.917204</ele>
        <time>2020-08-16T18:21:16.061Z</time>
      </trkpt>
      <trkpt lat="50.63564" lon="3.56782">
        <ele>89.877149</ele>
        <time>2020-08-16T18:21:43.909Z</time>
      </trkpt>
      <trkpt lat="50.63558" lon="3.56748">
        <ele>89.945776</ele>
        <time>2020-08-16T18:21:48.669Z</time>
      </trkpt>
      <trkpt lat="50.63534" lon="3.56644">
        <ele>90.158909</ele>
        <time>2020-08-16T18:22:03.622Z</time>
      </trkpt>
      <trkpt lat="50.6345" lon="3.56413">
        <ele>91.001575</ele>
        <time>2020-08-16T18:22:41.648Z</time>
      </trkpt>
      <trkpt lat="50.63409" lon="3.56247">
        <ele>91.676475</ele>
        <time>2020-08-16T18:23:08.015Z</time>
      </trkpt>
      <trkpt lat="50.63339" lon="3.55907">
        <ele>91.710201</ele>
        <time>2020-08-16T18:23:57.689Z</time>
      </trkpt>
      <trkpt lat="50.63307" lon="3.55829">
        <ele>91.173882</ele>
        <time>2020-08-16T18:24:07.487Z</time>
      </trkpt>
      <trkpt lat="50.63281" lon="3.55793">
        <ele>90.865829</ele>
        <time>2020-08-16T18:24:12.791Z</time>
      </trkpt>
      <trkpt lat="50.63245" lon="3.55703">
        <ele>88.924291</ele>
        <time>2020-08-16T18:24:22.985Z</time>
      </trkpt>
      <trkpt lat="50.63222" lon="3.55638">
        <ele>87.499243</ele>
        <time>2020-08-16T18:24:27.703Z</time>
      </trkpt>
      <trkpt lat="50.63186" lon="3.55519">
        <ele>85.050921</ele>
        <time>2020-08-16T18:24:36.117Z</time>
      </trkpt>
      <trkpt lat="50.63167" lon="3.55477">
        <ele>84.313479</ele>
        <time>2020-08-16T18:24:39.488Z</time>
      </trkpt>
      <trkpt lat="50.63151" lon="3.55428">
        <ele>83.529857</ele>
        <time>2020-08-16T18:24:43.180Z</time>
      </trkpt>
      <trkpt lat="50.63136" lon="3.55346">
        <ele>82.316163</ele>
        <time>2020-08-16T18:24:49.179Z</time>
      </trkpt>
      <trkpt lat="50.6311" lon="3.5527">
        <ele>81.203765</ele>
        <time>2020-08-16T18:24:55.525Z</time>
      </trkpt>
      <trkpt lat="50.63042" lon="3.55163">
        <ele>80.305337</ele>
        <time>2020-08-16T18:25:07.315Z</time>
      </trkpt>
      <trkpt lat="50.63024" lon="3.55096">
        <ele>79.874059</ele>
        <time>2020-08-16T18:25:13.360Z</time>
      </trkpt>
      <trkpt lat="50.63014" lon="3.55018">
        <ele>79.164186</ele>
        <time>2020-08-16T18:25:20.181Z</time>
      </trkpt>
      <trkpt lat="50.63" lon="3.54962">
        <ele>78.421614</ele>
        <time>2020-08-16T18:25:24.859Z</time>
      </trkpt>
      <trkpt lat="50.62998" lon="3.54954">
        <ele>78.304131</ele>
        <time>2020-08-16T18:25:25.522Z</time>
      </trkpt>
      <trkpt lat="50.62929" lon="3.54796">
        <ele>75.722814</ele>
        <time>2020-08-16T18:25:38.456Z</time>
      </trkpt>
      <trkpt lat="50.62952" lon="3.54767">
        <ele>74.400628</ele>
        <time>2020-08-16T18:25:42.646Z</time>
      </trkpt>
      <trkpt lat="50.63011" lon="3.54705">
        <ele>71.252824</ele>
        <time>2020-08-16T18:25:52.366Z</time>
      </trkpt>
      <trkpt lat="50.6313" lon="3.54655">
        <ele>66.064629</ele>
        <time>2020-08-16T18:26:08.824Z</time>
      </trkpt>
      <trkpt lat="50.63196" lon="3.5461">
        <ele>63.269565</ele>
        <time>2020-08-16T18:26:18.970Z</time>
      </trkpt>
      <trkpt lat="50.63253" lon="3.5456">
        <ele>60.971747</ele>
        <time>2020-08-16T18:26:28.661Z</time>
      </trkpt>
      <trkpt lat="50.63363" lon="3.5444">
        <ele>59.158198</ele>
        <time>2020-08-16T18:26:51.207Z</time>
      </trkpt>
      <trkpt lat="50.63432" lon="3.54337">
        <ele>58.326947</ele>
        <time>2020-08-16T18:27:08.958Z</time>
      </trkpt>
      <trkpt lat="50.63455" lon="3.54306">
        <ele>58.150207</ele>
        <time>2020-08-16T18:27:14.546Z</time>
      </trkpt>
      <trkpt lat="50.63463" lon="3.54271">
        <ele>58.015938</ele>
        <time>2020-08-16T18:27:17.654Z</time>
      </trkpt>
      <trkpt lat="50.63466" lon="3.5425">
        <ele>57.93413</ele>
        <time>2020-08-16T18:27:19.501Z</time>
      </trkpt>
      <trkpt lat="50.63463" lon="3.54227">
        <ele>57.849884</ele>
        <time>2020-08-16T18:27:21.443Z</time>
      </trkpt>
      <trkpt lat="50.63454" lon="3.54191">
        <ele>57.706592</ele>
        <time>2020-08-16T18:27:24.751Z</time>
      </trkpt>
      <trkpt lat="50.63458" lon="3.54169">
        <ele>57.624759</ele>
        <time>2020-08-16T18:27:26.598Z</time>
      </trkpt>
      <trkpt lat="50.63471" lon="3.5415">
        <ele>57.529481</ele>
        <time>2020-08-16T18:27:28.862Z</time>
      </trkpt>
      <trkpt lat="50.63574" lon="3.54023">
        <ele>56.826611</ele>
        <time>2020-08-16T18:27:46.033Z</time>
      </trkpt>
      <trkpt lat="50.63593" lon="3.53977">
        <ele>56.605603</ele>
        <time>2020-08-16T18:27:50.726Z</time>
      </trkpt>
      <trkpt lat="50.636" lon="3.53954">
        <ele>56.340846</ele>
        <time>2020-08-16T18:27:53.148Z</time>
      </trkpt>
      <trkpt lat="50.63641" lon="3.53862">
        <ele>55.179045</ele>
        <time>2020-08-16T18:28:01.938Z</time>
      </trkpt>
      <trkpt lat="50.6367" lon="3.53812">
        <ele>54.484305</ele>
        <time>2020-08-16T18:28:06.664Z</time>
      </trkpt>
      <trkpt lat="50.63693" lon="3.53782">
        <ele>53.998294</ele>
        <time>2020-08-16T18:28:09.886Z</time>
      </trkpt>
      <trkpt lat="50.63698" lon="3.53769">
        <ele>53.844511</ele>
        <time>2020-08-16T18:28:10.902Z</time>
      </trkpt>
      <trkpt lat="50.637" lon="3.53627">
        <ele>51.442993</ele>
        <time>2020-08-16T18:28:19.882Z</time>
      </trkpt>
      <trkpt lat="50.63703" lon="3.53497">
        <ele>49.163833</ele>
        <time>2020-08-16T18:28:28.372Z</time>
      </trkpt>
      <trkpt lat="50.63705" lon="3.53461">
        <ele>48.781619</ele>
        <time>2020-08-16T18:28:30.737Z</time>
      </trkpt>
      <trkpt lat="50.63563" lon="3.53315">
        <ele>48.800881</ele>
        <time>2020-08-16T18:29:07.047Z</time>
      </trkpt>
      <trkpt lat="50.63501" lon="3.53252">
        <ele>49.831466</ele>
        <time>2020-08-16T18:29:27.894Z</time>
      </trkpt>
      <trkpt lat="50.63432" lon="3.53192">
        <ele>50.958486</ele>
        <time>2020-08-16T18:29:48.848Z</time>
      </trkpt>
      <trkpt lat="50.63421" lon="3.53176">
        <ele>51.17151</ele>
        <time>2020-08-16T18:29:52.614Z</time>
      </trkpt>
      <trkpt lat="50.63395" lon="3.53114">
        <ele>51.714335</ele>
        <time>2020-08-16T18:30:04.048Z</time>
      </trkpt>
      <trkpt lat="50.63339" lon="3.52954">
        <ele>52.935317</ele>
        <time>2020-08-16T18:30:31.801Z</time>
      </trkpt>
      <trkpt lat="50.63322" lon="3.52845">
        <ele>53.805461</ele>
        <time>2020-08-16T18:30:49.881Z</time>
      </trkpt>
      <trkpt lat="50.6331" lon="3.52816">
        <ele>54.104414</ele>
        <time>2020-08-16T18:30:55.819Z</time>
      </trkpt>
      <trkpt lat="50.63295" lon="3.52795">
        <ele>54.375133</ele>
        <time>2020-08-16T18:31:00.936Z</time>
      </trkpt>
      <trkpt lat="50.63132" lon="3.52647">
        <ele>56.959136</ele>
        <time>2020-08-16T18:31:49.233Z</time>
      </trkpt>
      <trkpt lat="50.63113" lon="3.52631">
        <ele>57.25201</ele>
        <time>2020-08-16T18:31:54.493Z</time>
      </trkpt>
      <trkpt lat="50.63044" lon="3.52566">
        <ele>58.519749</ele>
        <time>2020-08-16T18:32:14.972Z</time>
      </trkpt>
      <trkpt lat="50.63051" lon="3.52546">
        <ele>58.873725</ele>
        <time>2020-08-16T18:32:18.934Z</time>
      </trkpt>
      <trkpt lat="50.63054" lon="3.52533">
        <ele>59.097261</ele>
        <time>2020-08-16T18:32:21.925Z</time>
      </trkpt>
      <trkpt lat="50.63071" lon="3.52452">
        <ele>60.46827</ele>
        <time>2020-08-16T18:32:37.073Z</time>
      </trkpt>
      <trkpt lat="50.63087" lon="3.52385">
        <ele>61.602514</ele>
        <time>2020-08-16T18:32:51.085Z</time>
      </trkpt>
      <trkpt lat="50.63081" lon="3.52377">
        <ele>61.809908</ele>
        <time>2020-08-16T18:32:54.262Z</time>
      </trkpt>
      <trkpt lat="50.6305" lon="3.52349">
        <ele>62.698056</ele>
        <time>2020-08-16T18:33:06.486Z</time>
      </trkpt>
      <trkpt lat="50.6304" lon="3.52327">
        <ele>63.351402</ele>
        <time>2020-08-16T18:33:12.367Z</time>
      </trkpt>
      <trkpt lat="50.62992" lon="3.5206">
        <ele>69.771296</ele>
        <time>2020-08-16T18:34:14.884Z</time>
      </trkpt>
      <trkpt lat="50.62994" lon="3.52041">
        <ele>70.153911</ele>
        <time>2020-08-16T18:34:19.084Z</time>
      </trkpt>
      <trkpt lat="50.63002" lon="3.52022">
        <ele>70.605629</ele>
        <time>2020-08-16T18:34:23.989Z</time>
      </trkpt>
      <trkpt lat="50.63173" lon="3.5189">
        <ele>76.678183</ele>
        <time>2020-08-16T18:35:24.037Z</time>
      </trkpt>
      <trkpt lat="50.63236" lon="3.51857">
        <ele>79.034164</ele>
        <time>2020-08-16T18:35:47.046Z</time>
      </trkpt>
      <trkpt lat="50.63242" lon="3.51844">
        <ele>79.386652</ele>
        <time>2020-08-16T18:35:50.832Z</time>
      </trkpt>
      <trkpt lat="50.63236" lon="3.51807">
        <ele>80.251907</ele>
        <time>2020-08-16T18:35:59.217Z</time>
      </trkpt>
      <trkpt lat="50.63217" lon="3.51766">
        <ele>81.346153</ele>
        <time>2020-08-16T18:36:10.874Z</time>
      </trkpt>
      <trkpt lat="50.63212" lon="3.51736">
        <ele>81.808926</ele>
        <time>2020-08-16T18:36:19.042Z</time>
      </trkpt>
      <trkpt lat="50.63209" lon="3.51712">
        <ele>82.180038</ele>
        <time>2020-08-16T18:36:24.880Z</time>
      </trkpt>
      <trkpt lat="50.63214" lon="3.51643">
        <ele>83.230492</ele>
        <time>2020-08-16T18:36:41.067Z</time>
      </trkpt>
      <trkpt lat="50.6322" lon="3.51606">
        <ele>83.81334</ele>
        <time>2020-08-16T18:36:48.549Z</time>
      </trkpt>
      <trkpt lat="50.63237" lon="3.51559">
        <ele>84.623355</ele>
        <time>2020-08-16T18:36:58.297Z</time>
      </trkpt>
      <trkpt lat="50.63248" lon="3.51541">
        <ele>84.995765</ele>
        <time>2020-08-16T18:37:02.554Z</time>
      </trkpt>
      <trkpt lat="50.63264" lon="3.51514">
        <ele>85.534337</ele>
        <time>2020-08-16T18:37:07.029Z</time>
      </trkpt>
      <trkpt lat="50.63275" lon="3.51485">
        <ele>84.765409</ele>
        <time>2020-08-16T18:37:10.538Z</time>
      </trkpt>
      <trkpt lat="50.63296" lon="3.51443">
        <ele>83.532746</ele>
        <time>2020-08-16T18:37:15.629Z</time>
      </trkpt>
      <trkpt lat="50.63304" lon="3.51401">
        <ele>82.533833</ele>
        <time>2020-08-16T18:37:19.644Z</time>
      </trkpt>
      <trkpt lat="50.63328" lon="3.51333">
        <ele>80.776905</ele>
        <time>2020-08-16T18:37:26.625Z</time>
      </trkpt>
      <trkpt lat="50.63344" lon="3.51262">
        <ele>79.022075</ele>
        <time>2020-08-16T18:37:32.917Z</time>
      </trkpt>
      <trkpt lat="50.63358" lon="3.51179">
        <ele>76.106894</ele>
        <time>2020-08-16T18:37:40.019Z</time>
      </trkpt>
      <trkpt lat="50.63363" lon="3.51153">
        <ele>75.18958</ele>
        <time>2020-08-16T18:37:42.259Z</time>
      </trkpt>
      <trkpt lat="50.63358" lon="3.51133">
        <ele>74.432522</ele>
        <time>2020-08-16T18:37:44.151Z</time>
      </trkpt>
      <trkpt lat="50.63344" lon="3.51102">
        <ele>73.12466</ele>
        <time>2020-08-16T18:37:47.377Z</time>
      </trkpt>
      <trkpt lat="50.63319" lon="3.51098">
        <ele>71.769688</ele>
        <time>2020-08-16T18:37:49.723Z</time>
      </trkpt>
      <trkpt lat="50.62967" lon="3.50902">
        <ele>56.210852</ele>
        <time>2020-08-16T18:38:26.087Z</time>
      </trkpt>
      <trkpt lat="50.629" lon="3.50862">
        <ele>53.846246</ele>
        <time>2020-08-16T18:38:33.228Z</time>
      </trkpt>
      <trkpt lat="50.62831" lon="3.50823">
        <ele>51.75785</ele>
        <time>2020-08-16T18:38:40.719Z</time>
      </trkpt>
      <trkpt lat="50.62735" lon="3.50765">
        <ele>49.123455</ele>
        <time>2020-08-16T18:38:51.895Z</time>
      </trkpt>
      <trkpt lat="50.62588" lon="3.50553">
        <ele>44.987339</ele>
        <time>2020-08-16T18:39:14.009Z</time>
      </trkpt>
      <trkpt lat="50.62564" lon="3.50527">
        <ele>44.340535</ele>
        <time>2020-08-16T18:39:17.068Z</time>
      </trkpt>
      <trkpt lat="50.62542" lon="3.50504">
        <ele>43.731303</ele>
        <time>2020-08-16T18:39:19.895Z</time>
      </trkpt>
      <trkpt lat="50.62492" lon="3.5045">
        <ele>42.370259</ele>
        <time>2020-08-16T18:39:26.251Z</time>
      </trkpt>
      <trkpt lat="50.62456" lon="3.50403">
        <ele>41.53894</ele>
        <time>2020-08-16T18:39:31.185Z</time>
      </trkpt>
      <trkpt lat="50.62434" lon="3.50384">
        <ele>41.107083</ele>
        <time>2020-08-16T18:39:33.893Z</time>
      </trkpt>
      <trkpt lat="50.62374" lon="3.50356">
        <ele>40.050592</ele>
        <time>2020-08-16T18:39:40.837Z</time>
      </trkpt>
      <trkpt lat="50.62344" lon="3.50352">
        <ele>39.542722</ele>
        <time>2020-08-16T18:39:44.482Z</time>
      </trkpt>
      <trkpt lat="50.62255" lon="3.50359">
        <ele>39.449058</ele>
        <time>2020-08-16T18:39:57.183Z</time>
      </trkpt>
      <trkpt lat="50.62227" lon="3.5036">
        <ele>39.573553</ele>
        <time>2020-08-16T18:40:02.383Z</time>
      </trkpt>
      <trkpt lat="50.62168" lon="3.50358">
        <ele>39.825959</ele>
        <time>2020-08-16T18:40:12.641Z</time>
      </trkpt>
      <trkpt lat="50.62153" lon="3.50361">
        <ele>39.892822</ele>
        <time>2020-08-16T18:40:15.759Z</time>
      </trkpt>
      <trkpt lat="50.62141" lon="3.50368">
        <ele>39.961728</ele>
        <time>2020-08-16T18:40:17.952Z</time>
      </trkpt>
      <trkpt lat="50.62134" lon="3.50375">
        <ele>40.069289</ele>
        <time>2020-08-16T18:40:19.508Z</time>
      </trkpt>
      <trkpt lat="50.62131" lon="3.50382">
        <ele>40.144379</ele>
        <time>2020-08-16T18:40:20.838Z</time>
      </trkpt>
      <trkpt lat="50.62128" lon="3.50396">
        <ele>40.262472</ele>
        <time>2020-08-16T18:40:22.562Z</time>
      </trkpt>
      <trkpt lat="50.6212" lon="3.5043">
        <ele>40.572478</ele>
        <time>2020-08-16T18:40:27.250Z</time>
      </trkpt>
      <trkpt lat="50.62118" lon="3.5044">
        <ele>40.660604</ele>
        <time>2020-08-16T18:40:28.786Z</time>
      </trkpt>
      <trkpt lat="50.62114" lon="3.5046">
        <ele>40.830884</ele>
        <time>2020-08-16T18:40:31.304Z</time>
      </trkpt>
      <trkpt lat="50.62108" lon="3.50471">
        <ele>40.952974</ele>
        <time>2020-08-16T18:40:33.052Z</time>
      </trkpt>
      <trkpt lat="50.62104" lon="3.50473">
        <ele>41.013626</ele>
        <time>2020-08-16T18:40:33.950Z</time>
      </trkpt>
      <trkpt lat="50.62059" lon="3.50459">
        <ele>41.621714</ele>
        <time>2020-08-16T18:40:43.876Z</time>
      </trkpt>
      <trkpt lat="50.6202" lon="3.50444">
        <ele>42.1428</ele>
        <time>2020-08-16T18:40:52.134Z</time>
      </trkpt>
      <trkpt lat="50.61976" lon="3.50429">
        <ele>42.615326</ele>
        <time>2020-08-16T18:41:01.226Z</time>
      </trkpt>
      <trkpt lat="50.61965" lon="3.50424">
        <ele>42.720789</ele>
        <time>2020-08-16T18:41:03.260Z</time>
      </trkpt>
      <trkpt lat="50.61955" lon="3.50421">
        <ele>42.812633</ele>
        <time>2020-08-16T18:41:05.654Z</time>
      </trkpt>
      <trkpt lat="50.61942" lon="3.50418">
        <ele>42.936791</ele>
        <time>2020-08-16T18:41:08.305Z</time>
      </trkpt>
      <trkpt lat="50.61901" lon="3.50386">
        <ele>43.358299</ele>
        <time>2020-08-16T18:41:16.751Z</time>
      </trkpt>
      <trkpt lat="50.61912" lon="3.50304">
        <ele>43.85305</ele>
        <time>2020-08-16T18:41:26.472Z</time>
      </trkpt>
      <trkpt lat="50.61918" lon="3.50235">
        <ele>43.959521</ele>
        <time>2020-08-16T18:41:33.870Z</time>
      </trkpt>
      <trkpt lat="50.61932" lon="3.50011">
        <ele>43.872679</ele>
        <time>2020-08-16T18:41:53.727Z</time>
      </trkpt>
      <trkpt lat="50.61926" lon="3.49879">
        <ele>44.128666</ele>
        <time>2020-08-16T18:42:05.939Z</time>
      </trkpt>
      <trkpt lat="50.61918" lon="3.49814">
        <ele>44.268944</ele>
        <time>2020-08-16T18:42:12.713Z</time>
      </trkpt>
      <trkpt lat="50.61873" lon="3.49664">
        <ele>44.707045</ele>
        <time>2020-08-16T18:42:32.206Z</time>
      </trkpt>
      <trkpt lat="50.61848" lon="3.49634">
        <ele>44.867532</ele>
        <time>2020-08-16T18:42:37.695Z</time>
      </trkpt>
      <trkpt lat="50.6181" lon="3.49618">
        <ele>45.074112</ele>
        <time>2020-08-16T18:42:44.528Z</time>
      </trkpt>
      <trkpt lat="50.61806" lon="3.49614">
        <ele>45.097804</ele>
        <time>2020-08-16T18:42:45.728Z</time>
      </trkpt>
      <trkpt lat="50.61802" lon="3.49604">
        <ele>45.137707</ele>
        <time>2020-08-16T18:42:46.986Z</time>
      </trkpt>
      <trkpt lat="50.6179" lon="3.49543">
        <ele>45.348847</ele>
        <time>2020-08-16T18:42:53.510Z</time>
      </trkpt>
      <trkpt lat="50.61785" lon="3.49489">
        <ele>45.103777</ele>
        <time>2020-08-16T18:42:58.789Z</time>
      </trkpt>
      <trkpt lat="50.61782" lon="3.49458">
        <ele>44.840528</ele>
        <time>2020-08-16T18:43:01.304Z</time>
      </trkpt>
      <trkpt lat="50.61765" lon="3.49289">
        <ele>43.423618</ele>
        <time>2020-08-16T18:43:13.897Z</time>
      </trkpt>
      <trkpt lat="50.61756" lon="3.49253">
        <ele>43.109008</ele>
        <time>2020-08-16T18:43:16.409Z</time>
      </trkpt>
      <trkpt lat="50.61747" lon="3.49238">
        <ele>42.800603</ele>
        <time>2020-08-16T18:43:17.837Z</time>
      </trkpt>
      <trkpt lat="50.61736" lon="3.49212">
        <ele>42.248572</ele>
        <time>2020-08-16T18:43:19.967Z</time>
      </trkpt>
      <trkpt lat="50.61726" lon="3.49192">
        <ele>41.802391</ele>
        <time>2020-08-16T18:43:21.672Z</time>
      </trkpt>
      <trkpt lat="50.61726" lon="3.49178">
        <ele>41.547598</ele>
        <time>2020-08-16T18:43:22.642Z</time>
      </trkpt>
      <trkpt lat="50.61729" lon="3.49163">
        <ele>41.270449</ele>
        <time>2020-08-16T18:43:23.721Z</time>
      </trkpt>
      <trkpt lat="50.61748" lon="3.49147">
        <ele>40.680645</ele>
        <time>2020-08-16T18:43:25.925Z</time>
      </trkpt>
      <trkpt lat="50.61749" lon="3.49134">
        <ele>40.442138</ele>
        <time>2020-08-16T18:43:26.848Z</time>
      </trkpt>
      <trkpt lat="50.6175" lon="3.49122">
        <ele>40.234236</ele>
        <time>2020-08-16T18:43:27.606Z</time>
      </trkpt>
      <trkpt lat="50.6175" lon="3.49122">
        <ele>40.234236</ele>
        <time>2020-08-16T18:43:27.614Z</time>
      </trkpt>
      <trkpt lat="50.61744" lon="3.48989">
        <ele>37.937912</ele>
        <time>2020-08-16T18:43:36.295Z</time>
      </trkpt>
      <trkpt lat="50.6174" lon="3.48951">
        <ele>37.429917</ele>
        <time>2020-08-16T18:43:38.713Z</time>
      </trkpt>
      <trkpt lat="50.61733" lon="3.48914">
        <ele>36.914705</ele>
        <time>2020-08-16T18:43:41.425Z</time>
      </trkpt>
      <trkpt lat="50.61775" lon="3.48891">
        <ele>35.976119</ele>
        <time>2020-08-16T18:43:48.244Z</time>
      </trkpt>
      <trkpt lat="50.61874" lon="3.48784">
        <ele>34.069393</ele>
        <time>2020-08-16T18:44:08.040Z</time>
      </trkpt>
      <trkpt lat="50.61981" lon="3.4873">
        <ele>33.457659</ele>
        <time>2020-08-16T18:44:29.662Z</time>
      </trkpt>
      <trkpt lat="50.61998" lon="3.48689">
        <ele>33.287762</ele>
        <time>2020-08-16T18:44:35.774Z</time>
      </trkpt>
      <trkpt lat="50.62008" lon="3.48611">
        <ele>33.039074</ele>
        <time>2020-08-16T18:44:46.049Z</time>
      </trkpt>
      <trkpt lat="50.62" lon="3.48603">
        <ele>32.995344</ele>
        <time>2020-08-16T18:44:47.566Z</time>
      </trkpt>
      <trkpt lat="50.61995" lon="3.48554">
        <ele>32.842793</ele>
        <time>2020-08-16T18:44:53.648Z</time>
      </trkpt>
      <trkpt lat="50.62004" lon="3.48424">
        <ele>32.435661</ele>
        <time>2020-08-16T18:45:08.848Z</time>
      </trkpt>
      <trkpt lat="50.62024" lon="3.48345">
        <ele>31.802538</ele>
        <time>2020-08-16T18:45:17.997Z</time>
      </trkpt>
      <trkpt lat="50.62021" lon="3.48242">
        <ele>31.013128</ele>
        <time>2020-08-16T18:45:29.033Z</time>
      </trkpt>
      <trkpt lat="50.62044" lon="3.48058">
        <ele>29.527914</ele>
        <time>2020-08-16T18:45:49.119Z</time>
      </trkpt>
      <trkpt lat="50.62052" lon="3.47916">
        <ele>28.362822</ele>
        <time>2020-08-16T18:46:04.328Z</time>
      </trkpt>
      <trkpt lat="50.62048" lon="3.47897">
        <ele>28.203862</ele>
        <time>2020-08-16T18:46:06.419Z</time>
      </trkpt>
      <trkpt lat="50.62039" lon="3.47881">
        <ele>28.02746</ele>
        <time>2020-08-16T18:46:08.725Z</time>
      </trkpt>
      <trkpt lat="50.62008" lon="3.47853">
        <ele>27.656402</ele>
        <time>2020-08-16T18:46:14.732Z</time>
      </trkpt>
      <trkpt lat="50.61996" lon="3.47832">
        <ele>27.477773</ele>
        <time>2020-08-16T18:46:17.828Z</time>
      </trkpt>
      <trkpt lat="50.6199" lon="3.47808">
        <ele>27.3148</ele>
        <time>2020-08-16T18:46:20.650Z</time>
      </trkpt>
      <trkpt lat="50.61965" lon="3.47613">
        <ele>26.139895</ele>
        <time>2020-08-16T18:46:42.820Z</time>
      </trkpt>
      <trkpt lat="50.61968" lon="3.47527">
        <ele>25.975748</ele>
        <time>2020-08-16T18:46:53.012Z</time>
      </trkpt>
      <trkpt lat="50.61979" lon="3.47475">
        <ele>25.871492</ele>
        <time>2020-08-16T18:46:59.689Z</time>
      </trkpt>
      <trkpt lat="50.61978" lon="3.4746">
        <ele>25.842236</ele>
        <time>2020-08-16T18:47:01.565Z</time>
      </trkpt>
      <trkpt lat="50.61956" lon="3.47264">
        <ele>25.817392</ele>
        <time>2020-08-16T18:47:27.278Z</time>
      </trkpt>
      <trkpt lat="50.61956" lon="3.47264">
        <ele>25.817392</ele>
        <time>2020-08-16T18:47:27.297Z</time>
      </trkpt>
      <trkpt lat="50.61902" lon="3.47188">
        <ele>26.065241</ele>
        <time>2020-08-16T18:47:42.895Z</time>
      </trkpt>
      <trkpt lat="50.61873" lon="3.47085">
        <ele>26.484992</ele>
        <time>2020-08-16T18:47:58.985Z</time>
      </trkpt>
      <trkpt lat="50.61887" lon="3.47018">
        <ele>27.04035</ele>
        <time>2020-08-16T18:48:09.672Z</time>
      </trkpt>
      <trkpt lat="50.61884" lon="3.46986">
        <ele>27.299426</ele>
        <time>2020-08-16T18:48:14.432Z</time>
      </trkpt>
      <trkpt lat="50.61872" lon="3.46955">
        <ele>27.587789</ele>
        <time>2020-08-16T18:48:20.329Z</time>
      </trkpt>
      <trkpt lat="50.61875" lon="3.46951">
        <ele>27.626701</ele>
        <time>2020-08-16T18:48:20.840Z</time>
      </trkpt>
      <trkpt lat="50.61874" lon="3.46933">
        <ele>27.769848</ele>
        <time>2020-08-16T18:48:22.949Z</time>
      </trkpt>
      <trkpt lat="50.61872" lon="3.4693">
        <ele>27.807682</ele>
        <time>2020-08-16T18:48:23.471Z</time>
      </trkpt>
      <trkpt lat="50.61874" lon="3.46919">
        <ele>27.906042</ele>
        <time>2020-08-16T18:48:25.374Z</time>
      </trkpt>
      <trkpt lat="50.61882" lon="3.46906">
        <ele>28.043766</ele>
        <time>2020-08-16T18:48:27.542Z</time>
      </trkpt>
      <trkpt lat="50.6192" lon="3.46906">
        <ele>28.555867</ele>
        <time>2020-08-16T18:48:36.097Z</time>
      </trkpt>
      <trkpt lat="50.61939" lon="3.46886">
        <ele>29.211119</ele>
        <time>2020-08-16T18:48:41.731Z</time>
      </trkpt>
      <trkpt lat="50.61966" lon="3.46753">
        <ele>31.77261</ele>
        <time>2020-08-16T18:49:04.910Z</time>
      </trkpt>
      <trkpt lat="50.62004" lon="3.46748">
        <ele>32.880575</ele>
        <time>2020-08-16T18:49:15.612Z</time>
      </trkpt>
      <trkpt lat="50.62098" lon="3.46721">
        <ele>36.183705</ele>
        <time>2020-08-16T18:49:43.902Z</time>
      </trkpt>
      <trkpt lat="50.62169" lon="3.46724">
        <ele>38.770213</ele>
        <time>2020-08-16T18:50:05.225Z</time>
      </trkpt>
      <trkpt lat="50.62205" lon="3.46737">
        <ele>40.154762</ele>
        <time>2020-08-16T18:50:16.118Z</time>
      </trkpt>
      <trkpt lat="50.62296" lon="3.468">
        <ele>43.494197</ele>
        <time>2020-08-16T18:50:44.606Z</time>
      </trkpt>
      <trkpt lat="50.62367" lon="3.46963">
        <ele>47.495394</ele>
        <time>2020-08-16T18:51:19.739Z</time>
      </trkpt>
      <trkpt lat="50.62395" lon="3.47004">
        <ele>48.539857</ele>
        <time>2020-08-16T18:51:29.941Z</time>
      </trkpt>
      <trkpt lat="50.6252" lon="3.47058">
        <ele>51.542308</ele>
        <time>2020-08-16T18:52:02.343Z</time>
      </trkpt>
      <trkpt lat="50.62553" lon="3.47075">
        <ele>51.786905</ele>
        <time>2020-08-16T18:52:09.590Z</time>
      </trkpt>
      <trkpt lat="50.62606" lon="3.47097">
        <ele>52.167909</ele>
        <time>2020-08-16T18:52:19.691Z</time>
      </trkpt>
      <trkpt lat="50.62837" lon="3.47257">
        <ele>50.593852</ele>
        <time>2020-08-16T18:52:51.049Z</time>
      </trkpt>
      <trkpt lat="50.62912" lon="3.47344">
        <ele>48.841131</ele>
        <time>2020-08-16T18:53:01.190Z</time>
      </trkpt>
      <trkpt lat="50.62937" lon="3.47366">
        <ele>48.305958</ele>
        <time>2020-08-16T18:53:04.247Z</time>
      </trkpt>
      <trkpt lat="50.62972" lon="3.47378">
        <ele>47.635565</ele>
        <time>2020-08-16T18:53:08.067Z</time>
      </trkpt>
      <trkpt lat="50.63104" lon="3.47372">
        <ele>45.813253</ele>
        <time>2020-08-16T18:53:23.005Z</time>
      </trkpt>
      <trkpt lat="50.63155" lon="3.47359">
        <ele>45.124039</ele>
        <time>2020-08-16T18:53:29.498Z</time>
      </trkpt>
      <trkpt lat="50.63333" lon="3.47252">
        <ele>45.20846</ele>
        <time>2020-08-16T18:53:58.440Z</time>
      </trkpt>
      <trkpt lat="50.63361" lon="3.47264">
        <ele>45.537202</ele>
        <time>2020-08-16T18:54:03.708Z</time>
      </trkpt>
      <trkpt lat="50.63544" lon="3.47492">
        <ele>48.873216</ele>
        <time>2020-08-16T18:54:50.458Z</time>
      </trkpt>
      <trkpt lat="50.63567" lon="3.47498">
        <ele>49.328825</ele>
        <time>2020-08-16T18:54:55.722Z</time>
      </trkpt>
      <trkpt lat="50.63834" lon="3.47456">
        <ele>56.538579</ele>
        <time>2020-08-16T18:56:06.444Z</time>
      </trkpt>
      <trkpt lat="50.63837" lon="3.47455">
        <ele>56.629379</ele>
        <time>2020-08-16T18:56:07.209Z</time>
      </trkpt>
      <trkpt lat="50.63873" lon="3.47451">
        <ele>57.792475</ele>
        <time>2020-08-16T18:56:17.242Z</time>
      </trkpt>
      <trkpt lat="50.63999" lon="3.47435">
        <ele>61.849474</ele>
        <time>2020-08-16T18:56:53.664Z</time>
      </trkpt>
      <trkpt lat="50.64087" lon="3.47424">
        <ele>63.674676</ele>
        <time>2020-08-16T18:57:15.658Z</time>
      </trkpt>
      <trkpt lat="50.64092" lon="3.47422">
        <ele>63.778484</ele>
        <time>2020-08-16T18:57:17.149Z</time>
      </trkpt>
      <trkpt lat="50.64102" lon="3.47418">
        <ele>64.001121</ele>
        <time>2020-08-16T18:57:19.450Z</time>
      </trkpt>
      <trkpt lat="50.64145" lon="3.47375">
        <ele>65.049192</ele>
        <time>2020-08-16T18:57:30.366Z</time>
      </trkpt>
      <trkpt lat="50.64203" lon="3.47276">
        <ele>65.205382</ele>
        <time>2020-08-16T18:57:44.956Z</time>
      </trkpt>
      <trkpt lat="50.64256" lon="3.47201">
        <ele>64.868818</ele>
        <time>2020-08-16T18:57:53.795Z</time>
      </trkpt>
      <trkpt lat="50.64257" lon="3.47199">
        <ele>64.85705</ele>
        <time>2020-08-16T18:57:54.035Z</time>
      </trkpt>
      <trkpt lat="50.64292" lon="3.47148">
        <ele>64.587605</ele>
        <time>2020-08-16T18:57:59.664Z</time>
      </trkpt>
      <trkpt lat="50.64375" lon="3.46964">
        <ele>62.473394</ele>
        <time>2020-08-16T18:58:15.845Z</time>
      </trkpt>
      <trkpt lat="50.64393" lon="3.46902">
        <ele>61.932828</ele>
        <time>2020-08-16T18:58:20.966Z</time>
      </trkpt>
      <trkpt lat="50.64394" lon="3.46898">
        <ele>61.91549</ele>
        <time>2020-08-16T18:58:21.307Z</time>
      </trkpt>
      <trkpt lat="50.64459" lon="3.4661">
        <ele>60.88251</ele>
        <time>2020-08-16T18:58:46.942Z</time>
      </trkpt>
      <trkpt lat="50.64537" lon="3.46302">
        <ele>60.713347</ele>
        <time>2020-08-16T18:59:18.829Z</time>
      </trkpt>
      <trkpt lat="50.64791" lon="3.45877">
        <ele>59.659944</ele>
        <time>2020-08-16T19:00:11.478Z</time>
      </trkpt>
      <trkpt lat="50.64868" lon="3.45742">
        <ele>58.546954</ele>
        <time>2020-08-16T19:00:25.160Z</time>
      </trkpt>
      <trkpt lat="50.64911" lon="3.45649">
        <ele>57.119838</ele>
        <time>2020-08-16T19:00:33.200Z</time>
      </trkpt>
      <trkpt lat="50.64921" lon="3.45607">
        <ele>56.570191</ele>
        <time>2020-08-16T19:00:36.270Z</time>
      </trkpt>
      <trkpt lat="50.64923" lon="3.456">
        <ele>56.473097</ele>
        <time>2020-08-16T19:00:36.817Z</time>
      </trkpt>
      <trkpt lat="50.64942" lon="3.455">
        <ele>55.176143</ele>
        <time>2020-08-16T19:00:44.065Z</time>
      </trkpt>
      <trkpt lat="50.64956" lon="3.45423">
        <ele>54.036896</ele>
        <time>2020-08-16T19:00:49.598Z</time>
      </trkpt>
      <trkpt lat="50.64968" lon="3.45377">
        <ele>53.327259</ele>
        <time>2020-08-16T19:00:52.954Z</time>
      </trkpt>
      <trkpt lat="50.65029" lon="3.45234">
        <ele>50.809655</ele>
        <time>2020-08-16T19:01:04.759Z</time>
      </trkpt>
      <trkpt lat="50.65049" lon="3.45189">
        <ele>49.896918</ele>
        <time>2020-08-16T19:01:08.443Z</time>
      </trkpt>
      <trkpt lat="50.65076" lon="3.45148">
        <ele>48.901942</ele>
        <time>2020-08-16T19:01:12.379Z</time>
      </trkpt>
      <trkpt lat="50.65093" lon="3.45133">
        <ele>48.384653</ele>
        <time>2020-08-16T19:01:14.477Z</time>
      </trkpt>
      <trkpt lat="50.65104" lon="3.45124">
        <ele>48.054643</ele>
        <time>2020-08-16T19:01:15.768Z</time>
      </trkpt>
      <trkpt lat="50.65111" lon="3.45119">
        <ele>47.869384</ele>
        <time>2020-08-16T19:01:16.449Z</time>
      </trkpt>
      <trkpt lat="50.65163" lon="3.45063">
        <ele>46.200211</ele>
        <time>2020-08-16T19:01:23.016Z</time>
      </trkpt>
      <trkpt lat="50.65194" lon="3.45042">
        <ele>45.191457</ele>
        <time>2020-08-16T19:01:26.555Z</time>
      </trkpt>
      <trkpt lat="50.65228" lon="3.4503">
        <ele>44.159974</ele>
        <time>2020-08-16T19:01:30.112Z</time>
      </trkpt>
      <trkpt lat="50.6529" lon="3.45037">
        <ele>42.287088</ele>
        <time>2020-08-16T19:01:36.498Z</time>
      </trkpt>
      <trkpt lat="50.65333" lon="3.45004">
        <ele>40.877998</ele>
        <time>2020-08-16T19:01:41.391Z</time>
      </trkpt>
      <trkpt lat="50.65374" lon="3.44965">
        <ele>39.801651</ele>
        <time>2020-08-16T19:01:46.334Z</time>
      </trkpt>
      <trkpt lat="50.65382" lon="3.44958">
        <ele>39.598811</ele>
        <time>2020-08-16T19:01:47.232Z</time>
      </trkpt>
      <trkpt lat="50.65387" lon="3.44944">
        <ele>39.380396</ele>
        <time>2020-08-16T19:01:48.302Z</time>
      </trkpt>
      <trkpt lat="50.65397" lon="3.44915">
        <ele>38.90115</ele>
        <time>2020-08-16T19:01:50.548Z</time>
      </trkpt>
      <trkpt lat="50.65404" lon="3.4488">
        <ele>38.371578</ele>
        <time>2020-08-16T19:01:53.118Z</time>
      </trkpt>
      <trkpt lat="50.65406" lon="3.44859">
        <ele>38.069911</ele>
        <time>2020-08-16T19:01:54.554Z</time>
      </trkpt>
      <trkpt lat="50.65403" lon="3.44837">
        <ele>37.750312</ele>
        <time>2020-08-16T19:01:56.162Z</time>
      </trkpt>
      <trkpt lat="50.65381" lon="3.44753">
        <ele>36.907261</ele>
        <time>2020-08-16T19:02:02.663Z</time>
      </trkpt>
      <trkpt lat="50.65375" lon="3.44729">
        <ele>36.936372</ele>
        <time>2020-08-16T19:02:04.683Z</time>
      </trkpt>
      <trkpt lat="50.65371" lon="3.44714">
        <ele>36.955194</ele>
        <time>2020-08-16T19:02:06.042Z</time>
      </trkpt>
      <trkpt lat="50.65336" lon="3.44581">
        <ele>37.115901</ele>
        <time>2020-08-16T19:02:20.816Z</time>
      </trkpt>
      <trkpt lat="50.65335" lon="3.44515">
        <ele>37.189231</ele>
        <time>2020-08-16T19:02:29.265Z</time>
      </trkpt>
      <trkpt lat="50.65315" lon="3.44445">
        <ele>38.102195</ele>
        <time>2020-08-16T19:02:40.029Z</time>
      </trkpt>
      <trkpt lat="50.65317" lon="3.44432">
        <ele>38.266218</ele>
        <time>2020-08-16T19:02:41.968Z</time>
      </trkpt>
      <trkpt lat="50.6532" lon="3.44422">
        <ele>38.413283</ele>
        <time>2020-08-16T19:02:43.665Z</time>
      </trkpt>
      <trkpt lat="50.65411" lon="3.4435">
        <ele>40.379662</ele>
        <time>2020-08-16T19:03:07.031Z</time>
      </trkpt>
      <trkpt lat="50.65498" lon="3.44194">
        <ele>43.367364</ele>
        <time>2020-08-16T19:03:38.859Z</time>
      </trkpt>
      <trkpt lat="50.65509" lon="3.44161">
        <ele>43.904651</ele>
        <time>2020-08-16T19:03:44.105Z</time>
      </trkpt>
      <trkpt lat="50.65513" lon="3.4415">
        <ele>44.099717</ele>
        <time>2020-08-16T19:03:46.212Z</time>
      </trkpt>
      <trkpt lat="50.65571" lon="3.43951">
        <ele>47.972644</ele>
        <time>2020-08-16T19:04:21.065Z</time>
      </trkpt>
      <trkpt lat="50.656" lon="3.4382">
        <ele>50.628782</ele>
        <time>2020-08-16T19:04:45.915Z</time>
      </trkpt>
      <trkpt lat="50.65616" lon="3.43725">
        <ele>52.810873</ele>
        <time>2020-08-16T19:05:05.532Z</time>
      </trkpt>
      <trkpt lat="50.6563" lon="3.43572">
        <ele>56.22341</ele>
        <time>2020-08-16T19:05:34.127Z</time>
      </trkpt>
      <trkpt lat="50.65632" lon="3.43472">
        <ele>57.072481</ele>
        <time>2020-08-16T19:05:49.186Z</time>
      </trkpt>
      <trkpt lat="50.65671" lon="3.43464">
        <ele>57.521855</ele>
        <time>2020-08-16T19:05:56.256Z</time>
      </trkpt>
      <trkpt lat="50.65718" lon="3.43468">
        <ele>58.073993</ele>
        <time>2020-08-16T19:06:04.328Z</time>
      </trkpt>
      <trkpt lat="50.65779" lon="3.43498">
        <ele>58.457092</ele>
        <time>2020-08-16T19:06:13.884Z</time>
      </trkpt>
      <trkpt lat="50.658" lon="3.43509">
        <ele>58.440601</ele>
        <time>2020-08-16T19:06:16.600Z</time>
      </trkpt>
      <trkpt lat="50.65856" lon="3.43381">
        <ele>58.368139</ele>
        <time>2020-08-16T19:06:30.546Z</time>
      </trkpt>
      <trkpt lat="50.65884" lon="3.43243">
        <ele>58.749612</ele>
        <time>2020-08-16T19:06:45.836Z</time>
      </trkpt>
      <trkpt lat="50.65891" lon="3.43209">
        <ele>58.898188</ele>
        <time>2020-08-16T19:06:49.849Z</time>
      </trkpt>
      <trkpt lat="50.65893" lon="3.43186">
        <ele>58.993504</ele>
        <time>2020-08-16T19:06:52.450Z</time>
      </trkpt>
      <trkpt lat="50.65889" lon="3.43161">
        <ele>59.101425</ele>
        <time>2020-08-16T19:06:55.365Z</time>
      </trkpt>
      <trkpt lat="50.65858" lon="3.43129">
        <ele>59.346624</ele>
        <time>2020-08-16T19:07:01.980Z</time>
      </trkpt>
      <trkpt lat="50.65849" lon="3.43116">
        <ele>59.424831</ele>
        <time>2020-08-16T19:07:04.203Z</time>
      </trkpt>
      <trkpt lat="50.65845" lon="3.43095">
        <ele>59.515847</ele>
        <time>2020-08-16T19:07:06.766Z</time>
      </trkpt>
      <trkpt lat="50.65847" lon="3.42991">
        <ele>60.706465</ele>
        <time>2020-08-16T19:07:19.615Z</time>
      </trkpt>
      <trkpt lat="50.65836" lon="3.4287">
        <ele>62.141507</ele>
        <time>2020-08-16T19:07:36.689Z</time>
      </trkpt>
      <trkpt lat="50.65854" lon="3.4278">
        <ele>63.628041</ele>
        <time>2020-08-16T19:07:52.657Z</time>
      </trkpt>
      <trkpt lat="50.65857" lon="3.42659">
        <ele>66.353972</ele>
        <time>2020-08-16T19:08:14.496Z</time>
      </trkpt>
      <trkpt lat="50.65856" lon="3.42643">
        <ele>66.71339</ele>
        <time>2020-08-16T19:08:17.800Z</time>
      </trkpt>
      <trkpt lat="50.65853" lon="3.42587">
        <ele>67.985679</ele>
        <time>2020-08-16T19:08:28.648Z</time>
      </trkpt>
      <trkpt lat="50.65913" lon="3.42417">
        <ele>71.642373</ele>
        <time>2020-08-16T19:09:06.930Z</time>
      </trkpt>
      <trkpt lat="50.65923" lon="3.42397">
        <ele>72.089719</ele>
        <time>2020-08-16T19:09:10.763Z</time>
      </trkpt>
      <trkpt lat="50.65936" lon="3.42386">
        <ele>72.501692</ele>
        <time>2020-08-16T19:09:14.997Z</time>
      </trkpt>
      <trkpt lat="50.65948" lon="3.42378">
        <ele>72.848577</ele>
        <time>2020-08-16T19:09:17.487Z</time>
      </trkpt>
      <trkpt lat="50.65983" lon="3.42289">
        <ele>73.993263</ele>
        <time>2020-08-16T19:09:30.579Z</time>
      </trkpt>
      <trkpt lat="50.66001" lon="3.42204">
        <ele>73.550802</ele>
        <time>2020-08-16T19:09:39.002Z</time>
      </trkpt>
      <trkpt lat="50.66044" lon="3.42089">
        <ele>72.891414</ele>
        <time>2020-08-16T19:09:48.632Z</time>
      </trkpt>
      <trkpt lat="50.66051" lon="3.42054">
        <ele>72.685801</ele>
        <time>2020-08-16T19:09:51.180Z</time>
      </trkpt>
      <trkpt lat="50.66054" lon="3.41977">
        <ele>72.004074</ele>
        <time>2020-08-16T19:09:56.560Z</time>
      </trkpt>
      <trkpt lat="50.66065" lon="3.41921">
        <ele>71.489286</ele>
        <time>2020-08-16T19:10:00.694Z</time>
      </trkpt>
      <trkpt lat="50.66077" lon="3.41846">
        <ele>70.80883</ele>
        <time>2020-08-16T19:10:06.264Z</time>
      </trkpt>
      <trkpt lat="50.66088" lon="3.41783">
        <ele>70.240367</ele>
        <time>2020-08-16T19:10:11.242Z</time>
      </trkpt>
      <trkpt lat="50.6611" lon="3.41619">
        <ele>72.773497</ele>
        <time>2020-08-16T19:10:31.438Z</time>
      </trkpt>
      <trkpt lat="50.66109" lon="3.41556">
        <ele>73.731542</ele>
        <time>2020-08-16T19:10:43.480Z</time>
      </trkpt>
      <trkpt lat="50.66106" lon="3.4154">
        <ele>73.992358</ele>
        <time>2020-08-16T19:10:46.836Z</time>
      </trkpt>
      <trkpt lat="50.6607" lon="3.41541">
        <ele>75.45492</ele>
        <time>2020-08-16T19:10:59.513Z</time>
      </trkpt>
      <trkpt lat="50.65894" lon="3.41552">
        <ele>87.900501</ele>
        <time>2020-08-16T19:12:20.248Z</time>
      </trkpt>
      <trkpt lat="50.65817" lon="3.41541">
        <ele>92.286909</ele>
        <time>2020-08-16T19:12:53.549Z</time>
      </trkpt>
      <trkpt lat="50.65738" lon="3.41516">
        <ele>96.83019</ele>
        <time>2020-08-16T19:13:20.832Z</time>
      </trkpt>
      <trkpt lat="50.65703" lon="3.41515">
        <ele>98.018801</ele>
        <time>2020-08-16T19:13:30.402Z</time>
      </trkpt>
      <trkpt lat="50.65601" lon="3.41528">
        <ele>100.136434</ele>
        <time>2020-08-16T19:13:54.024Z</time>
      </trkpt>
      <trkpt lat="50.65582" lon="3.41522">
        <ele>100.529831</ele>
        <time>2020-08-16T19:13:58.061Z</time>
      </trkpt>
      <trkpt lat="50.65565" lon="3.41501">
        <ele>100.971096</ele>
        <time>2020-08-16T19:14:02.528Z</time>
      </trkpt>
      <trkpt lat="50.6555" lon="3.41455">
        <ele>101.278207</ele>
        <time>2020-08-16T19:14:08.413Z</time>
      </trkpt>
      <trkpt lat="50.65518" lon="3.41358">
        <ele>101.361825</ele>
        <time>2020-08-16T19:14:19.859Z</time>
      </trkpt>
      <trkpt lat="50.65502" lon="3.41273">
        <ele>101.430052</ele>
        <time>2020-08-16T19:14:28.278Z</time>
      </trkpt>
      <trkpt lat="50.65499" lon="3.41243">
        <ele>101.453509</ele>
        <time>2020-08-16T19:14:30.678Z</time>
      </trkpt>
      <trkpt lat="50.65489" lon="3.41169">
        <ele>100.9495</ele>
        <time>2020-08-16T19:14:36.945Z</time>
      </trkpt>
      <trkpt lat="50.65465" lon="3.41075">
        <ele>99.886523</ele>
        <time>2020-08-16T19:14:44.228Z</time>
      </trkpt>
      <trkpt lat="50.65312" lon="3.40696">
        <ele>95.293893</ele>
        <time>2020-08-16T19:15:15.114Z</time>
      </trkpt>
      <trkpt lat="50.65247" lon="3.40586">
        <ele>96.626865</ele>
        <time>2020-08-16T19:15:31.570Z</time>
      </trkpt>
      <trkpt lat="50.65237" lon="3.40567">
        <ele>96.844541</ele>
        <time>2020-08-16T19:15:35.872Z</time>
      </trkpt>
      <trkpt lat="50.65227" lon="3.40541">
        <ele>97.114917</ele>
        <time>2020-08-16T19:15:40.550Z</time>
      </trkpt>
      <trkpt lat="50.65228" lon="3.40524">
        <ele>97.264391</ele>
        <time>2020-08-16T19:15:43.821Z</time>
      </trkpt>
      <trkpt lat="50.65232" lon="3.4051">
        <ele>97.402583</ele>
        <time>2020-08-16T19:15:47.984Z</time>
      </trkpt>
      <trkpt lat="50.65239" lon="3.40499">
        <ele>97.693577</ele>
        <time>2020-08-16T19:15:51.570Z</time>
      </trkpt>
      <trkpt lat="50.65252" lon="3.40488">
        <ele>98.710877</ele>
        <time>2020-08-16T19:15:55.868Z</time>
      </trkpt>
      <trkpt lat="50.65256" lon="3.40487">
        <ele>99.044813</ele>
        <time>2020-08-16T19:15:59.367Z</time>
      </trkpt>
      <trkpt lat="50.65475" lon="3.40415">
        <ele>114.39813</ele>
        <time>2020-08-16T19:17:54.892Z</time>
      </trkpt>
      <trkpt lat="50.65478" lon="3.40403">
        <ele>114.916146</ele>
        <time>2020-08-16T19:18:00.210Z</time>
      </trkpt>
      <trkpt lat="50.65478" lon="3.40403">
        <ele>114.916146</ele>
        <time>2020-08-16T19:18:00.268Z</time>
      </trkpt>
      <trkpt lat="50.65478" lon="3.40403">
        <ele>114.916146</ele>
        <time>2020-08-16T19:18:00.278Z</time>
      </trkpt>
      <trkpt lat="50.65482" lon="3.40369">
        <ele>116.304145</ele>
        <time>2020-08-16T19:18:09.745Z</time>
      </trkpt>
      <trkpt lat="50.65485" lon="3.40349">
        <ele>117.101424</ele>
        <time>2020-08-16T19:18:16.563Z</time>
      </trkpt>
      <trkpt lat="50.65489" lon="3.40319">
        <ele>118.345661</ele>
        <time>2020-08-16T19:18:24.629Z</time>
      </trkpt>
      <trkpt lat="50.65495" lon="3.40271">
        <ele>120.294347</ele>
        <time>2020-08-16T19:18:37.884Z</time>
      </trkpt>
      <trkpt lat="50.65498" lon="3.40251">
        <ele>121.117732</ele>
        <time>2020-08-16T19:18:42.547Z</time>
      </trkpt>
      <trkpt lat="50.65491" lon="3.4012">
        <ele>121.127672</ele>
        <time>2020-08-16T19:19:08.513Z</time>
      </trkpt>
      <trkpt lat="50.65498" lon="3.40251">
        <ele>120.526834</ele>
        <time>2020-08-16T19:19:21.098Z</time>
      </trkpt>
      <trkpt lat="50.65495" lon="3.40271">
        <ele>120.433163</ele>
        <time>2020-08-16T19:19:22.932Z</time>
      </trkpt>
      <trkpt lat="50.65489" lon="3.40319">
        <ele>118.654392</ele>
        <time>2020-08-16T19:19:27.032Z</time>
      </trkpt>
      <trkpt lat="50.65485" lon="3.40349">
        <ele>117.145888</ele>
        <time>2020-08-16T19:19:29.688Z</time>
      </trkpt>
      <trkpt lat="50.65482" lon="3.40369">
        <ele>116.179273</ele>
        <time>2020-08-16T19:19:31.272Z</time>
      </trkpt>
      <trkpt lat="50.65478" lon="3.40403">
        <ele>114.496472</ele>
        <time>2020-08-16T19:19:34.182Z</time>
      </trkpt>
      <trkpt lat="50.65475" lon="3.40415">
        <ele>113.868433</ele>
        <time>2020-08-16T19:19:35.173Z</time>
      </trkpt>
      <trkpt lat="50.65256" lon="3.40487">
        <ele>94.975361</ele>
        <time>2020-08-16T19:20:02.689Z</time>
      </trkpt>
      <trkpt lat="50.65252" lon="3.40488">
        <ele>94.549737</ele>
        <time>2020-08-16T19:20:03.216Z</time>
      </trkpt>
      <trkpt lat="50.65223" lon="3.40496">
        <ele>91.905748</ele>
        <time>2020-08-16T19:20:06.996Z</time>
      </trkpt>
      <trkpt lat="50.65217" lon="3.40497">
        <ele>91.332564</ele>
        <time>2020-08-16T19:20:07.727Z</time>
      </trkpt>
      <trkpt lat="50.65209" lon="3.40498">
        <ele>90.659588</ele>
        <time>2020-08-16T19:20:08.670Z</time>
      </trkpt>
      <trkpt lat="50.65194" lon="3.40495">
        <ele>89.515587</ele>
        <time>2020-08-16T19:20:10.674Z</time>
      </trkpt>
      <trkpt lat="50.65181" lon="3.4049">
        <ele>88.57531</ele>
        <time>2020-08-16T19:20:12.284Z</time>
      </trkpt>
      <trkpt lat="50.65171" lon="3.40485">
        <ele>87.825081</ele>
        <time>2020-08-16T19:20:13.254Z</time>
      </trkpt>
      <trkpt lat="50.65163" lon="3.40476">
        <ele>87.133159</ele>
        <time>2020-08-16T19:20:14.165Z</time>
      </trkpt>
      <trkpt lat="50.65102" lon="3.40409">
        <ele>81.873141</ele>
        <time>2020-08-16T19:20:20.894Z</time>
      </trkpt>
      <trkpt lat="50.65083" lon="3.40397">
        <ele>80.464437</ele>
        <time>2020-08-16T19:20:22.707Z</time>
      </trkpt>
      <trkpt lat="50.65051" lon="3.40395">
        <ele>78.183747</ele>
        <time>2020-08-16T19:20:25.688Z</time>
      </trkpt>
      <trkpt lat="50.64976" lon="3.40426">
        <ele>72.820393</ele>
        <time>2020-08-16T19:20:32.778Z</time>
      </trkpt>
      <trkpt lat="50.64952" lon="3.40438">
        <ele>71.106056</ele>
        <time>2020-08-16T19:20:35.010Z</time>
      </trkpt>
      <trkpt lat="50.64911" lon="3.40447">
        <ele>68.261928</ele>
        <time>2020-08-16T19:20:38.687Z</time>
      </trkpt>
      <trkpt lat="50.64886" lon="3.40439">
        <ele>66.446885</ele>
        <time>2020-08-16T19:20:41.025Z</time>
      </trkpt>
      <trkpt lat="50.64836" lon="3.40368">
        <ele>61.459501</ele>
        <time>2020-08-16T19:20:46.947Z</time>
      </trkpt>
      <trkpt lat="50.64815" lon="3.4035">
        <ele>59.61702</ele>
        <time>2020-08-16T19:20:49.063Z</time>
      </trkpt>
      <trkpt lat="50.64783" lon="3.40343">
        <ele>57.149059</ele>
        <time>2020-08-16T19:20:51.886Z</time>
      </trkpt>
      <trkpt lat="50.64669" lon="3.40343">
        <ele>49.008691</ele>
        <time>2020-08-16T19:21:02.184Z</time>
      </trkpt>
      <trkpt lat="50.64664" lon="3.40342">
        <ele>48.743018</ele>
        <time>2020-08-16T19:21:02.565Z</time>
      </trkpt>
      <trkpt lat="50.64629" lon="3.40334">
        <ele>46.603326</ele>
        <time>2020-08-16T19:21:05.833Z</time>
      </trkpt>
      <trkpt lat="50.64483" lon="3.40266">
        <ele>38.346423</ele>
        <time>2020-08-16T19:21:20.100Z</time>
      </trkpt>
      <trkpt lat="50.64179" lon="3.40015">
        <ele>25.064717</ele>
        <time>2020-08-16T19:21:53.790Z</time>
      </trkpt>
      <trkpt lat="50.64132" lon="3.39975">
        <ele>23.700054</ele>
        <time>2020-08-16T19:21:59.362Z</time>
      </trkpt>
      <trkpt lat="50.64119" lon="3.39964">
        <ele>23.325689</ele>
        <time>2020-08-16T19:22:00.934Z</time>
      </trkpt>
      <trkpt lat="50.641" lon="3.39951">
        <ele>22.802429</ele>
        <time>2020-08-16T19:22:03.157Z</time>
      </trkpt>
      <trkpt lat="50.64069" lon="3.3994">
        <ele>21.991311</ele>
        <time>2020-08-16T19:22:06.680Z</time>
      </trkpt>
      <trkpt lat="50.64051" lon="3.39935">
        <ele>21.540211</ele>
        <time>2020-08-16T19:22:08.675Z</time>
      </trkpt>
      <trkpt lat="50.64015" lon="3.39927">
        <ele>21.257987</ele>
        <time>2020-08-16T19:22:13.000Z</time>
      </trkpt>
      <trkpt lat="50.63994" lon="3.39921">
        <ele>21.16551</ele>
        <time>2020-08-16T19:22:15.652Z</time>
      </trkpt>
      <trkpt lat="50.63983" lon="3.39917">
        <ele>21.114052</ele>
        <time>2020-08-16T19:22:17.116Z</time>
      </trkpt>
      <trkpt lat="50.63962" lon="3.39911">
        <ele>21.019187</ele>
        <time>2020-08-16T19:22:20.139Z</time>
      </trkpt>
      <trkpt lat="50.63947" lon="3.39903">
        <ele>20.949353</ele>
        <time>2020-08-16T19:22:22.301Z</time>
      </trkpt>
      <trkpt lat="50.63921" lon="3.39881">
        <ele>20.820358</ele>
        <time>2020-08-16T19:22:26.614Z</time>
      </trkpt>
      <trkpt lat="50.63863" lon="3.39813">
        <ele>20.662655</ele>
        <time>2020-08-16T19:22:37.814Z</time>
      </trkpt>
      <trkpt lat="50.63816" lon="3.39747">
        <ele>20.843858</ele>
        <time>2020-08-16T19:22:48.080Z</time>
      </trkpt>
      <trkpt lat="50.63797" lon="3.39722">
        <ele>20.915614</ele>
        <time>2020-08-16T19:22:52.291Z</time>
      </trkpt>
      <trkpt lat="50.63786" lon="3.39707">
        <ele>20.958003</ele>
        <time>2020-08-16T19:22:54.683Z</time>
      </trkpt>
      <trkpt lat="50.63779" lon="3.39698">
        <ele>20.981636</ele>
        <time>2020-08-16T19:22:56.050Z</time>
      </trkpt>
      <trkpt lat="50.63776" lon="3.39693">
        <ele>20.995558</ele>
        <time>2020-08-16T19:22:56.846Z</time>
      </trkpt>
      <trkpt lat="50.63754" lon="3.39678">
        <ele>21.06405</ele>
        <time>2020-08-16T19:23:00.681Z</time>
      </trkpt>
      <trkpt lat="50.63736" lon="3.39668">
        <ele>21.112798</ele>
        <time>2020-08-16T19:23:03.804Z</time>
      </trkpt>
      <trkpt lat="50.63715" lon="3.39662">
        <ele>21.083966</ele>
        <time>2020-08-16T19:23:07.070Z</time>
      </trkpt>
      <trkpt lat="50.63705" lon="3.39661">
        <ele>21.069198</ele>
        <time>2020-08-16T19:23:08.710Z</time>
      </trkpt>
      <trkpt lat="50.63642" lon="3.39658">
        <ele>20.982698</ele>
        <time>2020-08-16T19:23:18.110Z</time>
      </trkpt>
      <trkpt lat="50.63515" lon="3.39656">
        <ele>20.498341</ele>
        <time>2020-08-16T19:23:35.094Z</time>
      </trkpt>
      <trkpt lat="50.63459" lon="3.39655">
        <ele>20.021118</ele>
        <time>2020-08-16T19:23:41.927Z</time>
      </trkpt>
      <trkpt lat="50.63446" lon="3.39654">
        <ele>19.907778</ele>
        <time>2020-08-16T19:23:43.565Z</time>
      </trkpt>
      <trkpt lat="50.63419" lon="3.39652">
        <ele>19.679946</ele>
        <time>2020-08-16T19:23:46.815Z</time>
      </trkpt>
      <trkpt lat="50.63369" lon="3.39634">
        <ele>19.270685</ele>
        <time>2020-08-16T19:23:53.116Z</time>
      </trkpt>
      <trkpt lat="50.63355" lon="3.39622">
        <ele>19.171088</ele>
        <time>2020-08-16T19:23:55.120Z</time>
      </trkpt>
      <trkpt lat="50.63345" lon="3.39611">
        <ele>19.100636</ele>
        <time>2020-08-16T19:23:56.561Z</time>
      </trkpt>
      <trkpt lat="50.63174" lon="3.39412">
        <ele>18.545609</ele>
        <time>2020-08-16T19:24:24.857Z</time>
      </trkpt>
      <trkpt lat="50.63125" lon="3.39354">
        <ele>18.799937</ele>
        <time>2020-08-16T19:24:35.688Z</time>
      </trkpt>
      <trkpt lat="50.6309" lon="3.39303">
        <ele>18.997936</ele>
        <time>2020-08-16T19:24:45.085Z</time>
      </trkpt>
      <trkpt lat="50.63078" lon="3.39263">
        <ele>19.426742</ele>
        <time>2020-08-16T19:24:50.895Z</time>
      </trkpt>
      <trkpt lat="50.63075" lon="3.39242">
        <ele>19.631296</ele>
        <time>2020-08-16T19:24:53.960Z</time>
      </trkpt>
      <trkpt lat="50.63074" lon="3.39211">
        <ele>19.924739</ele>
        <time>2020-08-16T19:24:57.995Z</time>
      </trkpt>
      <trkpt lat="50.63076" lon="3.39197">
        <ele>20.066509</ele>
        <time>2020-08-16T19:25:00.120Z</time>
      </trkpt>
      <trkpt lat="50.63074" lon="3.39178">
        <ele>20.242996</ele>
        <time>2020-08-16T19:25:02.871Z</time>
      </trkpt>
      <trkpt lat="50.6307" lon="3.39161">
        <ele>20.423989</ele>
        <time>2020-08-16T19:25:05.556Z</time>
      </trkpt>
      <trkpt lat="50.63063" lon="3.39153">
        <ele>20.552112</ele>
        <time>2020-08-16T19:25:07.304Z</time>
      </trkpt>
      <trkpt lat="50.63037" lon="3.39117">
        <ele>21.078826</ele>
        <time>2020-08-16T19:25:14.952Z</time>
      </trkpt>
      <trkpt lat="50.6298" lon="3.39043">
        <ele>21.867443</ele>
        <time>2020-08-16T19:25:29.895Z</time>
      </trkpt>
      <trkpt lat="50.62958" lon="3.39019">
        <ele>22.009199</ele>
        <time>2020-08-16T19:25:34.804Z</time>
      </trkpt>
      <trkpt lat="50.62906" lon="3.38981">
        <ele>22.311752</ele>
        <time>2020-08-16T19:25:44.220Z</time>
      </trkpt>
      <trkpt lat="50.62867" lon="3.38956">
        <ele>22.531631</ele>
        <time>2020-08-16T19:25:50.531Z</time>
      </trkpt>
      <trkpt lat="50.62853" lon="3.38952">
        <ele>22.607321</ele>
        <time>2020-08-16T19:25:52.550Z</time>
      </trkpt>
      <trkpt lat="50.6283" lon="3.38947">
        <ele>22.615919</ele>
        <time>2020-08-16T19:25:56.034Z</time>
      </trkpt>
      <trkpt lat="50.628" lon="3.38946">
        <ele>22.563536</ele>
        <time>2020-08-16T19:26:00.201Z</time>
      </trkpt>
      <trkpt lat="50.62772" lon="3.38945">
        <ele>22.515006</ele>
        <time>2020-08-16T19:26:04.004Z</time>
      </trkpt>
      <trkpt lat="50.62759" lon="3.38946">
        <ele>22.493665</ele>
        <time>2020-08-16T19:26:05.728Z</time>
      </trkpt>
      <trkpt lat="50.62747" lon="3.38947">
        <ele>22.473022</ele>
        <time>2020-08-16T19:26:07.333Z</time>
      </trkpt>
      <trkpt lat="50.6274" lon="3.38942">
        <ele>22.458951</ele>
        <time>2020-08-16T19:26:08.476Z</time>
      </trkpt>
      <trkpt lat="50.62716" lon="3.3896">
        <ele>22.413388</ele>
        <time>2020-08-16T19:26:12.192Z</time>
      </trkpt>
      <trkpt lat="50.62709" lon="3.3896">
        <ele>22.401256</ele>
        <time>2020-08-16T19:26:13.182Z</time>
      </trkpt>
      <trkpt lat="50.6266" lon="3.38985">
        <ele>22.340975</ele>
        <time>2020-08-16T19:26:20.822Z</time>
      </trkpt>
      <trkpt lat="50.62538" lon="3.39015">
        <ele>22.435316</ele>
        <time>2020-08-16T19:26:39.588Z</time>
      </trkpt>
      <trkpt lat="50.62482" lon="3.39036">
        <ele>22.500821</ele>
        <time>2020-08-16T19:26:48.298Z</time>
      </trkpt>
      <trkpt lat="50.62452" lon="3.39053">
        <ele>22.583801</ele>
        <time>2020-08-16T19:26:53.307Z</time>
      </trkpt>
      <trkpt lat="50.62417" lon="3.39073">
        <ele>22.678708</ele>
        <time>2020-08-16T19:26:59.133Z</time>
      </trkpt>
      <trkpt lat="50.62411" lon="3.39077">
        <ele>22.694507</ele>
        <time>2020-08-16T19:27:00.116Z</time>
      </trkpt>
      <trkpt lat="50.62392" lon="3.39087">
        <ele>22.747063</ele>
        <time>2020-08-16T19:27:03.377Z</time>
      </trkpt>
      <trkpt lat="50.62371" lon="3.39097">
        <ele>22.802841</ele>
        <time>2020-08-16T19:27:06.850Z</time>
      </trkpt>
      <trkpt lat="50.62364" lon="3.391">
        <ele>22.821072</ele>
        <time>2020-08-16T19:27:07.996Z</time>
      </trkpt>
      <trkpt lat="50.62325" lon="3.39121">
        <ele>22.928229</ele>
        <time>2020-08-16T19:27:14.770Z</time>
      </trkpt>
      <trkpt lat="50.62319" lon="3.39124">
        <ele>22.952958</ele>
        <time>2020-08-16T19:27:15.768Z</time>
      </trkpt>
      <trkpt lat="50.62127" lon="3.39214">
        <ele>23.792084</ele>
        <time>2020-08-16T19:27:49.107Z</time>
      </trkpt>
      <trkpt lat="50.62105" lon="3.39221">
        <ele>23.880289</ele>
        <time>2020-08-16T19:27:52.690Z</time>
      </trkpt>
      <trkpt lat="50.62026" lon="3.39257">
        <ele>24.217171</ele>
        <time>2020-08-16T19:28:06.460Z</time>
      </trkpt>
      <trkpt lat="50.61999" lon="3.39269">
        <ele>24.333034</ele>
        <time>2020-08-16T19:28:11.008Z</time>
      </trkpt>
      <trkpt lat="50.61953" lon="3.39285">
        <ele>24.442759</ele>
        <time>2020-08-16T19:28:18.521Z</time>
      </trkpt>
      <trkpt lat="50.61906" lon="3.39297">
        <ele>24.484868</ele>
        <time>2020-08-16T19:28:25.919Z</time>
      </trkpt>
      <trkpt lat="50.61785" lon="3.39326">
        <ele>24.465942</ele>
        <time>2020-08-16T19:28:44.327Z</time>
      </trkpt>
      <trkpt lat="50.61688" lon="3.39335">
        <ele>23.738538</ele>
        <time>2020-08-16T19:29:02.144Z</time>
      </trkpt>
      <trkpt lat="50.61654" lon="3.39345">
        <ele>23.485607</ele>
        <time>2020-08-16T19:29:08.006Z</time>
      </trkpt>
      <trkpt lat="50.61536" lon="3.39377">
        <ele>22.291802</ele>
        <time>2020-08-16T19:29:28.135Z</time>
      </trkpt>
      <trkpt lat="50.61499" lon="3.39336">
        <ele>21.804523</ele>
        <time>2020-08-16T19:29:35.870Z</time>
      </trkpt>
      <trkpt lat="50.61494" lon="3.39329">
        <ele>21.729272</ele>
        <time>2020-08-16T19:29:36.981Z</time>
      </trkpt>
      <trkpt lat="50.61475" lon="3.394">
        <ele>21.259284</ele>
        <time>2020-08-16T19:29:43.173Z</time>
      </trkpt>
      <trkpt lat="50.61463" lon="3.39446">
        <ele>21.146405</ele>
        <time>2020-08-16T19:29:47.196Z</time>
      </trkpt>
      <trkpt lat="50.61451" lon="3.39492">
        <ele>21.033392</ele>
        <time>2020-08-16T19:29:51.441Z</time>
      </trkpt>
      <trkpt lat="50.61428" lon="3.39577">
        <ele>20.822748</ele>
        <time>2020-08-16T19:29:59.932Z</time>
      </trkpt>
      <trkpt lat="50.61425" lon="3.39587">
        <ele>20.799154</ele>
        <time>2020-08-16T19:30:00.933Z</time>
      </trkpt>
      <trkpt lat="50.61417" lon="3.39616">
        <ele>20.72572</ele>
        <time>2020-08-16T19:30:03.928Z</time>
      </trkpt>
      <trkpt lat="50.61409" lon="3.39644">
        <ele>20.658427</ele>
        <time>2020-08-16T19:30:06.634Z</time>
      </trkpt>
      <trkpt lat="50.614" lon="3.3968">
        <ele>20.61781</ele>
        <time>2020-08-16T19:30:10.074Z</time>
      </trkpt>
      <trkpt lat="50.61392" lon="3.3971">
        <ele>20.589089</ele>
        <time>2020-08-16T19:30:13.044Z</time>
      </trkpt>
      <trkpt lat="50.61347" lon="3.39881">
        <ele>20.429544</ele>
        <time>2020-08-16T19:30:29.561Z</time>
      </trkpt>
      <trkpt lat="50.6129" lon="3.401">
        <ele>20.842661</ele>
        <time>2020-08-16T19:30:53.173Z</time>
      </trkpt>
      <trkpt lat="50.61283" lon="3.40126">
        <ele>20.904118</ele>
        <time>2020-08-16T19:30:56.099Z</time>
      </trkpt>
      <trkpt lat="50.61249" lon="3.40252">
        <ele>21.419829</ele>
        <time>2020-08-16T19:31:11.964Z</time>
      </trkpt>
      <trkpt lat="50.61248" lon="3.40255">
        <ele>21.432368</ele>
        <time>2020-08-16T19:31:12.383Z</time>
      </trkpt>
      <trkpt lat="50.61245" lon="3.40259">
        <ele>21.464391</ele>
        <time>2020-08-16T19:31:13.075Z</time>
      </trkpt>
      <trkpt lat="50.61227" lon="3.40262">
        <ele>21.601252</ele>
        <time>2020-08-16T19:31:16.869Z</time>
      </trkpt>
      <trkpt lat="50.61217" lon="3.40256">
        <ele>21.675985</ele>
        <time>2020-08-16T19:31:18.750Z</time>
      </trkpt>
      <trkpt lat="50.61209" lon="3.40238">
        <ele>21.779179</ele>
        <time>2020-08-16T19:31:21.287Z</time>
      </trkpt>
      <trkpt lat="50.61186" lon="3.40189">
        <ele>22.06757</ele>
        <time>2020-08-16T19:31:28.190Z</time>
      </trkpt>
      <trkpt lat="50.6116" lon="3.40136">
        <ele>22.350343</ele>
        <time>2020-08-16T19:31:35.314Z</time>
      </trkpt>
      <trkpt lat="50.61142" lon="3.40102">
        <ele>22.392745</ele>
        <time>2020-08-16T19:31:39.819Z</time>
      </trkpt>
      <trkpt lat="50.61137" lon="3.40091">
        <ele>22.406616</ele>
        <time>2020-08-16T19:31:41.510Z</time>
      </trkpt>
      <trkpt lat="50.61131" lon="3.40081">
        <ele>22.420018</ele>
        <time>2020-08-16T19:31:42.834Z</time>
      </trkpt>
      <trkpt lat="50.61129" lon="3.40077">
        <ele>22.424978</ele>
        <time>2020-08-16T19:31:43.347Z</time>
      </trkpt>
      <trkpt lat="50.61125" lon="3.40071">
        <ele>22.432987</ele>
        <time>2020-08-16T19:31:44.179Z</time>
      </trkpt>
      <trkpt lat="50.61118" lon="3.40057">
        <ele>22.450809</ele>
        <time>2020-08-16T19:31:46.066Z</time>
      </trkpt>
      <trkpt lat="50.61111" lon="3.40044">
        <ele>22.466311</ele>
        <time>2020-08-16T19:31:47.844Z</time>
      </trkpt>
      <trkpt lat="50.6109" lon="3.40003">
        <ele>22.517532</ele>
        <time>2020-08-16T19:31:53.326Z</time>
      </trkpt>
      <trkpt lat="50.61078" lon="3.3998">
        <ele>22.546562</ele>
        <time>2020-08-16T19:31:56.133Z</time>
      </trkpt>
      <trkpt lat="50.61043" lon="3.39923">
        <ele>22.605378</ele>
        <time>2020-08-16T19:32:02.982Z</time>
      </trkpt>
      <trkpt lat="50.61038" lon="3.3993">
        <ele>22.586521</ele>
        <time>2020-08-16T19:32:04.186Z</time>
      </trkpt>
      <trkpt lat="50.60988" lon="3.39995">
        <ele>22.407645</ele>
        <time>2020-08-16T19:32:16.047Z</time>
      </trkpt>
      <trkpt lat="50.60949" lon="3.40049">
        <ele>22.262397</ele>
        <time>2020-08-16T19:32:26.414Z</time>
      </trkpt>
      <trkpt lat="50.60943" lon="3.40056">
        <ele>22.2431</ele>
        <time>2020-08-16T19:32:27.734Z</time>
      </trkpt>
      <trkpt lat="50.60884" lon="3.40136">
        <ele>22.068734</ele>
        <time>2020-08-16T19:32:43.429Z</time>
      </trkpt>
      <trkpt lat="50.60884" lon="3.40136">
        <ele>22.068734</ele>
        <time>2020-08-16T19:32:43.454Z</time>
      </trkpt>
      <trkpt lat="50.60858" lon="3.40157">
        <ele>22.025241</ele>
        <time>2020-08-16T19:32:47.782Z</time>
      </trkpt>
      <trkpt lat="50.60735" lon="3.40257">
        <ele>21.815787</ele>
        <time>2020-08-16T19:33:07.221Z</time>
      </trkpt>
      <trkpt lat="50.60729" lon="3.40262">
        <ele>21.803652</ele>
        <time>2020-08-16T19:33:08.208Z</time>
      </trkpt>
      <trkpt lat="50.60722" lon="3.40266">
        <ele>21.792197</ele>
        <time>2020-08-16T19:33:09.187Z</time>
      </trkpt>
      <trkpt lat="50.60657" lon="3.40308">
        <ele>21.675102</ele>
        <time>2020-08-16T19:33:18.853Z</time>
      </trkpt>
      <trkpt lat="50.6065" lon="3.40313">
        <ele>21.662027</ele>
        <time>2020-08-16T19:33:20.030Z</time>
      </trkpt>
      <trkpt lat="50.60644" lon="3.40302">
        <ele>21.646845</ele>
        <time>2020-08-16T19:33:21.336Z</time>
      </trkpt>
      <trkpt lat="50.60637" lon="3.40295">
        <ele>21.633319</ele>
        <time>2020-08-16T19:33:22.494Z</time>
      </trkpt>
      <trkpt lat="50.60633" lon="3.40311">
        <ele>21.61561</ele>
        <time>2020-08-16T19:33:24.040Z</time>
      </trkpt>
      <trkpt lat="50.60621" lon="3.40325">
        <ele>21.590797</ele>
        <time>2020-08-16T19:33:27.034Z</time>
      </trkpt>
      <trkpt lat="50.60518" lon="3.40371">
        <ele>21.647615</ele>
        <time>2020-08-16T19:33:49.250Z</time>
      </trkpt>
      <trkpt lat="50.6051" lon="3.40375">
        <ele>21.656608</ele>
        <time>2020-08-16T19:33:51.016Z</time>
      </trkpt>
      <trkpt lat="50.60441" lon="3.4041">
        <ele>21.739687</ele>
        <time>2020-08-16T19:34:06.660Z</time>
      </trkpt>
      <trkpt lat="50.60399" lon="3.40432">
        <ele>21.521708</ele>
        <time>2020-08-16T19:34:15.245Z</time>
      </trkpt>
      <trkpt lat="50.60391" lon="3.40428">
        <ele>21.459072</ele>
        <time>2020-08-16T19:34:16.679Z</time>
      </trkpt>
      <trkpt lat="50.60372" lon="3.40416">
        <ele>21.291612</ele>
        <time>2020-08-16T19:34:20.646Z</time>
      </trkpt>
      <trkpt lat="50.60337" lon="3.40396">
        <ele>20.990767</ele>
        <time>2020-08-16T19:34:27.349Z</time>
      </trkpt>
      <trkpt lat="50.60333" lon="3.40393">
        <ele>20.956039</ele>
        <time>2020-08-16T19:34:28.103Z</time>
      </trkpt>
      <trkpt lat="50.6033" lon="3.40392">
        <ele>20.934382</ele>
        <time>2020-08-16T19:34:28.572Z</time>
      </trkpt>
      <trkpt lat="50.60305" lon="3.40376">
        <ele>20.719689</ele>
        <time>2020-08-16T19:34:33.143Z</time>
      </trkpt>
      <trkpt lat="50.60287" lon="3.40368">
        <ele>20.569641</ele>
        <time>2020-08-16T19:34:36.289Z</time>
      </trkpt>
      <trkpt lat="50.60205" lon="3.40316">
        <ele>20.027159</ele>
        <time>2020-08-16T19:34:50.987Z</time>
      </trkpt>
      <trkpt lat="50.602" lon="3.40311">
        <ele>19.995001</ele>
        <time>2020-08-16T19:34:52.092Z</time>
      </trkpt>
      <trkpt lat="50.60192" lon="3.40302">
        <ele>19.94908</ele>
        <time>2020-08-16T19:34:53.796Z</time>
      </trkpt>
      <trkpt lat="50.60179" lon="3.40292">
        <ele>19.876867</ele>
        <time>2020-08-16T19:34:56.260Z</time>
      </trkpt>
      <trkpt lat="50.60148" lon="3.40251">
        <ele>19.67149</ele>
        <time>2020-08-16T19:35:04.105Z</time>
      </trkpt>
      <trkpt lat="50.60116" lon="3.40206">
        <ele>19.455719</ele>
        <time>2020-08-16T19:35:13.558Z</time>
      </trkpt>
      <trkpt lat="50.60113" lon="3.402">
        <ele>19.430519</ele>
        <time>2020-08-16T19:35:14.818Z</time>
      </trkpt>
      <trkpt lat="50.60096" lon="3.40176">
        <ele>19.589416</ele>
        <time>2020-08-16T19:35:19.704Z</time>
      </trkpt>
      <trkpt lat="50.60088" lon="3.40163">
        <ele>19.699386</ele>
        <time>2020-08-16T19:35:22.448Z</time>
      </trkpt>
      <trkpt lat="50.60085" lon="3.40155">
        <ele>19.759084</ele>
        <time>2020-08-16T19:35:23.751Z</time>
      </trkpt>
      <trkpt lat="50.60082" lon="3.40144">
        <ele>19.832597</ele>
        <time>2020-08-16T19:35:25.181Z</time>
      </trkpt>
      <trkpt lat="50.60076" lon="3.40134">
        <ele>19.922927</ele>
        <time>2020-08-16T19:35:27.298Z</time>
      </trkpt>
      <trkpt lat="50.60026" lon="3.40058">
        <ele>20.609523</ele>
        <time>2020-08-16T19:35:43.589Z</time>
      </trkpt>
      <trkpt lat="50.60015" lon="3.40039">
        <ele>20.779615</ele>
        <time>2020-08-16T19:35:48.227Z</time>
      </trkpt>
      <trkpt lat="50.60023" lon="3.40039">
        <ele>20.864219</ele>
        <time>2020-08-16T19:35:50.043Z</time>
      </trkpt>
      <trkpt lat="50.60049" lon="3.40036">
        <ele>21.120543</ele>
        <time>2020-08-16T19:35:57.294Z</time>
      </trkpt>
      <trkpt lat="50.60071" lon="3.4001">
        <ele>21.53653</ele>
        <time>2020-08-16T19:36:04.659Z</time>
      </trkpt>
      <trkpt lat="50.60096" lon="3.39988">
        <ele>22.033616</ele>
        <time>2020-08-16T19:36:12.445Z</time>
      </trkpt>
      <trkpt lat="50.60147" lon="3.39943">
        <ele>23.035843</ele>
        <time>2020-08-16T19:36:28.694Z</time>
      </trkpt>
      <trkpt lat="50.60157" lon="3.39939">
        <ele>23.224937</ele>
        <time>2020-08-16T19:36:31.415Z</time>
      </trkpt>
      <trkpt lat="50.60127" lon="3.39872">
        <ele>24.128473</ele>
        <time>2020-08-16T19:36:42.663Z</time>
      </trkpt>
      <trkpt lat="50.60094" lon="3.398">
        <ele>24.932227</ele>
        <time>2020-08-16T19:36:55.060Z</time>
      </trkpt>
      <trkpt lat="50.6008" lon="3.39824">
        <ele>25.218661</ele>
        <time>2020-08-16T19:36:59.612Z</time>
      </trkpt>
      <trkpt lat="50.60077" lon="3.39829">
        <ele>25.275187</ele>
        <time>2020-08-16T19:37:00.537Z</time>
      </trkpt>
      <trkpt lat="50.6007" lon="3.39845">
        <ele>25.446307</ele>
        <time>2020-08-16T19:37:03.411Z</time>
      </trkpt>
      <trkpt lat="50.60066" lon="3.39849">
        <ele>25.515874</ele>
        <time>2020-08-16T19:37:04.553Z</time>
      </trkpt>
      <trkpt lat="50.60061" lon="3.3985">
        <ele>25.583067</ele>
        <time>2020-08-16T19:37:05.596Z</time>
      </trkpt>
      <trkpt lat="50.60055" lon="3.39851">
        <ele>25.664428</ele>
        <time>2020-08-16T19:37:06.867Z</time>
      </trkpt>
      <trkpt lat="50.60051" lon="3.39847">
        <ele>25.726535</ele>
        <time>2020-08-16T19:37:07.770Z</time>
      </trkpt>
      <trkpt lat="50.60047" lon="3.39842">
        <ele>25.803067</ele>
        <time>2020-08-16T19:37:08.946Z</time>
      </trkpt>
      <trkpt lat="50.6004" lon="3.39841">
        <ele>25.898991</ele>
        <time>2020-08-16T19:37:10.512Z</time>
      </trkpt>
      <trkpt lat="50.60031" lon="3.39848">
        <ele>26.032255</ele>
        <time>2020-08-16T19:37:12.488Z</time>
      </trkpt>
      <trkpt lat="50.60028" lon="3.39852">
        <ele>26.089857</ele>
        <time>2020-08-16T19:37:13.252Z</time>
      </trkpt>
      <trkpt lat="50.60022" lon="3.39892">
        <ele>26.442579</ele>
        <time>2020-08-16T19:37:18.210Z</time>
      </trkpt>
      <trkpt lat="50.60018" lon="3.399">
        <ele>26.529244</ele>
        <time>2020-08-16T19:37:19.340Z</time>
      </trkpt>
      <trkpt lat="50.60011" lon="3.39917">
        <ele>26.706844</ele>
        <time>2020-08-16T19:37:21.446Z</time>
      </trkpt>
      <trkpt lat="50.59998" lon="3.39939">
        <ele>26.899239</ele>
        <time>2020-08-16T19:37:24.656Z</time>
      </trkpt>
      <trkpt lat="50.59981" lon="3.39944">
        <ele>27.062396</ele>
        <time>2020-08-16T19:37:27.158Z</time>
      </trkpt>
      <trkpt lat="50.59969" lon="3.3996">
        <ele>27.2102</ele>
        <time>2020-08-16T19:37:29.678Z</time>
      </trkpt>
      <trkpt lat="50.59965" lon="3.39974">
        <ele>27.294494</ele>
        <time>2020-08-16T19:37:31.249Z</time>
      </trkpt>
      <trkpt lat="50.59964" lon="3.39984">
        <ele>27.351974</ele>
        <time>2020-08-16T19:37:32.328Z</time>
      </trkpt>
      <trkpt lat="50.59964" lon="3.39987">
        <ele>27.370751</ele>
        <time>2020-08-16T19:37:32.636Z</time>
      </trkpt>
      <trkpt lat="50.59965" lon="3.39993">
        <ele>27.408081</ele>
        <time>2020-08-16T19:37:33.266Z</time>
      </trkpt>
      <trkpt lat="50.59962" lon="3.40003">
        <ele>27.472162</ele>
        <time>2020-08-16T19:37:34.583Z</time>
      </trkpt>
      <trkpt lat="50.5995" lon="3.40025">
        <ele>27.636706</ele>
        <time>2020-08-16T19:37:37.985Z</time>
      </trkpt>
      <trkpt lat="50.5994" lon="3.40035">
        <ele>27.744766</ele>
        <time>2020-08-16T19:37:39.972Z</time>
      </trkpt>
      <trkpt lat="50.59918" lon="3.40052">
        <ele>27.974626</ele>
        <time>2020-08-16T19:37:44.882Z</time>
      </trkpt>
      <trkpt lat="50.59897" lon="3.4007">
        <ele>28.187612</ele>
        <time>2020-08-16T19:37:49.321Z</time>
      </trkpt>
      <trkpt lat="50.59878" lon="3.40087">
        <ele>28.389266</ele>
        <time>2020-08-16T19:37:53.761Z</time>
      </trkpt>
      <trkpt lat="50.59863" lon="3.401">
        <ele>28.653752</ele>
        <time>2020-08-16T19:37:57.430Z</time>
      </trkpt>
      <trkpt lat="50.59829" lon="3.40128">
        <ele>29.267883</ele>
        <time>2020-08-16T19:38:06.340Z</time>
      </trkpt>
      <trkpt lat="50.59792" lon="3.4014">
        <ele>29.860677</ele>
        <time>2020-08-16T19:38:14.819Z</time>
      </trkpt>
      <trkpt lat="50.5972" lon="3.40116">
        <ele>31.047507</ele>
        <time>2020-08-16T19:38:30.673Z</time>
      </trkpt>
      <trkpt lat="50.59708" lon="3.40111">
        <ele>31.246025</ele>
        <time>2020-08-16T19:38:33.911Z</time>
      </trkpt>
      <trkpt lat="50.59641" lon="3.40087">
        <ele>31.183017</ele>
        <time>2020-08-16T19:38:45.872Z</time>
      </trkpt>
      <trkpt lat="50.59558" lon="3.40056">
        <ele>31.052364</ele>
        <time>2020-08-16T19:38:57.032Z</time>
      </trkpt>
      <trkpt lat="50.59468" lon="3.40023">
        <ele>30.22252</ele>
        <time>2020-08-16T19:39:07.648Z</time>
      </trkpt>
      <trkpt lat="50.59453" lon="3.4002">
        <ele>30.031653</ele>
        <time>2020-08-16T19:39:09.422Z</time>
      </trkpt>
      <trkpt lat="50.59439" lon="3.40021">
        <ele>29.868979</ele>
        <time>2020-08-16T19:39:10.991Z</time>
      </trkpt>
      <trkpt lat="50.59412" lon="3.40033">
        <ele>29.513608</ele>
        <time>2020-08-16T19:39:14.431Z</time>
      </trkpt>
      <trkpt lat="50.59325" lon="3.40082">
        <ele>28.457631</ele>
        <time>2020-08-16T19:39:25.560Z</time>
      </trkpt>
      <trkpt lat="50.5927" lon="3.39976">
        <ele>27.578134</ele>
        <time>2020-08-16T19:39:36.396Z</time>
      </trkpt>
      <trkpt lat="50.5926" lon="3.39937">
        <ele>27.306972</ele>
        <time>2020-08-16T19:39:39.663Z</time>
      </trkpt>
      <trkpt lat="50.59258" lon="3.39912">
        <ele>27.139275</ele>
        <time>2020-08-16T19:39:41.658Z</time>
      </trkpt>
      <trkpt lat="50.59257" lon="3.39785">
        <ele>26.079656</ele>
        <time>2020-08-16T19:39:51.185Z</time>
      </trkpt>
      <trkpt lat="50.59253" lon="3.39719">
        <ele>25.497202</ele>
        <time>2020-08-16T19:39:56.044Z</time>
      </trkpt>
      <trkpt lat="50.59252" lon="3.39702">
        <ele>25.344678</ele>
        <time>2020-08-16T19:39:57.281Z</time>
      </trkpt>
      <trkpt lat="50.59247" lon="3.39668">
        <ele>25.038745</ele>
        <time>2020-08-16T19:39:59.810Z</time>
      </trkpt>
      <trkpt lat="50.59241" lon="3.39639">
        <ele>24.768522</ele>
        <time>2020-08-16T19:40:01.974Z</time>
      </trkpt>
      <trkpt lat="50.59231" lon="3.39616">
        <ele>24.526922</ele>
        <time>2020-08-16T19:40:03.942Z</time>
      </trkpt>
      <trkpt lat="50.5919" lon="3.39556">
        <ele>24.23361</ele>
        <time>2020-08-16T19:40:10.590Z</time>
      </trkpt>
      <trkpt lat="50.59112" lon="3.39483">
        <ele>23.81433</ele>
        <time>2020-08-16T19:40:22.878Z</time>
      </trkpt>
      <trkpt lat="50.59078" lon="3.3945">
        <ele>23.673861</ele>
        <time>2020-08-16T19:40:29.112Z</time>
      </trkpt>
      <trkpt lat="50.58946" lon="3.39333">
        <ele>25.41743</ele>
        <time>2020-08-16T19:40:58.860Z</time>
      </trkpt>
      <trkpt lat="50.58904" lon="3.39309">
        <ele>26.075988</ele>
        <time>2020-08-16T19:41:08.323Z</time>
      </trkpt>
      <trkpt lat="50.58887" lon="3.39326">
        <ele>26.460216</ele>
        <time>2020-08-16T19:41:12.672Z</time>
      </trkpt>
      <trkpt lat="50.58668" lon="3.3946">
        <ele>31.355242</ele>
        <time>2020-08-16T19:42:06.840Z</time>
      </trkpt>
      <trkpt lat="50.58533" lon="3.39506">
        <ele>34.792766</ele>
        <time>2020-08-16T19:42:41.760Z</time>
      </trkpt>
      <trkpt lat="50.58484" lon="3.39527">
        <ele>36.212565</ele>
        <time>2020-08-16T19:42:55.015Z</time>
      </trkpt>
      <trkpt lat="50.58438" lon="3.3954">
        <ele>37.505394</ele>
        <time>2020-08-16T19:43:07.041Z</time>
      </trkpt>
      <trkpt lat="50.58257" lon="3.39525">
        <ele>43.033384</ele>
        <time>2020-08-16T19:43:55.669Z</time>
      </trkpt>
      <trkpt lat="50.58256" lon="3.39525">
        <ele>43.092662</ele>
        <time>2020-08-16T19:43:56.850Z</time>
      </trkpt>
      <trkpt lat="50.57987" lon="3.39506">
        <ele>51.952452</ele>
        <time>2020-08-16T19:45:11.071Z</time>
      </trkpt>
      <trkpt lat="50.57978" lon="3.39506">
        <ele>52.269147</ele>
        <time>2020-08-16T19:45:13.557Z</time>
      </trkpt>
      <trkpt lat="50.57849" lon="3.39497">
        <ele>56.805713</ele>
        <time>2020-08-16T19:45:52.776Z</time>
      </trkpt>
      <trkpt lat="50.57822" lon="3.39482">
        <ele>57.691132</ele>
        <time>2020-08-16T19:46:01.506Z</time>
      </trkpt>
      <trkpt lat="50.57736" lon="3.39415">
        <ele>60.65739</ele>
        <time>2020-08-16T19:46:28.148Z</time>
      </trkpt>
      <trkpt lat="50.57696" lon="3.39395">
        <ele>61.785279</ele>
        <time>2020-08-16T19:46:37.902Z</time>
      </trkpt>
      <trkpt lat="50.57647" lon="3.39385">
        <ele>62.199135</ele>
        <time>2020-08-16T19:46:48.460Z</time>
      </trkpt>
      <trkpt lat="50.57541" lon="3.39409">
        <ele>63.099788</ele>
        <time>2020-08-16T19:47:06.586Z</time>
      </trkpt>
      <trkpt lat="50.57506" lon="3.39426">
        <ele>63.094771</ele>
        <time>2020-08-16T19:47:11.736Z</time>
      </trkpt>
      <trkpt lat="50.57486" lon="3.39435">
        <ele>62.946921</ele>
        <time>2020-08-16T19:47:14.394Z</time>
      </trkpt>
      <trkpt lat="50.57308" lon="3.39461">
        <ele>61.625581</ele>
        <time>2020-08-16T19:47:36.409Z</time>
      </trkpt>
      <trkpt lat="50.57273" lon="3.39465">
        <ele>61.339831</ele>
        <time>2020-08-16T19:47:40.824Z</time>
      </trkpt>
      <trkpt lat="50.57268" lon="3.39464">
        <ele>61.297228</ele>
        <time>2020-08-16T19:47:41.459Z</time>
      </trkpt>
      <trkpt lat="50.57131" lon="3.39439">
        <ele>60.296134</ele>
        <time>2020-08-16T19:47:58.890Z</time>
      </trkpt>
      <trkpt lat="50.57021" lon="3.39385">
        <ele>59.682392</ele>
        <time>2020-08-16T19:48:14.354Z</time>
      </trkpt>
      <trkpt lat="50.56984" lon="3.39373">
        <ele>59.464131</ele>
        <time>2020-08-16T19:48:19.511Z</time>
      </trkpt>
      <trkpt lat="50.56864" lon="3.39359">
        <ele>58.669998</ele>
        <time>2020-08-16T19:48:35.155Z</time>
      </trkpt>
      <trkpt lat="50.56801" lon="3.39345">
        <ele>58.147429</ele>
        <time>2020-08-16T19:48:43.177Z</time>
      </trkpt>
      <trkpt lat="50.56771" lon="3.39336">
        <ele>57.737717</ele>
        <time>2020-08-16T19:48:46.881Z</time>
      </trkpt>
      <trkpt lat="50.56646" lon="3.39303">
        <ele>56.028872</ele>
        <time>2020-08-16T19:49:01.570Z</time>
      </trkpt>
      <trkpt lat="50.56572" lon="3.39286">
        <ele>54.794675</ele>
        <time>2020-08-16T19:49:10.026Z</time>
      </trkpt>
      <trkpt lat="50.56528" lon="3.39276">
        <ele>54.058531</ele>
        <time>2020-08-16T19:49:14.965Z</time>
      </trkpt>
      <trkpt lat="50.56464" lon="3.39256">
        <ele>52.96486</ele>
        <time>2020-08-16T19:49:22.290Z</time>
      </trkpt>
      <trkpt lat="50.56122" lon="3.39126">
        <ele>47.423112</ele>
        <time>2020-08-16T19:50:02.697Z</time>
      </trkpt>
      <trkpt lat="50.56036" lon="3.39106">
        <ele>45.935912</ele>
        <time>2020-08-16T19:50:12.473Z</time>
      </trkpt>
      <trkpt lat="50.55959" lon="3.39088">
        <ele>44.616412</ele>
        <time>2020-08-16T19:50:21.151Z</time>
      </trkpt>
      <trkpt lat="50.55904" lon="3.39075">
        <ele>43.679145</ele>
        <time>2020-08-16T19:50:27.431Z</time>
      </trkpt>
      <trkpt lat="50.55849" lon="3.39063">
        <ele>42.741669</ele>
        <time>2020-08-16T19:50:33.826Z</time>
      </trkpt>
      <trkpt lat="50.55742" lon="3.39038">
        <ele>40.943901</ele>
        <time>2020-08-16T19:50:46.093Z</time>
      </trkpt>
      <trkpt lat="50.55567" lon="3.38999">
        <ele>37.903259</ele>
        <time>2020-08-16T19:51:05.909Z</time>
      </trkpt>
      <trkpt lat="50.5537" lon="3.39003">
        <ele>35.187489</ele>
        <time>2020-08-16T19:51:28.771Z</time>
      </trkpt>
      <trkpt lat="50.55359" lon="3.39002">
        <ele>35.084407</ele>
        <time>2020-08-16T19:51:30.099Z</time>
      </trkpt>
      <trkpt lat="50.55349" lon="3.38997">
        <ele>34.986064</ele>
        <time>2020-08-16T19:51:31.373Z</time>
      </trkpt>
      <trkpt lat="50.55343" lon="3.38997">
        <ele>34.929496</ele>
        <time>2020-08-16T19:51:32.120Z</time>
      </trkpt>
      <trkpt lat="50.55355" lon="3.38973">
        <ele>34.750273</ele>
        <time>2020-08-16T19:51:34.535Z</time>
      </trkpt>
      <trkpt lat="50.55345" lon="3.38963">
        <ele>34.644821</ele>
        <time>2020-08-16T19:51:36.481Z</time>
      </trkpt>
      <trkpt lat="50.55291" lon="3.38926">
        <ele>34.094671</ele>
        <time>2020-08-16T19:51:47.056Z</time>
      </trkpt>
      <trkpt lat="50.55212" lon="3.38853">
        <ele>33.359388</ele>
        <time>2020-08-16T19:52:03.812Z</time>
      </trkpt>
      <trkpt lat="50.55128" lon="3.38703">
        <ele>32.42481</ele>
        <time>2020-08-16T19:52:26.631Z</time>
      </trkpt>
      <trkpt lat="50.55116" lon="3.38691">
        <ele>32.286229</ele>
        <time>2020-08-16T19:52:29.120Z</time>
      </trkpt>
      <trkpt lat="50.55104" lon="3.38687">
        <ele>32.16452</ele>
        <time>2020-08-16T19:52:31.363Z</time>
      </trkpt>
      <trkpt lat="50.55064" lon="3.38684">
        <ele>31.771384</ele>
        <time>2020-08-16T19:52:38.203Z</time>
      </trkpt>
      <trkpt lat="50.54997" lon="3.38664">
        <ele>31.102419</ele>
        <time>2020-08-16T19:52:49.896Z</time>
      </trkpt>
      <trkpt lat="50.54991" lon="3.38664">
        <ele>31.039177</ele>
        <time>2020-08-16T19:52:50.907Z</time>
      </trkpt>
      <trkpt lat="50.54983" lon="3.38663">
        <ele>30.960105</ele>
        <time>2020-08-16T19:52:52.250Z</time>
      </trkpt>
      <trkpt lat="50.54932" lon="3.38656">
        <ele>30.625953</ele>
        <time>2020-08-16T19:53:01.238Z</time>
      </trkpt>
      <trkpt lat="50.54912" lon="3.38653">
        <ele>30.569546</ele>
        <time>2020-08-16T19:53:04.709Z</time>
      </trkpt>
      <trkpt lat="50.54892" lon="3.38649">
        <ele>30.511085</ele>
        <time>2020-08-16T19:53:08.735Z</time>
      </trkpt>
      <trkpt lat="50.54893" lon="3.38623">
        <ele>30.465294</ele>
        <time>2020-08-16T19:53:11.662Z</time>
      </trkpt>
      <trkpt lat="50.54898" lon="3.38516">
        <ele>30.274374</ele>
        <time>2020-08-16T19:53:25.194Z</time>
      </trkpt>
      <trkpt lat="50.549" lon="3.3843">
        <ele>30.326464</ele>
        <time>2020-08-16T19:53:37.159Z</time>
      </trkpt>
      <trkpt lat="50.54902" lon="3.38388">
        <ele>30.479647</ele>
        <time>2020-08-16T19:53:43.211Z</time>
      </trkpt>
      <trkpt lat="50.54927" lon="3.38292">
        <ele>30.862194</ele>
        <time>2020-08-16T19:53:58.538Z</time>
      </trkpt>
      <trkpt lat="50.54935" lon="3.38234">
        <ele>31.077073</ele>
        <time>2020-08-16T19:54:07.146Z</time>
      </trkpt>
      <trkpt lat="50.54937" lon="3.38218">
        <ele>31.137867</ele>
        <time>2020-08-16T19:54:09.773Z</time>
      </trkpt>
      <trkpt lat="50.54946" lon="3.38123">
        <ele>31.372535</ele>
        <time>2020-08-16T19:54:23.251Z</time>
      </trkpt>
      <trkpt lat="50.54946" lon="3.38062">
        <ele>31.495963</ele>
        <time>2020-08-16T19:54:31.743Z</time>
      </trkpt>
      <trkpt lat="50.54937" lon="3.38008">
        <ele>31.609348</ele>
        <time>2020-08-16T19:54:39.376Z</time>
      </trkpt>
      <trkpt lat="50.54911" lon="3.37924">
        <ele>31.800795</ele>
        <time>2020-08-16T19:54:51.782Z</time>
      </trkpt>
      <trkpt lat="50.54902" lon="3.37898">
        <ele>31.879642</ele>
        <time>2020-08-16T19:54:55.549Z</time>
      </trkpt>
      <trkpt lat="50.54905" lon="3.37881">
        <ele>31.929372</ele>
        <time>2020-08-16T19:54:57.955Z</time>
      </trkpt>
      <trkpt lat="50.54921" lon="3.37832">
        <ele>32.076198</ele>
        <time>2020-08-16T19:55:04.945Z</time>
      </trkpt>
      <trkpt lat="50.54939" lon="3.37777">
        <ele>32.243361</ele>
        <time>2020-08-16T19:55:13.374Z</time>
      </trkpt>
      <trkpt lat="50.5494" lon="3.37746">
        <ele>32.32684</ele>
        <time>2020-08-16T19:55:17.510Z</time>
      </trkpt>
      <trkpt lat="50.54935" lon="3.37706">
        <ele>32.435895</ele>
        <time>2020-08-16T19:55:23.631Z</time>
      </trkpt>
      <trkpt lat="50.54942" lon="3.37659">
        <ele>32.567793</ele>
        <time>2020-08-16T19:55:30.916Z</time>
      </trkpt>
      <trkpt lat="50.54951" lon="3.37642">
        <ele>32.800368</ele>
        <time>2020-08-16T19:55:34.149Z</time>
      </trkpt>
      <trkpt lat="50.5491" lon="3.37578">
        <ele>33.767065</ele>
        <time>2020-08-16T19:55:48.757Z</time>
      </trkpt>
      <trkpt lat="50.54887" lon="3.37551">
        <ele>34.241123</ele>
        <time>2020-08-16T19:55:56.462Z</time>
      </trkpt>
      <trkpt lat="50.54875" lon="3.37542">
        <ele>34.464319</ele>
        <time>2020-08-16T19:56:00.380Z</time>
      </trkpt>
      <trkpt lat="50.54876" lon="3.37525">
        <ele>34.650725</ele>
        <time>2020-08-16T19:56:02.949Z</time>
      </trkpt>
      <trkpt lat="50.54871" lon="3.37486">
        <ele>35.073849</ele>
        <time>2020-08-16T19:56:08.912Z</time>
      </trkpt>
      <trkpt lat="50.54848" lon="3.37387">
        <ele>36.147029</ele>
        <time>2020-08-16T19:56:24.966Z</time>
      </trkpt>
      <trkpt lat="50.54845" lon="3.37372">
        <ele>36.301244</ele>
        <time>2020-08-16T19:56:27.625Z</time>
      </trkpt>
      <trkpt lat="50.54822" lon="3.37263">
        <ele>37.425775</ele>
        <time>2020-08-16T19:56:44.178Z</time>
      </trkpt>
      <trkpt lat="50.54805" lon="3.37182">
        <ele>38.273159</ele>
        <time>2020-08-16T19:56:54.613Z</time>
      </trkpt>
      <trkpt lat="50.54763" lon="3.37012">
        <ele>37.674752</ele>
        <time>2020-08-16T19:57:10.140Z</time>
      </trkpt>
      <trkpt lat="50.5476" lon="3.36985">
        <ele>37.570446</ele>
        <time>2020-08-16T19:57:12.001Z</time>
      </trkpt>
      <trkpt lat="50.54755" lon="3.36918">
        <ele>37.305855</ele>
        <time>2020-08-16T19:57:17.246Z</time>
      </trkpt>
      <trkpt lat="50.54753" lon="3.36816">
        <ele>36.982187</ele>
        <time>2020-08-16T19:57:24.820Z</time>
      </trkpt>
      <trkpt lat="50.54752" lon="3.36795">
        <ele>36.917167</ele>
        <time>2020-08-16T19:57:26.720Z</time>
      </trkpt>
      <trkpt lat="50.5475" lon="3.36749">
        <ele>36.772282</ele>
        <time>2020-08-16T19:57:30.269Z</time>
      </trkpt>
      <trkpt lat="50.54738" lon="3.36717">
        <ele>36.660811</ele>
        <time>2020-08-16T19:57:33.329Z</time>
      </trkpt>
      <trkpt lat="50.54734" lon="3.36706">
        <ele>36.621184</ele>
        <time>2020-08-16T19:57:34.827Z</time>
      </trkpt>
      <trkpt lat="50.54735" lon="3.36696">
        <ele>36.590364</ele>
        <time>2020-08-16T19:57:36.039Z</time>
      </trkpt>
      <trkpt lat="50.54743" lon="3.36657">
        <ele>36.464661</ele>
        <time>2020-08-16T19:57:39.746Z</time>
      </trkpt>
      <trkpt lat="50.54787" lon="3.36512">
        <ele>36.983221</ele>
        <time>2020-08-16T19:57:58.459Z</time>
      </trkpt>
      <trkpt lat="50.54791" lon="3.365">
        <ele>37.040297</ele>
        <time>2020-08-16T19:58:00.149Z</time>
      </trkpt>
      <trkpt lat="50.54792" lon="3.36496">
        <ele>37.062234</ele>
        <time>2020-08-16T19:58:01.137Z</time>
      </trkpt>
      <trkpt lat="50.54807" lon="3.36439">
        <ele>37.34005</ele>
        <time>2020-08-16T19:58:10.267Z</time>
      </trkpt>
      <trkpt lat="50.54821" lon="3.36349">
        <ele>37.699762</ele>
        <time>2020-08-16T19:58:23.491Z</time>
      </trkpt>
      <trkpt lat="50.54851" lon="3.36033">
        <ele>38.35892</ele>
        <time>2020-08-16T19:59:06.304Z</time>
      </trkpt>
      <trkpt lat="50.54867" lon="3.35956">
        <ele>38.659699</ele>
        <time>2020-08-16T19:59:17.489Z</time>
      </trkpt>
      <trkpt lat="50.54903" lon="3.35874">
        <ele>39.028557</ele>
        <time>2020-08-16T19:59:31.717Z</time>
      </trkpt>
      <trkpt lat="50.55006" lon="3.35719">
        <ele>41.215354</ele>
        <time>2020-08-16T20:00:08.215Z</time>
      </trkpt>
      <trkpt lat="50.55019" lon="3.35694">
        <ele>41.576512</ele>
        <time>2020-08-16T20:00:13.908Z</time>
      </trkpt>
      <trkpt lat="50.55141" lon="3.3542">
        <ele>47.501111</ele>
        <time>2020-08-16T20:01:21.143Z</time>
      </trkpt>
      <trkpt lat="50.55146" lon="3.35411">
        <ele>47.741706</ele>
        <time>2020-08-16T20:01:24.423Z</time>
      </trkpt>
      <trkpt lat="50.55189" lon="3.35315">
        <ele>50.877323</ele>
        <time>2020-08-16T20:01:51.792Z</time>
      </trkpt>
      <trkpt lat="50.55251" lon="3.35166">
        <ele>55.694985</ele>
        <time>2020-08-16T20:02:36.750Z</time>
      </trkpt>
      <trkpt lat="50.55263" lon="3.35091">
        <ele>56.928904</ele>
        <time>2020-08-16T20:02:53.079Z</time>
      </trkpt>
      <trkpt lat="50.55264" lon="3.3508">
        <ele>57.103567</ele>
        <time>2020-08-16T20:02:56.226Z</time>
      </trkpt>
      <trkpt lat="50.55266" lon="3.35065">
        <ele>57.340795</ele>
        <time>2020-08-16T20:02:59.078Z</time>
      </trkpt>
      <trkpt lat="50.55296" lon="3.34964">
        <ele>59.117642</ele>
        <time>2020-08-16T20:03:19.543Z</time>
      </trkpt>
      <trkpt lat="50.55305" lon="3.34916">
        <ele>59.931478</ele>
        <time>2020-08-16T20:03:28.031Z</time>
      </trkpt>
      <trkpt lat="50.55311" lon="3.34846">
        <ele>60.14852</ele>
        <time>2020-08-16T20:03:38.522Z</time>
      </trkpt>
      <trkpt lat="50.55307" lon="3.34833">
        <ele>60.153399</ele>
        <time>2020-08-16T20:03:40.134Z</time>
      </trkpt>
      <trkpt lat="50.55297" lon="3.3482">
        <ele>60.160634</ele>
        <time>2020-08-16T20:03:41.972Z</time>
      </trkpt>
      <trkpt lat="50.55228" lon="3.3475">
        <ele>60.204817</ele>
        <time>2020-08-16T20:03:53.236Z</time>
      </trkpt>
      <trkpt lat="50.55224" lon="3.3474">
        <ele>60.20893</ele>
        <time>2020-08-16T20:03:54.231Z</time>
      </trkpt>
      <trkpt lat="50.5522" lon="3.34731">
        <ele>60.212783</ele>
        <time>2020-08-16T20:03:55.138Z</time>
      </trkpt>
      <trkpt lat="50.55133" lon="3.34444">
        <ele>60.023317</ele>
        <time>2020-08-16T20:04:24.431Z</time>
      </trkpt>
      <trkpt lat="50.55127" lon="3.34428">
        <ele>60.012606</ele>
        <time>2020-08-16T20:04:26.208Z</time>
      </trkpt>
      <trkpt lat="50.55116" lon="3.34404">
        <ele>59.995103</ele>
        <time>2020-08-16T20:04:28.995Z</time>
      </trkpt>
      <trkpt lat="50.55092" lon="3.34362">
        <ele>59.962284</ele>
        <time>2020-08-16T20:04:34.122Z</time>
      </trkpt>
      <trkpt lat="50.55072" lon="3.34329">
        <ele>59.936423</ele>
        <time>2020-08-16T20:04:38.272Z</time>
      </trkpt>
      <trkpt lat="50.55062" lon="3.34307">
        <ele>59.920548</ele>
        <time>2020-08-16T20:04:40.699Z</time>
      </trkpt>
      <trkpt lat="50.5503" lon="3.34227">
        <ele>59.865573</ele>
        <time>2020-08-16T20:04:49.515Z</time>
      </trkpt>
      <trkpt lat="50.55018" lon="3.34199">
        <ele>59.863711</ele>
        <time>2020-08-16T20:04:52.620Z</time>
      </trkpt>
      <trkpt lat="50.55015" lon="3.34192">
        <ele>59.866266</ele>
        <time>2020-08-16T20:04:53.253Z</time>
      </trkpt>
      <trkpt lat="50.55013" lon="3.34185">
        <ele>59.868854</ele>
        <time>2020-08-16T20:04:54.067Z</time>
      </trkpt>
      <trkpt lat="50.55008" lon="3.34172">
        <ele>59.873773</ele>
        <time>2020-08-16T20:04:55.379Z</time>
      </trkpt>
      <trkpt lat="50.55002" lon="3.34166">
        <ele>59.877152</ele>
        <time>2020-08-16T20:04:56.330Z</time>
      </trkpt>
      <trkpt lat="50.55002" lon="3.34163">
        <ele>59.878257</ele>
        <time>2020-08-16T20:04:56.672Z</time>
      </trkpt>
      <trkpt lat="50.54999" lon="3.34157">
        <ele>59.88046</ele>
        <time>2020-08-16T20:04:57.329Z</time>
      </trkpt>
      <trkpt lat="50.54998" lon="3.34156">
        <ele>59.881567</ele>
        <time>2020-08-16T20:04:57.683Z</time>
      </trkpt>
      <trkpt lat="50.54995" lon="3.34155">
        <ele>59.882953</ele>
        <time>2020-08-16T20:04:58.045Z</time>
      </trkpt>
      <trkpt lat="50.5499" lon="3.34159">
        <ele>59.885772</ele>
        <time>2020-08-16T20:04:58.842Z</time>
      </trkpt>
      <trkpt lat="50.54988" lon="3.34162">
        <ele>59.887184</ele>
        <time>2020-08-16T20:04:59.299Z</time>
      </trkpt>
      <trkpt lat="50.54981" lon="3.34168">
        <ele>59.891072</ele>
        <time>2020-08-16T20:05:00.371Z</time>
      </trkpt>
      <trkpt lat="50.54971" lon="3.34173">
        <ele>59.896842</ele>
        <time>2020-08-16T20:05:02.015Z</time>
      </trkpt>
      <trkpt lat="50.54967" lon="3.34172">
        <ele>59.89846</ele>
        <time>2020-08-16T20:05:02.516Z</time>
      </trkpt>
      <trkpt lat="50.54965" lon="3.34171">
        <ele>59.899802</ele>
        <time>2020-08-16T20:05:02.936Z</time>
      </trkpt>
      <trkpt lat="50.5496" lon="3.34169">
        <ele>59.902555</ele>
        <time>2020-08-16T20:05:03.641Z</time>
      </trkpt>
      <trkpt lat="50.54945" lon="3.34164">
        <ele>59.909941</ele>
        <time>2020-08-16T20:05:05.969Z</time>
      </trkpt>
      <trkpt lat="50.54935" lon="3.3416">
        <ele>59.915201</ele>
        <time>2020-08-16T20:05:07.580Z</time>
      </trkpt>
      <trkpt lat="50.54931" lon="3.34158">
        <ele>59.917285</ele>
        <time>2020-08-16T20:05:08.231Z</time>
      </trkpt>
      <trkpt lat="50.54928" lon="3.34157">
        <ele>59.918796</ele>
        <time>2020-08-16T20:05:08.666Z</time>
      </trkpt>
      <trkpt lat="50.5492" lon="3.34153">
        <ele>59.923029</ele>
        <time>2020-08-16T20:05:09.931Z</time>
      </trkpt>
      <trkpt lat="50.54906" lon="3.34146">
        <ele>59.930877</ele>
        <time>2020-08-16T20:05:12.420Z</time>
      </trkpt>
      <trkpt lat="50.54883" lon="3.34135">
        <ele>59.942639</ele>
        <time>2020-08-16T20:05:16.123Z</time>
      </trkpt>
      <trkpt lat="50.54866" lon="3.34132">
        <ele>59.931793</ele>
        <time>2020-08-16T20:05:19.016Z</time>
      </trkpt>
      <trkpt lat="50.54853" lon="3.34131">
        <ele>59.897043</ele>
        <time>2020-08-16T20:05:21.077Z</time>
      </trkpt>
      <trkpt lat="50.54846" lon="3.3413">
        <ele>59.877234</ele>
        <time>2020-08-16T20:05:22.320Z</time>
      </trkpt>
      <trkpt lat="50.54823" lon="3.34121">
        <ele>59.809651</ele>
        <time>2020-08-16T20:05:26.074Z</time>
      </trkpt>
      <trkpt lat="50.54787" lon="3.34095">
        <ele>59.70141</ele>
        <time>2020-08-16T20:05:31.933Z</time>
      </trkpt>
      <trkpt lat="50.54764" lon="3.3408">
        <ele>59.632938</ele>
        <time>2020-08-16T20:05:35.450Z</time>
      </trkpt>
      <trkpt lat="50.54735" lon="3.34061">
        <ele>59.543021</ele>
        <time>2020-08-16T20:05:39.783Z</time>
      </trkpt>
      <trkpt lat="50.54703" lon="3.34046">
        <ele>59.45203</ele>
        <time>2020-08-16T20:05:43.840Z</time>
      </trkpt>
      <trkpt lat="50.54677" lon="3.34035">
        <ele>58.999055</ele>
        <time>2020-08-16T20:05:46.970Z</time>
      </trkpt>
      <trkpt lat="50.54592" lon="3.33982">
        <ele>57.380857</ele>
        <time>2020-08-16T20:05:57.517Z</time>
      </trkpt>
      <trkpt lat="50.54577" lon="3.33974">
        <ele>57.100493</ele>
        <time>2020-08-16T20:05:59.217Z</time>
      </trkpt>
      <trkpt lat="50.54539" lon="3.33955">
        <ele>56.413725</ele>
        <time>2020-08-16T20:06:03.395Z</time>
      </trkpt>
      <trkpt lat="50.54468" lon="3.3395">
        <ele>54.683604</ele>
        <time>2020-08-16T20:06:10.934Z</time>
      </trkpt>
      <trkpt lat="50.54378" lon="3.33903">
        <ele>52.32053</ele>
        <time>2020-08-16T20:06:20.963Z</time>
      </trkpt>
      <trkpt lat="50.54317" lon="3.33897">
        <ele>50.820048</ele>
        <time>2020-08-16T20:06:27.402Z</time>
      </trkpt>
      <trkpt lat="50.54255" lon="3.33904">
        <ele>49.334612</ele>
        <time>2020-08-16T20:06:33.870Z</time>
      </trkpt>
      <trkpt lat="50.5423" lon="3.339">
        <ele>48.71267</ele>
        <time>2020-08-16T20:06:36.574Z</time>
      </trkpt>
      <trkpt lat="50.54197" lon="3.33895">
        <ele>47.918854</ele>
        <time>2020-08-16T20:06:40.131Z</time>
      </trkpt>
      <trkpt lat="50.54181" lon="3.33892">
        <ele>47.540202</ele>
        <time>2020-08-16T20:06:41.892Z</time>
      </trkpt>
      <trkpt lat="50.54159" lon="3.33895">
        <ele>47.154488</ele>
        <time>2020-08-16T20:06:44.280Z</time>
      </trkpt>
      <trkpt lat="50.54114" lon="3.33916">
        <ele>46.386859</ele>
        <time>2020-08-16T20:06:49.571Z</time>
      </trkpt>
      <trkpt lat="50.54086" lon="3.33918">
        <ele>45.935777</ele>
        <time>2020-08-16T20:06:52.652Z</time>
      </trkpt>
      <trkpt lat="50.54032" lon="3.33897">
        <ele>45.043919</ele>
        <time>2020-08-16T20:06:59.198Z</time>
      </trkpt>
      <trkpt lat="50.54024" lon="3.33894">
        <ele>44.903655</ele>
        <time>2020-08-16T20:07:00.202Z</time>
      </trkpt>
      <trkpt lat="50.54006" lon="3.33886">
        <ele>44.608034</ele>
        <time>2020-08-16T20:07:02.425Z</time>
      </trkpt>
      <trkpt lat="50.53988" lon="3.33879">
        <ele>44.482132</ele>
        <time>2020-08-16T20:07:04.659Z</time>
      </trkpt>
      <trkpt lat="50.53923" lon="3.33842">
        <ele>44.142601</ele>
        <time>2020-08-16T20:07:13.251Z</time>
      </trkpt>
      <trkpt lat="50.53898" lon="3.33834">
        <ele>44.021728</ele>
        <time>2020-08-16T20:07:16.381Z</time>
      </trkpt>
      <trkpt lat="50.53763" lon="3.33804">
        <ele>44.39367</ele>
        <time>2020-08-16T20:07:37.884Z</time>
      </trkpt>
      <trkpt lat="50.53755" lon="3.33802">
        <ele>44.483313</ele>
        <time>2020-08-16T20:07:39.392Z</time>
      </trkpt>
      <trkpt lat="50.53751" lon="3.33801">
        <ele>44.527014</ele>
        <time>2020-08-16T20:07:40.084Z</time>
      </trkpt>
      <trkpt lat="50.53747" lon="3.338">
        <ele>44.574732</ele>
        <time>2020-08-16T20:07:40.897Z</time>
      </trkpt>
      <trkpt lat="50.53743" lon="3.33801">
        <ele>44.618158</ele>
        <time>2020-08-16T20:07:42.110Z</time>
      </trkpt>
      <trkpt lat="50.53684" lon="3.33847">
        <ele>45.324079</ele>
        <time>2020-08-16T20:07:55.379Z</time>
      </trkpt>
      <trkpt lat="50.53624" lon="3.339">
        <ele>46.317887</ele>
        <time>2020-08-16T20:08:11.329Z</time>
      </trkpt>
      <trkpt lat="50.53542" lon="3.33801">
        <ele>48.043592</ele>
        <time>2020-08-16T20:08:40.125Z</time>
      </trkpt>
      <trkpt lat="50.53457" lon="3.33697">
        <ele>48.768175</ele>
        <time>2020-08-16T20:09:05.988Z</time>
      </trkpt>
      <trkpt lat="50.53278" lon="3.3348">
        <ele>47.988834</ele>
        <time>2020-08-16T20:09:48.458Z</time>
      </trkpt>
      <trkpt lat="50.53257" lon="3.33457">
        <ele>47.772834</ele>
        <time>2020-08-16T20:09:52.866Z</time>
      </trkpt>
      <trkpt lat="50.53242" lon="3.33441">
        <ele>47.6262</ele>
        <time>2020-08-16T20:09:55.879Z</time>
      </trkpt>
      <trkpt lat="50.53062" lon="3.33297">
        <ele>43.972635</ele>
        <time>2020-08-16T20:10:28.039Z</time>
      </trkpt>
      <trkpt lat="50.52906" lon="3.33176">
        <ele>40.00707</ele>
        <time>2020-08-16T20:10:54.591Z</time>
      </trkpt>
      <trkpt lat="50.52932" lon="3.33095">
        <ele>39.341328</ele>
        <time>2020-08-16T20:11:03.609Z</time>
      </trkpt>
      <trkpt lat="50.52973" lon="3.32966">
        <ele>38.305425</ele>
        <time>2020-08-16T20:11:19.536Z</time>
      </trkpt>
      <trkpt lat="50.52978" lon="3.32952">
        <ele>38.19519</ele>
        <time>2020-08-16T20:11:21.203Z</time>
      </trkpt>
      <trkpt lat="50.52987" lon="3.3294">
        <ele>38.058802</ele>
        <time>2020-08-16T20:11:23.680Z</time>
      </trkpt>
      <trkpt lat="50.53105" lon="3.32806">
        <ele>38.697733</ele>
        <time>2020-08-16T20:11:57.552Z</time>
      </trkpt>
      <trkpt lat="50.53154" lon="3.32749">
        <ele>38.897721</ele>
        <time>2020-08-16T20:12:11.310Z</time>
      </trkpt>
      <trkpt lat="50.53161" lon="3.32741">
        <ele>38.874906</ele>
        <time>2020-08-16T20:12:13.534Z</time>
      </trkpt>
      <trkpt lat="50.53217" lon="3.32678">
        <ele>38.694187</ele>
        <time>2020-08-16T20:12:27.723Z</time>
      </trkpt>
      <trkpt lat="50.53223" lon="3.32665">
        <ele>38.667912</ele>
        <time>2020-08-16T20:12:30.020Z</time>
      </trkpt>
      <trkpt lat="50.53222" lon="3.32652">
        <ele>38.646279</ele>
        <time>2020-08-16T20:12:31.325Z</time>
      </trkpt>
      <trkpt lat="50.53122" lon="3.32406">
        <ele>37.297928</ele>
        <time>2020-08-16T20:13:03.401Z</time>
      </trkpt>
      <trkpt lat="50.53244" lon="3.32256">
        <ele>36.064278</ele>
        <time>2020-08-16T20:13:30.977Z</time>
      </trkpt>
      <trkpt lat="50.53244" lon="3.32236">
        <ele>35.977852</ele>
        <time>2020-08-16T20:13:33.389Z</time>
      </trkpt>
      <trkpt lat="50.53131" lon="3.31981">
        <ele>34.964275</ele>
        <time>2020-08-16T20:14:09.944Z</time>
      </trkpt>
      <trkpt lat="50.52908" lon="3.31758">
        <ele>34.824402</ele>
        <time>2020-08-16T20:15:01.939Z</time>
      </trkpt>
      <trkpt lat="50.52905" lon="3.3175">
        <ele>34.883097</ele>
        <time>2020-08-16T20:15:03.257Z</time>
      </trkpt>
      <trkpt lat="50.52905" lon="3.31739">
        <ele>34.944601</ele>
        <time>2020-08-16T20:15:04.928Z</time>
      </trkpt>
      <trkpt lat="50.5298" lon="3.31541">
        <ele>36.268251</ele>
        <time>2020-08-16T20:15:41.933Z</time>
      </trkpt>
      <trkpt lat="50.52993" lon="3.31509">
        <ele>36.477015</ele>
        <time>2020-08-16T20:15:47.974Z</time>
      </trkpt>
      <trkpt lat="50.52996" lon="3.31502">
        <ele>36.520627</ele>
        <time>2020-08-16T20:15:49.532Z</time>
      </trkpt>
      <trkpt lat="50.53043" lon="3.31407">
        <ele>37.179621</ele>
        <time>2020-08-16T20:16:08.094Z</time>
      </trkpt>
      <trkpt lat="50.53056" lon="3.31365">
        <ele>37.435858</ele>
        <time>2020-08-16T20:16:15.027Z</time>
      </trkpt>
      <trkpt lat="50.53064" lon="3.31325">
        <ele>37.667883</ele>
        <time>2020-08-16T20:16:21.002Z</time>
      </trkpt>
      <trkpt lat="50.53048" lon="3.31328">
        <ele>37.712174</ele>
        <time>2020-08-16T20:16:24.598Z</time>
      </trkpt>
      <trkpt lat="50.53015" lon="3.31314">
        <ele>37.525061</ele>
        <time>2020-08-16T20:16:31.110Z</time>
      </trkpt>
      <trkpt lat="50.5295" lon="3.31261">
        <ele>37.120467</ele>
        <time>2020-08-16T20:16:44.526Z</time>
      </trkpt>
      <trkpt lat="50.52873" lon="3.31214">
        <ele>36.617798</ele>
        <time>2020-08-16T20:16:58.745Z</time>
      </trkpt>
      <trkpt lat="50.52866" lon="3.31199">
        <ele>36.513019</ele>
        <time>2020-08-16T20:17:00.863Z</time>
      </trkpt>
      <trkpt lat="50.52796" lon="3.31087">
        <ele>35.646101</ele>
        <time>2020-08-16T20:17:18.439Z</time>
      </trkpt>
      <trkpt lat="50.52786" lon="3.31074">
        <ele>35.536696</ele>
        <time>2020-08-16T20:17:20.711Z</time>
      </trkpt>
      <trkpt lat="50.52743" lon="3.31005">
        <ele>35.133769</ele>
        <time>2020-08-16T20:17:31.748Z</time>
      </trkpt>
      <trkpt lat="50.52739" lon="3.30998">
        <ele>35.115353</ele>
        <time>2020-08-16T20:17:32.856Z</time>
      </trkpt>
      <trkpt lat="50.5271" lon="3.30948">
        <ele>34.980303</ele>
        <time>2020-08-16T20:17:41.015Z</time>
      </trkpt>
      <trkpt lat="50.52655" lon="3.30825">
        <ele>34.684062</ele>
        <time>2020-08-16T20:17:59.915Z</time>
      </trkpt>
      <trkpt lat="50.52616" lon="3.30723">
        <ele>34.479242</ele>
        <time>2020-08-16T20:18:14.729Z</time>
      </trkpt>
      <trkpt lat="50.52637" lon="3.30669">
        <ele>34.372811</ele>
        <time>2020-08-16T20:18:22.647Z</time>
      </trkpt>
      <trkpt lat="50.52653" lon="3.30634">
        <ele>34.301757</ele>
        <time>2020-08-16T20:18:27.863Z</time>
      </trkpt>
      <trkpt lat="50.52642" lon="3.3062">
        <ele>34.264861</ele>
        <time>2020-08-16T20:18:29.788Z</time>
      </trkpt>
      <trkpt lat="50.52583" lon="3.30518">
        <ele>33.741704</ele>
        <time>2020-08-16T20:18:41.651Z</time>
      </trkpt>
      <trkpt lat="50.52563" lon="3.30499">
        <ele>33.551056</ele>
        <time>2020-08-16T20:18:44.627Z</time>
      </trkpt>
      <trkpt lat="50.52455" lon="3.30402">
        <ele>32.494962</ele>
        <time>2020-08-16T20:18:59.826Z</time>
      </trkpt>
      <trkpt lat="50.5244" lon="3.30398">
        <ele>32.34913</ele>
        <time>2020-08-16T20:19:01.519Z</time>
      </trkpt>
      <trkpt lat="50.5242" lon="3.30407">
        <ele>32.136731</ele>
        <time>2020-08-16T20:19:04.142Z</time>
      </trkpt>
      <trkpt lat="50.5241" lon="3.30429">
        <ele>31.966806</ele>
        <time>2020-08-16T20:19:06.116Z</time>
      </trkpt>
      <trkpt lat="50.52305" lon="3.30681">
        <ele>30.281354</ele>
        <time>2020-08-16T20:19:29.802Z</time>
      </trkpt>
      <trkpt lat="50.52272" lon="3.30818">
        <ele>29.601831</ele>
        <time>2020-08-16T20:19:42.137Z</time>
      </trkpt>
      <trkpt lat="50.52182" lon="3.31508">
        <ele>27.168163</ele>
        <time>2020-08-16T20:20:41.342Z</time>
      </trkpt>
      <trkpt lat="50.52176" lon="3.31554">
        <ele>26.995435</ele>
        <time>2020-08-16T20:20:45.264Z</time>
      </trkpt>
      <trkpt lat="50.52163" lon="3.31625">
        <ele>26.7281</ele>
        <time>2020-08-16T20:20:51.342Z</time>
      </trkpt>
      <trkpt lat="50.52119" lon="3.31759">
        <ele>26.317887</ele>
        <time>2020-08-16T20:21:03.964Z</time>
      </trkpt>
      <trkpt lat="50.52029" lon="3.31924">
        <ele>25.841973</ele>
        <time>2020-08-16T20:21:23.055Z</time>
      </trkpt>
      <trkpt lat="50.51939" lon="3.32085">
        <ele>25.558793</ele>
        <time>2020-08-16T20:21:42.516Z</time>
      </trkpt>
      <trkpt lat="50.51928" lon="3.32103">
        <ele>25.529246</ele>
        <time>2020-08-16T20:21:44.745Z</time>
      </trkpt>
      <trkpt lat="50.51926" lon="3.32107">
        <ele>25.522474</ele>
        <time>2020-08-16T20:21:45.300Z</time>
      </trkpt>
      <trkpt lat="50.51831" lon="3.3228">
        <ele>25.270563</ele>
        <time>2020-08-16T20:22:05.583Z</time>
      </trkpt>
      <trkpt lat="50.51769" lon="3.32374">
        <ele>25.42255</ele>
        <time>2020-08-16T20:22:18.192Z</time>
      </trkpt>
      <trkpt lat="50.51455" lon="3.32787">
        <ele>26.395957</ele>
        <time>2020-08-16T20:23:25.124Z</time>
      </trkpt>
      <trkpt lat="50.51385" lon="3.32881">
        <ele>26.290234</ele>
        <time>2020-08-16T20:23:37.915Z</time>
      </trkpt>
      <trkpt lat="50.51385" lon="3.32881">
        <ele>26.290234</ele>
        <time>2020-08-16T20:23:37.917Z</time>
      </trkpt>
      <trkpt lat="50.5136" lon="3.32907">
        <ele>26.100799</ele>
        <time>2020-08-16T20:23:41.891Z</time>
      </trkpt>
      <trkpt lat="50.51208" lon="3.33049">
        <ele>24.947652</ele>
        <time>2020-08-16T20:24:04.266Z</time>
      </trkpt>
      <trkpt lat="50.51191" lon="3.3307">
        <ele>24.794465</ele>
        <time>2020-08-16T20:24:07.047Z</time>
      </trkpt>
      <trkpt lat="50.51167" lon="3.33115">
        <ele>24.534043</ele>
        <time>2020-08-16T20:24:11.820Z</time>
      </trkpt>
      <trkpt lat="50.51046" lon="3.33537">
        <ele>22.702225</ele>
        <time>2020-08-16T20:24:49.951Z</time>
      </trkpt>
      <trkpt lat="50.51035" lon="3.33603">
        <ele>22.518344</ele>
        <time>2020-08-16T20:24:55.582Z</time>
      </trkpt>
      <trkpt lat="50.51036" lon="3.33838">
        <ele>22.293384</ele>
        <time>2020-08-16T20:25:16.779Z</time>
      </trkpt>
      <trkpt lat="50.51032" lon="3.33868">
        <ele>22.342352</ele>
        <time>2020-08-16T20:25:19.835Z</time>
      </trkpt>
      <trkpt lat="50.50976" lon="3.34204">
        <ele>23.021133</ele>
        <time>2020-08-16T20:25:57.263Z</time>
      </trkpt>
      <trkpt lat="50.50935" lon="3.34375">
        <ele>23.07216</ele>
        <time>2020-08-16T20:26:15.076Z</time>
      </trkpt>
      <trkpt lat="50.50909" lon="3.34395">
        <ele>22.995841</ele>
        <time>2020-08-16T20:26:18.990Z</time>
      </trkpt>
      <trkpt lat="50.50789" lon="3.34361">
        <ele>22.674277</ele>
        <time>2020-08-16T20:26:35.157Z</time>
      </trkpt>
      <trkpt lat="50.50766" lon="3.34373">
        <ele>22.614126</ele>
        <time>2020-08-16T20:26:38.354Z</time>
      </trkpt>
      <trkpt lat="50.50751" lon="3.344">
        <ele>22.558</ele>
        <time>2020-08-16T20:26:41.365Z</time>
      </trkpt>
      <trkpt lat="50.50747" lon="3.34418">
        <ele>22.527708</ele>
        <time>2020-08-16T20:26:43.004Z</time>
      </trkpt>
      <trkpt lat="50.50732" lon="3.34985">
        <ele>22.459128</ele>
        <time>2020-08-16T20:27:36.795Z</time>
      </trkpt>
      <trkpt lat="50.50716" lon="3.35385">
        <ele>23.056348</ele>
        <time>2020-08-16T20:28:18.199Z</time>
      </trkpt>
      <trkpt lat="50.50712" lon="3.35396">
        <ele>23.077956</ele>
        <time>2020-08-16T20:28:19.764Z</time>
      </trkpt>
      <trkpt lat="50.50705" lon="3.35409">
        <ele>23.096238</ele>
        <time>2020-08-16T20:28:21.231Z</time>
      </trkpt>
      <trkpt lat="50.50633" lon="3.35462">
        <ele>23.012783</ele>
        <time>2020-08-16T20:28:32.169Z</time>
      </trkpt>
      <trkpt lat="50.50618" lon="3.35481">
        <ele>22.992315</ele>
        <time>2020-08-16T20:28:35.046Z</time>
      </trkpt>
      <trkpt lat="50.50605" lon="3.35534">
        <ele>22.954414</ele>
        <time>2020-08-16T20:28:39.865Z</time>
      </trkpt>
      <trkpt lat="50.50603" lon="3.35591">
        <ele>22.915927</ele>
        <time>2020-08-16T20:28:44.623Z</time>
      </trkpt>
      <trkpt lat="50.50602" lon="3.35623">
        <ele>23.117369</ele>
        <time>2020-08-16T20:28:48.093Z</time>
      </trkpt>
      <trkpt lat="50.50604" lon="3.35656">
        <ele>23.420949</ele>
        <time>2020-08-16T20:28:51.712Z</time>
      </trkpt>
      <trkpt lat="50.50624" lon="3.35727">
        <ele>24.130556</ele>
        <time>2020-08-16T20:29:01.297Z</time>
      </trkpt>
      <trkpt lat="50.50647" lon="3.35798">
        <ele>24.864714</ele>
        <time>2020-08-16T20:29:12.597Z</time>
      </trkpt>
      <trkpt lat="50.50654" lon="3.35819">
        <ele>25.077776</ele>
        <time>2020-08-16T20:29:16.515Z</time>
      </trkpt>
      <trkpt lat="50.50692" lon="3.35939">
        <ele>26.634166</ele>
        <time>2020-08-16T20:29:37.447Z</time>
      </trkpt>
      <trkpt lat="50.50695" lon="3.35954">
        <ele>26.842514</ele>
        <time>2020-08-16T20:29:40.163Z</time>
      </trkpt>
      <trkpt lat="50.50697" lon="3.35969">
        <ele>27.039132</ele>
        <time>2020-08-16T20:29:42.923Z</time>
      </trkpt>
      <trkpt lat="50.50704" lon="3.36009">
        <ele>27.576017</ele>
        <time>2020-08-16T20:29:49.560Z</time>
      </trkpt>
      <trkpt lat="50.50777" lon="3.36642">
        <ele>33.563802</ele>
        <time>2020-08-16T20:31:12.131Z</time>
      </trkpt>
      <trkpt lat="50.50799" lon="3.36804">
        <ele>34.506122</ele>
        <time>2020-08-16T20:31:33.082Z</time>
      </trkpt>
      <trkpt lat="50.50806" lon="3.36877">
        <ele>34.856192</ele>
        <time>2020-08-16T20:31:42.029Z</time>
      </trkpt>
      <trkpt lat="50.50904" lon="3.3772">
        <ele>34.351217</ele>
        <time>2020-08-16T20:32:59.697Z</time>
      </trkpt>
      <trkpt lat="50.50873" lon="3.38325">
        <ele>32.871681</ele>
        <time>2020-08-16T20:33:50.625Z</time>
      </trkpt>
      <trkpt lat="50.50868" lon="3.38356">
        <ele>32.823312</ele>
        <time>2020-08-16T20:33:54.097Z</time>
      </trkpt>
      <trkpt lat="50.5086" lon="3.38406">
        <ele>33.102223</ele>
        <time>2020-08-16T20:34:00.153Z</time>
      </trkpt>
      <trkpt lat="50.50845" lon="3.38503">
        <ele>33.728609</ele>
        <time>2020-08-16T20:34:13.471Z</time>
      </trkpt>
      <trkpt lat="50.50835" lon="3.38542">
        <ele>33.992644</ele>
        <time>2020-08-16T20:34:18.605Z</time>
      </trkpt>
      <trkpt lat="50.50814" lon="3.38578">
        <ele>34.302169</ele>
        <time>2020-08-16T20:34:24.575Z</time>
      </trkpt>
      <trkpt lat="50.50788" lon="3.38594">
        <ele>34.577435</ele>
        <time>2020-08-16T20:34:29.959Z</time>
      </trkpt>
      <trkpt lat="50.50771" lon="3.38598">
        <ele>34.545091</ele>
        <time>2020-08-16T20:34:33.265Z</time>
      </trkpt>
      <trkpt lat="50.5075" lon="3.38589">
        <ele>34.48309</ele>
        <time>2020-08-16T20:34:36.964Z</time>
      </trkpt>
      <trkpt lat="50.50747" lon="3.38587">
        <ele>34.475377</ele>
        <time>2020-08-16T20:34:37.330Z</time>
      </trkpt>
      <trkpt lat="50.50745" lon="3.38587">
        <ele>34.46942</ele>
        <time>2020-08-16T20:34:37.623Z</time>
      </trkpt>
      <trkpt lat="50.50743" lon="3.38588">
        <ele>34.461605</ele>
        <time>2020-08-16T20:34:38.094Z</time>
      </trkpt>
      <trkpt lat="50.5074" lon="3.38591">
        <ele>34.452138</ele>
        <time>2020-08-16T20:34:38.724Z</time>
      </trkpt>
      <trkpt lat="50.5074" lon="3.38594">
        <ele>34.446442</ele>
        <time>2020-08-16T20:34:39.100Z</time>
      </trkpt>
      <trkpt lat="50.50738" lon="3.38599">
        <ele>34.435876</ele>
        <time>2020-08-16T20:34:39.699Z</time>
      </trkpt>
      <trkpt lat="50.50738" lon="3.38603">
        <ele>34.428585</ele>
        <time>2020-08-16T20:34:40.098Z</time>
      </trkpt>
      <trkpt lat="50.5074" lon="3.38607">
        <ele>34.420831</ele>
        <time>2020-08-16T20:34:40.468Z</time>
      </trkpt>
      <trkpt lat="50.5074" lon="3.38618">
        <ele>34.401102</ele>
        <time>2020-08-16T20:34:41.426Z</time>
      </trkpt>
      <trkpt lat="50.5074" lon="3.38628">
        <ele>34.382175</ele>
        <time>2020-08-16T20:34:42.412Z</time>
      </trkpt>
      <trkpt lat="50.5074" lon="3.38637">
        <ele>34.365699</ele>
        <time>2020-08-16T20:34:43.419Z</time>
      </trkpt>
      <trkpt lat="50.50746" lon="3.38714">
        <ele>34.227131</ele>
        <time>2020-08-16T20:34:52.532Z</time>
      </trkpt>
      <trkpt lat="50.50787" lon="3.38937">
        <ele>33.305792</ele>
        <time>2020-08-16T20:35:17.792Z</time>
      </trkpt>
      <trkpt lat="50.50796" lon="3.3897">
        <ele>33.117419</ele>
        <time>2020-08-16T20:35:21.948Z</time>
      </trkpt>
      <trkpt lat="50.50838" lon="3.39111">
        <ele>32.551169</ele>
        <time>2020-08-16T20:35:40.523Z</time>
      </trkpt>
      <trkpt lat="50.50846" lon="3.39115">
        <ele>32.535616</ele>
        <time>2020-08-16T20:35:42.120Z</time>
      </trkpt>
      <trkpt lat="50.50846" lon="3.39136">
        <ele>32.510368</ele>
        <time>2020-08-16T20:35:44.797Z</time>
      </trkpt>
      <trkpt lat="50.50873" lon="3.39211">
        <ele>32.404456</ele>
        <time>2020-08-16T20:35:55.724Z</time>
      </trkpt>
      <trkpt lat="50.50874" lon="3.39233">
        <ele>32.377888</ele>
        <time>2020-08-16T20:35:58.517Z</time>
      </trkpt>
      <trkpt lat="50.50868" lon="3.39261">
        <ele>32.340729</ele>
        <time>2020-08-16T20:36:02.282Z</time>
      </trkpt>
      <trkpt lat="50.50817" lon="3.39324">
        <ele>32.235587</ele>
        <time>2020-08-16T20:36:15.253Z</time>
      </trkpt>
      <trkpt lat="50.50791" lon="3.39343">
        <ele>32.197381</ele>
        <time>2020-08-16T20:36:20.880Z</time>
      </trkpt>
      <trkpt lat="50.50803" lon="3.39403">
        <ele>32.143434</ele>
        <time>2020-08-16T20:36:28.991Z</time>
      </trkpt>
      <trkpt lat="50.50805" lon="3.3942">
        <ele>32.128881</ele>
        <time>2020-08-16T20:36:31.068Z</time>
      </trkpt>
      <trkpt lat="50.50827" lon="3.39557">
        <ele>31.969305</ele>
        <time>2020-08-16T20:36:48.571Z</time>
      </trkpt>
      <trkpt lat="50.50829" lon="3.39568">
        <ele>31.947183</ele>
        <time>2020-08-16T20:36:50.022Z</time>
      </trkpt>
      <trkpt lat="50.50831" lon="3.39579">
        <ele>31.925061</ele>
        <time>2020-08-16T20:36:51.364Z</time>
      </trkpt>
      <trkpt lat="50.50835" lon="3.39605">
        <ele>31.870816</ele>
        <time>2020-08-16T20:36:54.760Z</time>
      </trkpt>
      <trkpt lat="50.50844" lon="3.3965">
        <ele>31.778087</ele>
        <time>2020-08-16T20:37:00.541Z</time>
      </trkpt>
      <trkpt lat="50.50848" lon="3.39702">
        <ele>31.675748</ele>
        <time>2020-08-16T20:37:06.955Z</time>
      </trkpt>
      <trkpt lat="50.50845" lon="3.3981">
        <ele>31.446899</ele>
        <time>2020-08-16T20:37:19.978Z</time>
      </trkpt>
      <trkpt lat="50.50841" lon="3.40038">
        <ele>30.618906</ele>
        <time>2020-08-16T20:37:46.565Z</time>
      </trkpt>
      <trkpt lat="50.50845" lon="3.40083">
        <ele>30.453522</ele>
        <time>2020-08-16T20:37:51.912Z</time>
      </trkpt>
      <trkpt lat="50.50855" lon="3.40122">
        <ele>30.262493</ele>
        <time>2020-08-16T20:37:56.849Z</time>
      </trkpt>
      <trkpt lat="50.50877" lon="3.40191">
        <ele>29.917994</ele>
        <time>2020-08-16T20:38:05.741Z</time>
      </trkpt>
      <trkpt lat="50.50896" lon="3.40248">
        <ele>29.631017</ele>
        <time>2020-08-16T20:38:13.091Z</time>
      </trkpt>
      <trkpt lat="50.50925" lon="3.40335">
        <ele>29.191407</ele>
        <time>2020-08-16T20:38:24.234Z</time>
      </trkpt>
      <trkpt lat="50.5111" lon="3.40911">
        <ele>25.804035</ele>
        <time>2020-08-16T20:39:37.163Z</time>
      </trkpt>
      <trkpt lat="50.5116" lon="3.41081">
        <ele>24.828854</ele>
        <time>2020-08-16T20:39:58.467Z</time>
      </trkpt>
      <trkpt lat="50.51195" lon="3.412">
        <ele>24.098907</ele>
        <time>2020-08-16T20:40:13.397Z</time>
      </trkpt>
      <trkpt lat="50.51209" lon="3.41251">
        <ele>23.787392</ele>
        <time>2020-08-16T20:40:17.779Z</time>
      </trkpt>
      <trkpt lat="50.5122" lon="3.41303">
        <ele>23.482042</ele>
        <time>2020-08-16T20:40:22.048Z</time>
      </trkpt>
      <trkpt lat="50.51227" lon="3.4133">
        <ele>23.319749</ele>
        <time>2020-08-16T20:40:24.275Z</time>
      </trkpt>
      <trkpt lat="50.51187" lon="3.41373">
        <ele>22.925046</ele>
        <time>2020-08-16T20:40:32.762Z</time>
      </trkpt>
      <trkpt lat="50.51184" lon="3.41379">
        <ele>22.886024</ele>
        <time>2020-08-16T20:40:33.647Z</time>
      </trkpt>
      <trkpt lat="50.51159" lon="3.41429">
        <ele>22.572689</ele>
        <time>2020-08-16T20:40:40.768Z</time>
      </trkpt>
      <trkpt lat="50.51046" lon="3.41624">
        <ele>21.454388</ele>
        <time>2020-08-16T20:41:11.062Z</time>
      </trkpt>
      <trkpt lat="50.50896" lon="3.41734">
        <ele>20.724491</ele>
        <time>2020-08-16T20:41:42.361Z</time>
      </trkpt>
      <trkpt lat="50.50891" lon="3.41737">
        <ele>20.706031</ele>
        <time>2020-08-16T20:41:43.405Z</time>
      </trkpt>
      <trkpt lat="50.50887" lon="3.41766">
        <ele>20.640702</ele>
        <time>2020-08-16T20:41:47.131Z</time>
      </trkpt>
      <trkpt lat="50.50888" lon="3.41777">
        <ele>20.615738</ele>
        <time>2020-08-16T20:41:48.625Z</time>
      </trkpt>
      <trkpt lat="50.50896" lon="3.41809">
        <ele>20.538308</ele>
        <time>2020-08-16T20:41:52.798Z</time>
      </trkpt>
      <trkpt lat="50.50913" lon="3.41846">
        <ele>20.437854</ele>
        <time>2020-08-16T20:41:58.232Z</time>
      </trkpt>
      <trkpt lat="50.50925" lon="3.4187">
        <ele>20.370329</ele>
        <time>2020-08-16T20:42:01.943Z</time>
      </trkpt>
      <trkpt lat="50.50938" lon="3.41897">
        <ele>20.296045</ele>
        <time>2020-08-16T20:42:05.973Z</time>
      </trkpt>
      <trkpt lat="50.50962" lon="3.41947">
        <ele>20.237834</ele>
        <time>2020-08-16T20:42:13.515Z</time>
      </trkpt>
      <trkpt lat="50.50969" lon="3.4196">
        <ele>20.227848</ele>
        <time>2020-08-16T20:42:15.606Z</time>
      </trkpt>
      <trkpt lat="50.50977" lon="3.41975">
        <ele>20.216336</ele>
        <time>2020-08-16T20:42:17.934Z</time>
      </trkpt>
      <trkpt lat="50.50984" lon="3.4199">
        <ele>20.204957</ele>
        <time>2020-08-16T20:42:20.327Z</time>
      </trkpt>
      <trkpt lat="50.50992" lon="3.4201">
        <ele>20.191242</ele>
        <time>2020-08-16T20:42:23.206Z</time>
      </trkpt>
      <trkpt lat="50.51005" lon="3.42053">
        <ele>20.162734</ele>
        <time>2020-08-16T20:42:29.562Z</time>
      </trkpt>
      <trkpt lat="50.51014" lon="3.42107">
        <ele>20.129326</ele>
        <time>2020-08-16T20:42:36.938Z</time>
      </trkpt>
      <trkpt lat="50.51015" lon="3.42178">
        <ele>20.114066</ele>
        <time>2020-08-16T20:42:45.977Z</time>
      </trkpt>
      <trkpt lat="50.5101" lon="3.42222">
        <ele>20.148854</ele>
        <time>2020-08-16T20:42:51.565Z</time>
      </trkpt>
      <trkpt lat="50.51005" lon="3.4225">
        <ele>20.17192</ele>
        <time>2020-08-16T20:42:55.581Z</time>
      </trkpt>
      <trkpt lat="50.51003" lon="3.42257">
        <ele>20.178056</ele>
        <time>2020-08-16T20:42:56.778Z</time>
      </trkpt>
      <trkpt lat="50.50991" lon="3.42296">
        <ele>20.212136</ele>
        <time>2020-08-16T20:43:02.469Z</time>
      </trkpt>
      <trkpt lat="50.50987" lon="3.42321">
        <ele>20.232199</ele>
        <time>2020-08-16T20:43:06.079Z</time>
      </trkpt>
      <trkpt lat="50.50984" lon="3.42324">
        <ele>20.236681</ele>
        <time>2020-08-16T20:43:06.509Z</time>
      </trkpt>
      <trkpt lat="50.50931" lon="3.42378">
        <ele>20.3154</ele>
        <time>2020-08-16T20:43:16.698Z</time>
      </trkpt>
      <trkpt lat="50.50893" lon="3.42426">
        <ele>20.203866</ele>
        <time>2020-08-16T20:43:24.043Z</time>
      </trkpt>
      <trkpt lat="50.50684" lon="3.42741">
        <ele>19.077165</ele>
        <time>2020-08-16T20:44:02.968Z</time>
      </trkpt>
      <trkpt lat="50.50652" lon="3.4279">
        <ele>18.868327</ele>
        <time>2020-08-16T20:44:08.617Z</time>
      </trkpt>
      <trkpt lat="50.50633" lon="3.42818">
        <ele>18.757508</ele>
        <time>2020-08-16T20:44:11.809Z</time>
      </trkpt>
      <trkpt lat="50.50538" lon="3.42968">
        <ele>18.185953</ele>
        <time>2020-08-16T20:44:29.861Z</time>
      </trkpt>
      <trkpt lat="50.50529" lon="3.42984">
        <ele>18.250817</ele>
        <time>2020-08-16T20:44:31.773Z</time>
      </trkpt>
      <trkpt lat="50.50526" lon="3.42988">
        <ele>18.272671</ele>
        <time>2020-08-16T20:44:32.385Z</time>
      </trkpt>
      <trkpt lat="50.50524" lon="3.42992">
        <ele>18.291954</ele>
        <time>2020-08-16T20:44:32.928Z</time>
      </trkpt>
      <trkpt lat="50.50517" lon="3.43003">
        <ele>18.348947</ele>
        <time>2020-08-16T20:44:34.843Z</time>
      </trkpt>
      <trkpt lat="50.50469" lon="3.43071">
        <ele>18.714184</ele>
        <time>2020-08-16T20:44:45.798Z</time>
      </trkpt>
      <trkpt lat="50.50408" lon="3.43153">
        <ele>19.166462</ele>
        <time>2020-08-16T20:45:00.560Z</time>
      </trkpt>
      <trkpt lat="50.50394" lon="3.43172">
        <ele>19.345961</ele>
        <time>2020-08-16T20:45:03.909Z</time>
      </trkpt>
      <trkpt lat="50.50386" lon="3.43182">
        <ele>19.469786</ele>
        <time>2020-08-16T20:45:05.938Z</time>
      </trkpt>
      <trkpt lat="50.50382" lon="3.43186">
        <ele>19.526286</ele>
        <time>2020-08-16T20:45:06.895Z</time>
      </trkpt>
      <trkpt lat="50.50371" lon="3.43197">
        <ele>19.681133</ele>
        <time>2020-08-16T20:45:09.344Z</time>
      </trkpt>
      <trkpt lat="50.50362" lon="3.43201">
        <ele>19.788191</ele>
        <time>2020-08-16T20:45:11.097Z</time>
      </trkpt>
      <trkpt lat="50.5035" lon="3.43201">
        <ele>19.920517</ele>
        <time>2020-08-16T20:45:13.268Z</time>
      </trkpt>
      <trkpt lat="50.50342" lon="3.432">
        <ele>20.016581</ele>
        <time>2020-08-16T20:45:14.834Z</time>
      </trkpt>
      <trkpt lat="50.50333" lon="3.43203">
        <ele>20.124389</ele>
        <time>2020-08-16T20:45:16.532Z</time>
      </trkpt>
      <trkpt lat="50.50323" lon="3.43205">
        <ele>20.246542</ele>
        <time>2020-08-16T20:45:18.517Z</time>
      </trkpt>
      <trkpt lat="50.50298" lon="3.43213">
        <ele>20.54097</ele>
        <time>2020-08-16T20:45:23.190Z</time>
      </trkpt>
      <trkpt lat="50.50291" lon="3.43215">
        <ele>20.623127</ele>
        <time>2020-08-16T20:45:24.517Z</time>
      </trkpt>
      <trkpt lat="50.50228" lon="3.43245">
        <ele>21.468937</ele>
        <time>2020-08-16T20:45:37.803Z</time>
      </trkpt>
      <trkpt lat="50.50189" lon="3.43258">
        <ele>22.310179</ele>
        <time>2020-08-16T20:45:46.725Z</time>
      </trkpt>
      <trkpt lat="50.5016" lon="3.43262">
        <ele>22.909892</ele>
        <time>2020-08-16T20:45:53.576Z</time>
      </trkpt>
      <trkpt lat="50.50145" lon="3.43263">
        <ele>23.232844</ele>
        <time>2020-08-16T20:45:57.193Z</time>
      </trkpt>
      <trkpt lat="50.50139" lon="3.43264">
        <ele>23.364877</ele>
        <time>2020-08-16T20:45:58.874Z</time>
      </trkpt>
      <trkpt lat="50.50109" lon="3.43266">
        <ele>23.976627</ele>
        <time>2020-08-16T20:46:05.842Z</time>
      </trkpt>
      <trkpt lat="50.50048" lon="3.43272">
        <ele>25.252514</ele>
        <time>2020-08-16T20:46:20.793Z</time>
      </trkpt>
      <trkpt lat="50.50006" lon="3.43277">
        <ele>26.072888</ele>
        <time>2020-08-16T20:46:30.914Z</time>
      </trkpt>
      <trkpt lat="50.49958" lon="3.43293">
        <ele>27.026336</ele>
        <time>2020-08-16T20:46:42.719Z</time>
      </trkpt>
      <trkpt lat="50.49883" lon="3.4333">
        <ele>28.568085</ele>
        <time>2020-08-16T20:46:59.852Z</time>
      </trkpt>
      <trkpt lat="50.49839" lon="3.43364">
        <ele>28.802206</ele>
        <time>2020-08-16T20:47:08.802Z</time>
      </trkpt>
      <trkpt lat="50.49777" lon="3.43415">
        <ele>29.12649</ele>
        <time>2020-08-16T20:47:20.723Z</time>
      </trkpt>
      <trkpt lat="50.49769" lon="3.43422">
        <ele>29.168792</ele>
        <time>2020-08-16T20:47:22.100Z</time>
      </trkpt>
      <trkpt lat="50.49756" lon="3.43431">
        <ele>29.236119</ele>
        <time>2020-08-16T20:47:24.421Z</time>
      </trkpt>
      <trkpt lat="50.49734" lon="3.43444">
        <ele>29.342558</ele>
        <time>2020-08-16T20:47:28.842Z</time>
      </trkpt>
      <trkpt lat="50.49652" lon="3.43489">
        <ele>29.040435</ele>
        <time>2020-08-16T20:47:45.128Z</time>
      </trkpt>
      <trkpt lat="50.49635" lon="3.435">
        <ele>28.943394</ele>
        <time>2020-08-16T20:47:48.518Z</time>
      </trkpt>
      <trkpt lat="50.49576" lon="3.43539">
        <ele>28.616623</ele>
        <time>2020-08-16T20:48:00.082Z</time>
      </trkpt>
      <trkpt lat="50.4956" lon="3.43546">
        <ele>28.530269</ele>
        <time>2020-08-16T20:48:02.309Z</time>
      </trkpt>
      <trkpt lat="50.49477" lon="3.43565">
        <ele>28.231765</ele>
        <time>2020-08-16T20:48:13.275Z</time>
      </trkpt>
      <trkpt lat="50.4929" lon="3.43541">
        <ele>27.552462</ele>
        <time>2020-08-16T20:48:39.825Z</time>
      </trkpt>
      <trkpt lat="50.49267" lon="3.43542">
        <ele>27.465502</ele>
        <time>2020-08-16T20:48:42.838Z</time>
      </trkpt>
      <trkpt lat="50.49218" lon="3.43548">
        <ele>27.272404</ele>
        <time>2020-08-16T20:48:49.430Z</time>
      </trkpt>
      <trkpt lat="50.49186" lon="3.4355">
        <ele>27.090542</ele>
        <time>2020-08-16T20:48:53.544Z</time>
      </trkpt>
      <trkpt lat="50.49169" lon="3.4355">
        <ele>26.876392</ele>
        <time>2020-08-16T20:48:55.753Z</time>
      </trkpt>
      <trkpt lat="50.4915" lon="3.43547">
        <ele>26.636706</ele>
        <time>2020-08-16T20:48:58.245Z</time>
      </trkpt>
      <trkpt lat="50.49135" lon="3.43542">
        <ele>26.457727</ele>
        <time>2020-08-16T20:49:00.052Z</time>
      </trkpt>
      <trkpt lat="50.49092" lon="3.43524">
        <ele>25.906706</ele>
        <time>2020-08-16T20:49:05.381Z</time>
      </trkpt>
      <trkpt lat="50.49043" lon="3.43502">
        <ele>25.275575</ele>
        <time>2020-08-16T20:49:11.289Z</time>
      </trkpt>
      <trkpt lat="50.48999" lon="3.43482">
        <ele>24.624252</ele>
        <time>2020-08-16T20:49:16.407Z</time>
      </trkpt>
      <trkpt lat="50.48969" lon="3.43467">
        <ele>24.10866</ele>
        <time>2020-08-16T20:49:19.773Z</time>
      </trkpt>
      <trkpt lat="50.48913" lon="3.43426">
        <ele>23.069864</ele>
        <time>2020-08-16T20:49:26.761Z</time>
      </trkpt>
      <trkpt lat="50.4889" lon="3.43412">
        <ele>22.658173</ele>
        <time>2020-08-16T20:49:29.562Z</time>
      </trkpt>
      <trkpt lat="50.48866" lon="3.43401">
        <ele>22.244542</ele>
        <time>2020-08-16T20:49:32.420Z</time>
      </trkpt>
      <trkpt lat="50.48835" lon="3.43392">
        <ele>21.920311</ele>
        <time>2020-08-16T20:49:35.977Z</time>
      </trkpt>
      <trkpt lat="50.48832" lon="3.43412">
        <ele>21.874375</ele>
        <time>2020-08-16T20:49:37.636Z</time>
      </trkpt>
      <trkpt lat="50.48831" lon="3.43417">
        <ele>21.863274</ele>
        <time>2020-08-16T20:49:38.064Z</time>
      </trkpt>
      <trkpt lat="50.48777" lon="3.43508">
        <ele>21.598653</ele>
        <time>2020-08-16T20:49:48.566Z</time>
      </trkpt>
      <trkpt lat="50.48772" lon="3.4353">
        <ele>21.549882</ele>
        <time>2020-08-16T20:49:50.821Z</time>
      </trkpt>
      <trkpt lat="50.48774" lon="3.4355">
        <ele>21.505929</ele>
        <time>2020-08-16T20:49:53.045Z</time>
      </trkpt>
      <trkpt lat="50.48786" lon="3.43584">
        <ele>21.422863</ele>
        <time>2020-08-16T20:49:56.911Z</time>
      </trkpt>
      <trkpt lat="50.48793" lon="3.43602">
        <ele>21.377615</ele>
        <time>2020-08-16T20:49:59.360Z</time>
      </trkpt>
      <trkpt lat="50.488" lon="3.4362">
        <ele>21.39206</ele>
        <time>2020-08-16T20:50:01.549Z</time>
      </trkpt>
      <trkpt lat="50.48851" lon="3.4374">
        <ele>21.660101</ele>
        <time>2020-08-16T20:50:16.973Z</time>
      </trkpt>
      <trkpt lat="50.48863" lon="3.43769">
        <ele>21.724363</ele>
        <time>2020-08-16T20:50:20.419Z</time>
      </trkpt>
      <trkpt lat="50.48882" lon="3.43799">
        <ele>21.8029</ele>
        <time>2020-08-16T20:50:24.744Z</time>
      </trkpt>
      <trkpt lat="50.48907" lon="3.43837">
        <ele>21.857945</ele>
        <time>2020-08-16T20:50:30.087Z</time>
      </trkpt>
      <trkpt lat="50.48918" lon="3.43854">
        <ele>21.747823</ele>
        <time>2020-08-16T20:50:32.414Z</time>
      </trkpt>
      <trkpt lat="50.48944" lon="3.43891">
        <ele>21.513262</ele>
        <time>2020-08-16T20:50:37.031Z</time>
      </trkpt>
      <trkpt lat="50.48953" lon="3.43902">
        <ele>21.431634</ele>
        <time>2020-08-16T20:50:38.601Z</time>
      </trkpt>
      <trkpt lat="50.48981" lon="3.43937">
        <ele>21.185943</ele>
        <time>2020-08-16T20:50:43.099Z</time>
      </trkpt>
      <trkpt lat="50.48998" lon="3.43966">
        <ele>21.016497</ele>
        <time>2020-08-16T20:50:46.163Z</time>
      </trkpt>
      <trkpt lat="50.4902" lon="3.44022">
        <ele>20.730496</ele>
        <time>2020-08-16T20:50:51.272Z</time>
      </trkpt>
      <trkpt lat="50.49043" lon="3.44079">
        <ele>20.362471</ele>
        <time>2020-08-16T20:50:56.448Z</time>
      </trkpt>
      <trkpt lat="50.49109" lon="3.44183">
        <ele>19.508494</ele>
        <time>2020-08-16T20:51:07.754Z</time>
      </trkpt>
      <trkpt lat="50.49138" lon="3.44236">
        <ele>19.097742</ele>
        <time>2020-08-16T20:51:13.415Z</time>
      </trkpt>
      <trkpt lat="50.49167" lon="3.44324">
        <ele>18.862224</ele>
        <time>2020-08-16T20:51:21.868Z</time>
      </trkpt>
      <trkpt lat="50.49219" lon="3.44434">
        <ele>18.61405</ele>
        <time>2020-08-16T20:51:34.302Z</time>
      </trkpt>
      <trkpt lat="50.49227" lon="3.44464">
        <ele>18.553655</ele>
        <time>2020-08-16T20:51:37.383Z</time>
      </trkpt>
      <trkpt lat="50.49237" lon="3.44565">
        <ele>18.400614</ele>
        <time>2020-08-16T20:51:46.807Z</time>
      </trkpt>
      <trkpt lat="50.49254" lon="3.44618">
        <ele>18.318009</ele>
        <time>2020-08-16T20:51:52.239Z</time>
      </trkpt>
      <trkpt lat="50.49286" lon="3.44688">
        <ele>18.199065</ele>
        <time>2020-08-16T20:51:59.821Z</time>
      </trkpt>
      <trkpt lat="50.49301" lon="3.44709">
        <ele>18.155007</ele>
        <time>2020-08-16T20:52:02.604Z</time>
      </trkpt>
      <trkpt lat="50.49336" lon="3.44729">
        <ele>18.101827</ele>
        <time>2020-08-16T20:52:07.635Z</time>
      </trkpt>
      <trkpt lat="50.4934" lon="3.44731">
        <ele>18.099658</ele>
        <time>2020-08-16T20:52:08.130Z</time>
      </trkpt>
      <trkpt lat="50.49353" lon="3.4475">
        <ele>18.090066</ele>
        <time>2020-08-16T20:52:10.492Z</time>
      </trkpt>
      <trkpt lat="50.49359" lon="3.44758">
        <ele>18.085512</ele>
        <time>2020-08-16T20:52:11.678Z</time>
      </trkpt>
      <trkpt lat="50.49366" lon="3.44748">
        <ele>18.080731</ele>
        <time>2020-08-16T20:52:12.882Z</time>
      </trkpt>
      <trkpt lat="50.49368" lon="3.44744">
        <ele>18.078936</ele>
        <time>2020-08-16T20:52:13.345Z</time>
      </trkpt>
      <trkpt lat="50.4942" lon="3.44663">
        <ele>18.038881</ele>
        <time>2020-08-16T20:52:24.383Z</time>
      </trkpt>
      <trkpt lat="50.49426" lon="3.44654">
        <ele>18.034361</ele>
        <time>2020-08-16T20:52:25.493Z</time>
      </trkpt>
      <trkpt lat="50.49477" lon="3.44573">
        <ele>18.032689</ele>
        <time>2020-08-16T20:52:37.229Z</time>
      </trkpt>
      <trkpt lat="50.49491" lon="3.44561">
        <ele>18.041551</ele>
        <time>2020-08-16T20:52:40.134Z</time>
      </trkpt>
      <trkpt lat="50.49544" lon="3.44521">
        <ele>18.074166</ele>
        <time>2020-08-16T20:52:49.219Z</time>
      </trkpt>
      <trkpt lat="50.49562" lon="3.44503">
        <ele>18.086105</ele>
        <time>2020-08-16T20:52:52.531Z</time>
      </trkpt>
      <trkpt lat="50.4959" lon="3.44475">
        <ele>18.104324</ele>
        <time>2020-08-16T20:52:57.198Z</time>
      </trkpt>
      <trkpt lat="50.49648" lon="3.44404">
        <ele>17.622598</ele>
        <time>2020-08-16T20:53:06.929Z</time>
      </trkpt>
      <trkpt lat="50.49663" lon="3.44393">
        <ele>17.482428</ele>
        <time>2020-08-16T20:53:08.961Z</time>
      </trkpt>
      <trkpt lat="50.49669" lon="3.44396">
        <ele>17.431047</ele>
        <time>2020-08-16T20:53:09.727Z</time>
      </trkpt>
      <trkpt lat="50.49672" lon="3.44401">
        <ele>17.392342</ele>
        <time>2020-08-16T20:53:10.295Z</time>
      </trkpt>
      <trkpt lat="50.49674" lon="3.44405">
        <ele>17.36488</ele>
        <time>2020-08-16T20:53:10.626Z</time>
      </trkpt>
      <trkpt lat="50.49687" lon="3.44433">
        <ele>17.175825</ele>
        <time>2020-08-16T20:53:13.385Z</time>
      </trkpt>
      <trkpt lat="50.49735" lon="3.44569">
        <ele>16.401872</ele>
        <time>2020-08-16T20:53:25.175Z</time>
      </trkpt>
      <trkpt lat="50.49754" lon="3.44626">
        <ele>16.158944</ele>
        <time>2020-08-16T20:53:30.235Z</time>
      </trkpt>
      <trkpt lat="50.49776" lon="3.4469">
        <ele>15.88504</ele>
        <time>2020-08-16T20:53:36.397Z</time>
      </trkpt>
      <trkpt lat="50.49798" lon="3.44759">
        <ele>15.592927</ele>
        <time>2020-08-16T20:53:43.172Z</time>
      </trkpt>
      <trkpt lat="50.49799" lon="3.44762">
        <ele>15.580822</ele>
        <time>2020-08-16T20:53:43.560Z</time>
      </trkpt>
      <trkpt lat="50.49844" lon="3.44889">
        <ele>15.979011</ele>
        <time>2020-08-16T20:53:58.010Z</time>
      </trkpt>
      <trkpt lat="50.49851" lon="3.44909">
        <ele>16.068915</ele>
        <time>2020-08-16T20:54:00.754Z</time>
      </trkpt>
      <trkpt lat="50.49853" lon="3.44914">
        <ele>16.090765</ele>
        <time>2020-08-16T20:54:01.381Z</time>
      </trkpt>
      <trkpt lat="50.49864" lon="3.44939">
        <ele>16.20611</ele>
        <time>2020-08-16T20:54:04.917Z</time>
      </trkpt>
      <trkpt lat="50.49867" lon="3.44946">
        <ele>16.237841</ele>
        <time>2020-08-16T20:54:05.942Z</time>
      </trkpt>
      <trkpt lat="50.49874" lon="3.44964">
        <ele>16.318602</ele>
        <time>2020-08-16T20:54:08.622Z</time>
      </trkpt>
      <trkpt lat="50.49935" lon="3.45106">
        <ele>16.91108</ele>
        <time>2020-08-16T20:54:29.354Z</time>
      </trkpt>
      <trkpt lat="50.49943" lon="3.45125">
        <ele>16.987288</ele>
        <time>2020-08-16T20:54:31.898Z</time>
      </trkpt>
      <trkpt lat="50.49958" lon="3.45159">
        <ele>17.120284</ele>
        <time>2020-08-16T20:54:36.019Z</time>
      </trkpt>
      <trkpt lat="50.49974" lon="3.45177">
        <ele>17.222474</ele>
        <time>2020-08-16T20:54:39.173Z</time>
      </trkpt>
      <trkpt lat="50.49999" lon="3.45188">
        <ele>17.350345</ele>
        <time>2020-08-16T20:54:42.815Z</time>
      </trkpt>
      <trkpt lat="50.50005" lon="3.45189">
        <ele>17.382817</ele>
        <time>2020-08-16T20:54:43.850Z</time>
      </trkpt>
      <trkpt lat="50.50044" lon="3.45199">
        <ele>17.47671</ele>
        <time>2020-08-16T20:54:50.006Z</time>
      </trkpt>
      <trkpt lat="50.50051" lon="3.45202">
        <ele>17.468648</ele>
        <time>2020-08-16T20:54:51.060Z</time>
      </trkpt>
      <trkpt lat="50.50052" lon="3.45203">
        <ele>17.466741</ele>
        <time>2020-08-16T20:54:51.315Z</time>
      </trkpt>
      <trkpt lat="50.50084" lon="3.45223">
        <ele>17.427039</ele>
        <time>2020-08-16T20:54:56.574Z</time>
      </trkpt>
      <trkpt lat="50.50092" lon="3.45227">
        <ele>17.417313</ele>
        <time>2020-08-16T20:54:57.788Z</time>
      </trkpt>
      <trkpt lat="50.5013" lon="3.45249">
        <ele>17.371245</ele>
        <time>2020-08-16T20:55:03.275Z</time>
      </trkpt>
      <trkpt lat="50.50142" lon="3.45258">
        <ele>17.356071</ele>
        <time>2020-08-16T20:55:05.165Z</time>
      </trkpt>
      <trkpt lat="50.50193" lon="3.45294">
        <ele>17.291622</ele>
        <time>2020-08-16T20:55:12.719Z</time>
      </trkpt>
      <trkpt lat="50.50229" lon="3.45322">
        <ele>17.428545</ele>
        <time>2020-08-16T20:55:18.440Z</time>
      </trkpt>
      <trkpt lat="50.5031" lon="3.45386">
        <ele>17.759188</ele>
        <time>2020-08-16T20:55:34.685Z</time>
      </trkpt>
      <trkpt lat="50.50341" lon="3.45413">
        <ele>17.888083</ele>
        <time>2020-08-16T20:55:40.445Z</time>
      </trkpt>
      <trkpt lat="50.50355" lon="3.45425">
        <ele>17.947024</ele>
        <time>2020-08-16T20:55:42.901Z</time>
      </trkpt>
      <trkpt lat="50.50407" lon="3.45459">
        <ele>18.210509</ele>
        <time>2020-08-16T20:55:51.781Z</time>
      </trkpt>
      <trkpt lat="50.5039" lon="3.45552">
        <ele>18.497156</ele>
        <time>2020-08-16T20:56:05.598Z</time>
      </trkpt>
      <trkpt lat="50.50388" lon="3.45566">
        <ele>18.541904</ele>
        <time>2020-08-16T20:56:07.666Z</time>
      </trkpt>
      <trkpt lat="50.50381" lon="3.45609">
        <ele>18.675702</ele>
        <time>2020-08-16T20:56:14.364Z</time>
      </trkpt>
      <trkpt lat="50.50383" lon="3.45617">
        <ele>18.699189</ele>
        <time>2020-08-16T20:56:15.482Z</time>
      </trkpt>
      <trkpt lat="50.50437" lon="3.45631">
        <ele>18.966457</ele>
        <time>2020-08-16T20:56:27.349Z</time>
      </trkpt>
      <trkpt lat="50.50436" lon="3.45642">
        <ele>19.001261</ele>
        <time>2020-08-16T20:56:28.709Z</time>
      </trkpt>
      <trkpt lat="50.50433" lon="3.4572">
        <ele>19.246027</ele>
        <time>2020-08-16T20:56:36.750Z</time>
      </trkpt>
      <trkpt lat="50.50424" lon="3.45772">
        <ele>19.417131</ele>
        <time>2020-08-16T20:56:42.708Z</time>
      </trkpt>
      <trkpt lat="50.5041" lon="3.45851">
        <ele>19.675428</ele>
        <time>2020-08-16T20:56:51.667Z</time>
      </trkpt>
      <trkpt lat="50.50361" lon="3.46074">
        <ele>20.388145</ele>
        <time>2020-08-16T20:57:16.927Z</time>
      </trkpt>
      <trkpt lat="50.50345" lon="3.46155">
        <ele>20.562803</ele>
        <time>2020-08-16T20:57:25.780Z</time>
      </trkpt>
      <trkpt lat="50.50335" lon="3.46236">
        <ele>20.629489</ele>
        <time>2020-08-16T20:57:33.995Z</time>
      </trkpt>
      <trkpt lat="50.50325" lon="3.46304">
        <ele>20.686459</ele>
        <time>2020-08-16T20:57:40.859Z</time>
      </trkpt>
      <trkpt lat="50.50317" lon="3.46374">
        <ele>20.744149</ele>
        <time>2020-08-16T20:57:47.648Z</time>
      </trkpt>
      <trkpt lat="50.50313" lon="3.46411">
        <ele>20.762741</ele>
        <time>2020-08-16T20:57:50.984Z</time>
      </trkpt>
      <trkpt lat="50.50316" lon="3.46422">
        <ele>20.762741</ele>
        <time>2020-08-16T20:57:52.175Z</time>
      </trkpt>
      <trkpt lat="50.5034" lon="3.46438">
        <ele>20.762741</ele>
        <time>2020-08-16T20:57:55.863Z</time>
      </trkpt>
      <trkpt lat="50.50361" lon="3.46454">
        <ele>20.762741</ele>
        <time>2020-08-16T20:57:59.185Z</time>
      </trkpt>
      <trkpt lat="50.50362" lon="3.46434">
        <ele>20.762741</ele>
        <time>2020-08-16T20:58:13.098Z</time>
      </trkpt>
      <trkpt lat="50.50356" lon="3.46426">
        <ele>20.762741</ele>
        <time>2020-08-16T20:58:21.830Z</time>
      </trkpt>
      <trkpt lat="50.50337" lon="3.46412">
        <ele>20.762741</ele>
        <time>2020-08-16T20:58:45.052Z</time>
      </trkpt>
      <trkpt lat="50.50334" lon="3.46406">
        <ele>20.762741</ele>
        <time>2020-08-16T20:58:50.092Z</time>
      </trkpt>
    </trkseg>
  </trk>
</gpx>